Wetterdaten: Freitag, 13.05.2016
Datum Zeit Temp. A. Feuchte A. Luftdruck Regen Wind Richtung Richtung Sonnenschein ET UV Solar Taupunkt Windchill Windben Empfang
13.05.2016 00:00 10,9 C 95 % 995,4 hPa 0,0 l/m 9,7 km/h (2 Bft) SW 233 0 min 0,000 mm 0,0 UV-I 0 W/m 10,1 C 8,8 C 12,9 km/h (3 Bft) 100,00 %
13.05.2016 00:02 10,9 C 95 % 995,4 hPa 0,2 l/m 10,4 km/h (2 Bft) S-SW 213 0 min 0,000 mm 0,0 UV-I 0 W/m 10,1 C 8,4 C 14,5 km/h (3 Bft) 100,00 %
13.05.2016 00:03 10,9 C 95 % 995,4 hPa 0,0 l/m 11,0 km/h (2 Bft) SW 234 0 min 0,000 mm 0,0 UV-I 0 W/m 10,1 C 8,1 C 17,7 km/h (3 Bft) 100,00 %
13.05.2016 00:04 10,9 C 95 % 995,4 hPa 0,0 l/m 12,4 km/h (3 Bft) W-SW 255 0 min 0,000 mm 0,0 UV-I 0 W/m 10,1 C 7,4 C 19,3 km/h (3 Bft) 100,00 %
13.05.2016 00:05 10,9 C 95 % 995,4 hPa 0,0 l/m 10,8 km/h (2 Bft) SW 214 0 min 0,000 mm 0,0 UV-I 0 W/m 10,1 C 8,2 C 14,5 km/h (3 Bft) 100,00 %
13.05.2016 00:06 10,9 C 95 % 995,4 hPa 0,0 l/m 12,2 km/h (2 Bft) W-SW 238 0 min 0,000 mm 0,0 UV-I 0 W/m 10,1 C 7,5 C 16,1 km/h (3 Bft) 100,00 %
13.05.2016 00:07 10,9 C 95 % 995,4 hPa 0,2 l/m 14,8 km/h (3 Bft) W-SW 242 0 min 0,000 mm 0,0 UV-I 0 W/m 10,1 C 6,3 C 20,9 km/h (4 Bft) 100,00 %
13.05.2016 00:08 10,9 C 95 % 995,4 hPa 0,0 l/m 13,7 km/h (3 Bft) SW 217 0 min 0,000 mm 0,0 UV-I 0 W/m 10,1 C 6,8 C 20,9 km/h (4 Bft) 100,00 %
13.05.2016 00:09 10,9 C 95 % 995,4 hPa 0,0 l/m 12,6 km/h (3 Bft) W-SW 249 0 min 0,000 mm 0,0 UV-I 0 W/m 10,1 C 7,3 C 17,7 km/h (3 Bft) 100,00 %
13.05.2016 00:10 10,9 C 95 % 995,4 hPa 0,0 l/m 11,4 km/h (2 Bft) S-SW 212 0 min 0,000 mm 0,0 UV-I 0 W/m 10,1 C 7,8 C 19,3 km/h (3 Bft) 100,00 %
13.05.2016 00:11 10,8 C 95 % 995,4 hPa 0,0 l/m 15,6 km/h (3 Bft) S-SW 209 0 min 0,000 mm 0,0 UV-I 0 W/m 10,0 C 5,9 C 20,9 km/h (4 Bft) 100,00 %
13.05.2016 00:12 10,8 C 95 % 995,4 hPa 0,2 l/m 11,2 km/h (2 Bft) SW 225 0 min 0,000 mm 0,0 UV-I 0 W/m 10,0 C 7,8 C 16,1 km/h (3 Bft) 100,00 %
13.05.2016 00:13 10,8 C 95 % 995,4 hPa 0,0 l/m 12,8 km/h (3 Bft) SW 221 0 min 0,000 mm 0,0 UV-I 0 W/m 10,0 C 7,1 C 17,7 km/h (3 Bft) 100,00 %
13.05.2016 00:14 10,8 C 95 % 995,3 hPa 0,0 l/m 17,6 km/h (3 Bft) SW 221 0 min 0,000 mm 0,0 UV-I 0 W/m 10,0 C 5,1 C 24,1 km/h (4 Bft) 100,00 %
13.05.2016 00:15 10,8 C 95 % 995,3 hPa 0,2 l/m 13,6 km/h (3 Bft) W-SW 243 0 min 0,000 mm 0,0 UV-I 0 W/m 10,0 C 6,7 C 19,3 km/h (3 Bft) 100,00 %
13.05.2016 00:16 10,8 C 95 % 995,3 hPa 0,0 l/m 12,6 km/h (3 Bft) SW 236 0 min 0,000 mm 0,0 UV-I 0 W/m 10,0 C 7,1 C 24,1 km/h (4 Bft) 100,00 %
13.05.2016 00:17 10,8 C 95 % 995,3 hPa 0,0 l/m 16,7 km/h (3 Bft) W-SW 240 0 min 0,000 mm 0,0 UV-I 0 W/m 10,0 C 5,4 C 24,1 km/h (4 Bft) 100,00 %
13.05.2016 00:18 10,8 C 95 % 995,3 hPa 0,2 l/m 16,2 km/h (3 Bft) W-SW 239 0 min 0,000 mm 0,0 UV-I 0 W/m 10,0 C 5,6 C 20,9 km/h (4 Bft) 100,00 %
13.05.2016 00:19 10,8 C 95 % 995,3 hPa 0,0 l/m 14,3 km/h (3 Bft) SW 222 0 min 0,000 mm 0,0 UV-I 0 W/m 10,0 C 6,4 C 22,5 km/h (4 Bft) 100,00 %
13.05.2016 00:20 10,8 C 95 % 995,3 hPa 0,0 l/m 14,5 km/h (3 Bft) SW 222 0 min 0,000 mm 0,0 UV-I 0 W/m 10,0 C 6,3 C 17,7 km/h (3 Bft) 95,65 %
13.05.2016 00:21 10,8 C 95 % 995,3 hPa 0,2 l/m 11,5 km/h (2 Bft) W-SW 245 0 min 0,000 mm 0,0 UV-I 0 W/m 10,0 C 7,7 C 17,7 km/h (3 Bft) 100,00 %
13.05.2016 00:22 10,8 C 95 % 995,3 hPa 0,0 l/m 15,3 km/h (3 Bft) SW 229 0 min 0,000 mm 0,0 UV-I 0 W/m 10,0 C 6,0 C 19,3 km/h (3 Bft) 100,00 %
13.05.2016 00:23 10,8 C 95 % 995,2 hPa 0,0 l/m 16,9 km/h (3 Bft) W-SW 237 0 min 0,000 mm 0,0 UV-I 0 W/m 10,0 C 5,4 C 22,5 km/h (4 Bft) 100,00 %
13.05.2016 00:24 10,8 C 95 % 995,2 hPa 0,0 l/m 13,7 km/h (3 Bft) SW 232 0 min 0,000 mm 0,0 UV-I 0 W/m 10,0 C 6,7 C 24,1 km/h (4 Bft) 96,15 %
13.05.2016 00:25 10,8 C 95 % 995,2 hPa 0,2 l/m 13,8 km/h (3 Bft) SW 228 0 min 0,000 mm 0,0 UV-I 0 W/m 10,0 C 6,6 C 19,3 km/h (3 Bft) 93,33 %
13.05.2016 00:26 10,8 C 95 % 995,2 hPa 0,0 l/m 12,3 km/h (3 Bft) S-SW 194 0 min 0,000 mm 0,0 UV-I 0 W/m 10,0 C 7,3 C 17,7 km/h (3 Bft) 95,65 %
13.05.2016 00:27 10,7 C 95 % 995,2 hPa 0,0 l/m 15,0 km/h (3 Bft) SW 229 0 min 0,000 mm 0,0 UV-I 0 W/m 9,9 C 6,0 C 25,7 km/h (4 Bft) 100,00 %
13.05.2016 00:28 10,7 C 95 % 995,2 hPa 0,2 l/m 18,8 km/h (3 Bft) S-SW 205 0 min 0,000 mm 0,0 UV-I 0 W/m 9,9 C 4,6 C 25,7 km/h (4 Bft) 100,00 %
13.05.2016 00:29 10,7 C 95 % 995,2 hPa 0,0 l/m 15,8 km/h (3 Bft) S-SW 208 0 min 0,000 mm 0,0 UV-I 0 W/m 9,9 C 5,7 C 24,1 km/h (4 Bft) 100,00 %
13.05.2016 00:30 10,7 C 95 % 995,2 hPa 0,0 l/m 16,3 km/h (3 Bft) SW 226 0 min 0,000 mm 0,0 UV-I 0 W/m 9,9 C 5,5 C 22,5 km/h (4 Bft) 100,00 %
13.05.2016 00:31 10,7 C 95 % 995,1 hPa 0,0 l/m 13,3 km/h (3 Bft) SW 235 0 min 0,000 mm 0,0 UV-I 0 W/m 9,9 C 6,7 C 19,3 km/h (3 Bft) 96,15 %
13.05.2016 00:32 10,7 C 95 % 995,1 hPa 0,0 l/m 13,4 km/h (3 Bft) SW 234 0 min 0,000 mm 0,0 UV-I 0 W/m 9,9 C 6,7 C 19,3 km/h (3 Bft) 100,00 %
13.05.2016 00:33 10,7 C 95 % 995,1 hPa 0,2 l/m 14,3 km/h (3 Bft) S-SW 204 0 min 0,000 mm 0,0 UV-I 0 W/m 9,9 C 6,3 C 20,9 km/h (4 Bft) 100,00 %
13.05.2016 00:34 10,7 C 95 % 995,1 hPa 0,0 l/m 16,3 km/h (3 Bft) SW 225 0 min 0,000 mm 0,0 UV-I 0 W/m 9,9 C 5,5 C 24,1 km/h (4 Bft) 100,00 %
13.05.2016 00:35 10,7 C 95 % 995,1 hPa 0,0 l/m 16,6 km/h (3 Bft) W-SW 238 0 min 0,000 mm 0,0 UV-I 0 W/m 9,9 C 5,4 C 25,7 km/h (4 Bft) 100,00 %
13.05.2016 00:36 10,7 C 95 % 995,1 hPa 0,0 l/m 15,4 km/h (3 Bft) SW 233 0 min 0,000 mm 0,0 UV-I 0 W/m 9,9 C 5,8 C 20,9 km/h (4 Bft) 100,00 %
13.05.2016 00:37 10,7 C 95 % 995,1 hPa 0,2 l/m 16,8 km/h (3 Bft) W 260 0 min 0,000 mm 0,0 UV-I 0 W/m 9,9 C 5,3 C 25,7 km/h (4 Bft) 86,96 %
13.05.2016 00:38 10,6 C 95 % 995,1 hPa 0,0 l/m 15,8 km/h (3 Bft) SW 216 0 min 0,000 mm 0,0 UV-I 0 W/m 9,8 C 5,5 C 22,5 km/h (4 Bft) 100,00 %
13.05.2016 00:39 10,6 C 95 % 995,1 hPa 0,0 l/m 12,2 km/h (2 Bft) W-SW 248 0 min 0,000 mm 0,0 UV-I 0 W/m 9,8 C 7,1 C 17,7 km/h (3 Bft) 96,15 %
13.05.2016 00:40 10,6 C 95 % 995,2 hPa 0,0 l/m 20,6 km/h (4 Bft) SW 231 0 min 0,000 mm 0,0 UV-I 0 W/m 9,8 C 3,9 C 25,7 km/h (4 Bft) 95,83 %
13.05.2016 00:41 10,6 C 95 % 995,1 hPa 0,0 l/m 19,5 km/h (3 Bft) SW 225 0 min 0,000 mm 0,0 UV-I 0 W/m 9,8 C 4,2 C 24,1 km/h (4 Bft) 100,00 %
13.05.2016 00:42 10,6 C 95 % 995,2 hPa 0,0 l/m 15,5 km/h (3 Bft) SW 231 0 min 0,000 mm 0,0 UV-I 0 W/m 9,8 C 5,7 C 24,1 km/h (4 Bft) 96,67 %
13.05.2016 00:43 10,6 C 95 % 995,2 hPa 0,0 l/m 18,2 km/h (3 Bft) SW 215 0 min 0,000 mm 0,0 UV-I 0 W/m 9,8 C 4,7 C 22,5 km/h (4 Bft) 92,86 %
13.05.2016 00:44 10,5 C 95 % 995,1 hPa 0,2 l/m 15,8 km/h (3 Bft) SW 225 0 min 0,000 mm 0,0 UV-I 0 W/m 9,7 C 5,4 C 22,5 km/h (4 Bft) 96,30 %
13.05.2016 00:45 10,5 C 95 % 995,2 hPa 0,0 l/m 18,2 km/h (3 Bft) W 261 0 min 0,000 mm 0,0 UV-I 0 W/m 9,7 C 4,5 C 22,5 km/h (4 Bft) 96,15 %
13.05.2016 00:46 10,5 C 95 % 995,2 hPa 0,0 l/m 19,8 km/h (3 Bft) SW 225 0 min 0,000 mm 0,0 UV-I 0 W/m 9,7 C 4,0 C 29,0 km/h (5 Bft) 95,83 %
13.05.2016 00:47 10,5 C 95 % 995,1 hPa 0,0 l/m 22,9 km/h (4 Bft) W 264 0 min 0,000 mm 0,0 UV-I 0 W/m 9,7 C 3,1 C 30,6 km/h (5 Bft) 95,65 %
13.05.2016 00:48 10,5 C 95 % 995,1 hPa 0,2 l/m 18,1 km/h (3 Bft) SW 225 0 min 0,000 mm 0,0 UV-I 0 W/m 9,7 C 4,6 C 22,5 km/h (4 Bft) 96,67 %
13.05.2016 00:49 10,4 C 95 % 995,1 hPa 0,0 l/m 19,4 km/h (3 Bft) SW 236 0 min 0,000 mm 0,0 UV-I 0 W/m 9,6 C 4,0 C 29,0 km/h (5 Bft) 91,30 %
13.05.2016 00:50 10,4 C 95 % 995,1 hPa 0,0 l/m 19,0 km/h (3 Bft) W-SW 239 0 min 0,000 mm 0,0 UV-I 0 W/m 9,6 C 4,1 C 24,1 km/h (4 Bft) 100,00 %
13.05.2016 00:51 10,4 C 95 % 995,2 hPa 0,0 l/m 16,8 km/h (3 Bft) SW 231 0 min 0,000 mm 0,0 UV-I 0 W/m 9,6 C 4,9 C 22,5 km/h (4 Bft) 93,75 %
13.05.2016 00:52 10,4 C 95 % 995,1 hPa 0,0 l/m 15,6 km/h (3 Bft) W-SW 243 0 min 0,000 mm 0,0 UV-I 0 W/m 9,6 C 5,4 C 22,5 km/h (4 Bft) 100,00 %
13.05.2016 00:53 10,4 C 95 % 995,1 hPa 0,0 l/m 11,8 km/h (2 Bft) W-SW 240 0 min 0,000 mm 0,0 UV-I 0 W/m 9,6 C 7,1 C 17,7 km/h (3 Bft) 91,67 %
13.05.2016 00:54 10,4 C 95 % 995,0 hPa 0,2 l/m 17,8 km/h (3 Bft) SW 222 0 min 0,000 mm 0,0 UV-I 0 W/m 9,6 C 4,5 C 22,5 km/h (4 Bft) 100,00 %
13.05.2016 00:55 10,4 C 95 % 995,0 hPa 0,0 l/m 24,5 km/h (4 Bft) SW 222 0 min 0,000 mm 0,0 UV-I 0 W/m 9,6 C 2,5 C 30,6 km/h (5 Bft) 96,15 %
13.05.2016 00:56 10,4 C 95 % 995,0 hPa 0,0 l/m 16,5 km/h (3 Bft) SW 234 0 min 0,000 mm 0,0 UV-I 0 W/m 9,6 C 5,0 C 20,9 km/h (4 Bft) 100,00 %
13.05.2016 00:57 10,3 C 95 % 995,1 hPa 0,0 l/m 15,9 km/h (3 Bft) SW 223 0 min 0,000 mm 0,0 UV-I 0 W/m 9,5 C 5,1 C 22,5 km/h (4 Bft) 92,59 %
13.05.2016 00:58 10,3 C 95 % 995,1 hPa 0,2 l/m 14,1 km/h (3 Bft) S-SW 210 0 min 0,000 mm 0,0 UV-I 0 W/m 9,5 C 5,9 C 17,7 km/h (3 Bft) 96,15 %
13.05.2016 00:59 10,3 C 95 % 995,1 hPa 0,0 l/m 17,1 km/h (3 Bft) S-SW 207 0 min 0,000 mm 0,0 UV-I 0 W/m 9,5 C 4,7 C 27,4 km/h (4 Bft) 100,00 %
13.05.2016 01:00 10,3 C 95 % 995,0 hPa 0,0 l/m 21,2 km/h (4 Bft) SW 228 0 min 0,000 mm 0,0 UV-I 0 W/m 9,5 C 3,3 C 29,0 km/h (5 Bft) 96,15 %
13.05.2016 01:02 10,3 C 95 % 995,0 hPa 0,0 l/m 19,1 km/h (3 Bft) W-SW 238 0 min 0,000 mm 0,0 UV-I 0 W/m 9,5 C 4,0 C 29,0 km/h (5 Bft) 96,00 %
13.05.2016 01:03 10,3 C 95 % 995,0 hPa 0,0 l/m 15,4 km/h (3 Bft) SW 221 0 min 0,000 mm 0,0 UV-I 0 W/m 9,5 C 5,3 C 22,5 km/h (4 Bft) 100,00 %
13.05.2016 01:04 10,3 C 95 % 995,0 hPa 0,0 l/m 16,3 km/h (3 Bft) S-SW 209 0 min 0,000 mm 0,0 UV-I 0 W/m 9,5 C 5,0 C 22,5 km/h (4 Bft) 92,86 %
13.05.2016 01:05 10,3 C 95 % 995,0 hPa 0,0 l/m 19,6 km/h (3 Bft) S 188 0 min 0,000 mm 0,0 UV-I 0 W/m 9,5 C 3,8 C 27,4 km/h (4 Bft) 100,00 %
13.05.2016 01:06 10,3 C 95 % 995,0 hPa 0,2 l/m 18,9 km/h (3 Bft) W-SW 245 0 min 0,000 mm 0,0 UV-I 0 W/m 9,5 C 4,0 C 30,6 km/h (5 Bft) 96,55 %
13.05.2016 01:07 10,3 C 95 % 995,0 hPa 0,0 l/m 16,5 km/h (3 Bft) SW 232 0 min 0,000 mm 0,0 UV-I 0 W/m 9,5 C 4,9 C 20,9 km/h (4 Bft) 95,83 %
13.05.2016 01:08 10,3 C 94 % 995,0 hPa 0,0 l/m 13,3 km/h (3 Bft) S-SW 213 0 min 0,000 mm 0,0 UV-I 0 W/m 9,4 C 6,2 C 22,5 km/h (4 Bft) 100,00 %
13.05.2016 01:09 10,2 C 95 % 995,0 hPa 0,0 l/m 14,9 km/h (3 Bft) S-SW 197 0 min 0,000 mm 0,0 UV-I 0 W/m 9,4 C 5,4 C 24,1 km/h (4 Bft) 93,33 %
13.05.2016 01:10 10,2 C 95 % 995,0 hPa 0,0 l/m 18,1 km/h (3 Bft) S-SW 212 0 min 0,000 mm 0,0 UV-I 0 W/m 9,4 C 4,2 C 24,1 km/h (4 Bft) 100,00 %
13.05.2016 01:11 10,2 C 95 % 995,0 hPa 0,2 l/m 19,0 km/h (3 Bft) SW 227 0 min 0,000 mm 0,0 UV-I 0 W/m 9,4 C 3,9 C 27,4 km/h (4 Bft) 93,33 %
13.05.2016 01:12 10,2 C 95 % 995,0 hPa 0,0 l/m 17,6 km/h (3 Bft) W-SW 242 0 min 0,000 mm 0,0 UV-I 0 W/m 9,4 C 4,4 C 22,5 km/h (4 Bft) 100,00 %
13.05.2016 01:13 10,2 C 95 % 995,0 hPa 0,0 l/m 14,0 km/h (3 Bft) SW 229 0 min 0,000 mm 0,0 UV-I 0 W/m 9,4 C 5,8 C 20,9 km/h (4 Bft) 100,00 %
13.05.2016 01:14 10,2 C 95 % 995,1 hPa 0,0 l/m 12,3 km/h (3 Bft) SW 225 0 min 0,000 mm 0,0 UV-I 0 W/m 9,4 C 6,6 C 17,7 km/h (3 Bft) 100,00 %
13.05.2016 01:15 10,2 C 95 % 995,0 hPa 0,0 l/m 15,8 km/h (3 Bft) W-SW 238 0 min 0,000 mm 0,0 UV-I 0 W/m 9,4 C 5,1 C 24,1 km/h (4 Bft) 100,00 %
13.05.2016 01:16 10,2 C 95 % 995,1 hPa 0,0 l/m 18,8 km/h (3 Bft) S-SW 211 0 min 0,000 mm 0,0 UV-I 0 W/m 9,4 C 3,9 C 25,7 km/h (4 Bft) 100,00 %
13.05.2016 01:17 10,2 C 95 % 995,1 hPa 0,0 l/m 21,3 km/h (4 Bft) S-SW 198 0 min 0,000 mm 0,0 UV-I 0 W/m 9,4 C 3,1 C 30,6 km/h (5 Bft) 97,37 %
13.05.2016 01:18 10,2 C 95 % 995,1 hPa 0,2 l/m 12,8 km/h (3 Bft) W-SW 242 0 min 0,000 mm 0,0 UV-I 0 W/m 9,4 C 6,4 C 16,1 km/h (3 Bft) 100,00 %
13.05.2016 01:19 10,2 C 95 % 995,1 hPa 0,0 l/m 17,1 km/h (3 Bft) W-SW 250 0 min 0,000 mm 0,0 UV-I 0 W/m 9,4 C 4,5 C 24,1 km/h (4 Bft) 91,30 %
13.05.2016 01:20 10,2 C 95 % 995,1 hPa 0,0 l/m 17,3 km/h (3 Bft) S 182 0 min 0,000 mm 0,0 UV-I 0 W/m 9,4 C 4,5 C 24,1 km/h (4 Bft) 100,00 %
13.05.2016 01:21 10,2 C 95 % 995,1 hPa 0,0 l/m 14,1 km/h (3 Bft) W-SW 237 0 min 0,000 mm 0,0 UV-I 0 W/m 9,4 C 5,8 C 20,9 km/h (4 Bft) 100,00 %
13.05.2016 01:22 10,2 C 95 % 995,1 hPa 0,0 l/m 14,1 km/h (3 Bft) W-SW 243 0 min 0,000 mm 0,0 UV-I 0 W/m 9,4 C 5,8 C 19,3 km/h (3 Bft) 100,00 %
13.05.2016 01:23 10,2 C 95 % 995,1 hPa 0,0 l/m 12,1 km/h (2 Bft) W-SW 237 0 min 0,000 mm 0,0 UV-I 0 W/m 9,4 C 6,7 C 19,3 km/h (3 Bft) 100,00 %
13.05.2016 01:24 10,2 C 95 % 995,1 hPa 0,0 l/m 13,6 km/h (3 Bft) W-SW 240 0 min 0,000 mm 0,0 UV-I 0 W/m 9,4 C 6,0 C 24,1 km/h (4 Bft) 100,00 %
13.05.2016 01:25 10,2 C 95 % 995,1 hPa 0,0 l/m 12,9 km/h (3 Bft) S-SW 208 0 min 0,000 mm 0,0 UV-I 0 W/m 9,4 C 6,3 C 20,9 km/h (4 Bft) 100,00 %
13.05.2016 01:26 10,2 C 95 % 995,1 hPa 0,0 l/m 14,4 km/h (3 Bft) SW 220 0 min 0,000 mm 0,0 UV-I 0 W/m 9,4 C 5,6 C 24,1 km/h (4 Bft) 100,00 %
13.05.2016 01:27 10,2 C 95 % 995,1 hPa 0,2 l/m 12,4 km/h (3 Bft) W-SW 254 0 min 0,000 mm 0,0 UV-I 0 W/m 9,4 C 6,5 C 17,7 km/h (3 Bft) 100,00 %
13.05.2016 01:28 10,2 C 95 % 995,1 hPa 0,0 l/m 12,4 km/h (3 Bft) S-SW 209 0 min 0,000 mm 0,0 UV-I 0 W/m 9,4 C 6,5 C 19,3 km/h (3 Bft) 100,00 %
13.05.2016 01:29 10,2 C 95 % 995,1 hPa 0,0 l/m 11,9 km/h (2 Bft) W-SW 252 0 min 0,000 mm 0,0 UV-I 0 W/m 9,4 C 6,8 C 16,1 km/h (3 Bft) 100,00 %
13.05.2016 01:30 10,2 C 95 % 995,1 hPa 0,0 l/m 14,4 km/h (3 Bft) S-SW 207 0 min 0,000 mm 0,0 UV-I 0 W/m 9,4 C 5,6 C 20,9 km/h (4 Bft) 100,00 %
13.05.2016 01:31 10,1 C 95 % 995,1 hPa 0,0 l/m 9,9 km/h (2 Bft) S-SW 207 0 min 0,000 mm 0,0 UV-I 0 W/m 9,3 C 7,8 C 14,5 km/h (3 Bft) 100,00 %
13.05.2016 01:32 10,1 C 95 % 995,1 hPa 0,0 l/m 11,0 km/h (2 Bft) S-SW 196 0 min 0,000 mm 0,0 UV-I 0 W/m 9,3 C 7,1 C 16,1 km/h (3 Bft) 100,00 %
13.05.2016 01:33 10,1 C 95 % 995,1 hPa 0,0 l/m 12,6 km/h (3 Bft) SW 225 0 min 0,000 mm 0,0 UV-I 0 W/m 9,3 C 6,3 C 20,9 km/h (4 Bft) 95,83 %
13.05.2016 01:34 10,1 C 95 % 995,1 hPa 0,0 l/m 6,9 km/h (2 Bft) W-SW 238 0 min 0,000 mm 0,0 UV-I 0 W/m 9,3 C 9,7 C 14,5 km/h (3 Bft) 100,00 %
13.05.2016 01:35 10,1 C 95 % 995,1 hPa 0,0 l/m 13,5 km/h (3 Bft) SW 231 0 min 0,000 mm 0,0 UV-I 0 W/m 9,3 C 5,9 C 19,3 km/h (3 Bft) 100,00 %
13.05.2016 01:36 10,1 C 95 % 995,0 hPa 0,0 l/m 12,5 km/h (3 Bft) S 169 0 min 0,000 mm 0,0 UV-I 0 W/m 9,3 C 6,4 C 19,3 km/h (3 Bft) 93,10 %
13.05.2016 01:37 10,1 C 95 % 995,0 hPa 0,0 l/m 13,0 km/h (3 Bft) S 178 0 min 0,000 mm 0,0 UV-I 0 W/m 9,3 C 6,1 C 19,3 km/h (3 Bft) 100,00 %
13.05.2016 01:38 10,1 C 95 % 995,0 hPa 0,0 l/m 12,1 km/h (2 Bft) SW 232 0 min 0,000 mm 0,0 UV-I 0 W/m 9,3 C 6,6 C 17,7 km/h (3 Bft) 100,00 %
13.05.2016 01:39 10,1 C 95 % 995,0 hPa 0,2 l/m 16,9 km/h (3 Bft) S-SW 211 0 min 0,000 mm 0,0 UV-I 0 W/m 9,3 C 4,5 C 25,7 km/h (4 Bft) 100,00 %
13.05.2016 01:40 10,1 C 94 % 995,0 hPa 0,0 l/m 17,0 km/h (3 Bft) SW 217 0 min 0,000 mm 0,0 UV-I 0 W/m 9,2 C 4,5 C 22,5 km/h (4 Bft) 100,00 %
13.05.2016 01:41 10,1 C 94 % 995,0 hPa 0,0 l/m 15,8 km/h (3 Bft) SW 216 0 min 0,000 mm 0,0 UV-I 0 W/m 9,2 C 4,9 C 20,9 km/h (4 Bft) 100,00 %
13.05.2016 01:42 10,1 C 94 % 995,0 hPa 0,0 l/m 12,2 km/h (2 Bft) S 184 0 min 0,000 mm 0,0 UV-I 0 W/m 9,2 C 6,5 C 16,1 km/h (3 Bft) 100,00 %
13.05.2016 01:43 10,1 C 94 % 994,9 hPa 0,0 l/m 9,0 km/h (2 Bft) S-SW 199 0 min 0,000 mm 0,0 UV-I 0 W/m 9,2 C 8,3 C 12,9 km/h (3 Bft) 100,00 %
13.05.2016 01:44 10,1 C 94 % 994,9 hPa 0,0 l/m 10,9 km/h (2 Bft) SW 216 0 min 0,000 mm 0,0 UV-I 0 W/m 9,2 C 7,2 C 22,5 km/h (4 Bft) 100,00 %
13.05.2016 01:45 10,1 C 95 % 994,9 hPa 0,2 l/m 11,7 km/h (2 Bft) S 179 0 min 0,000 mm 0,0 UV-I 0 W/m 9,3 C 6,8 C 20,9 km/h (4 Bft) 100,00 %
13.05.2016 01:46 10,1 C 95 % 995,0 hPa 0,0 l/m 12,5 km/h (3 Bft) SW 229 0 min 0,000 mm 0,0 UV-I 0 W/m 9,3 C 6,4 C 20,9 km/h (4 Bft) 100,00 %
13.05.2016 01:47 10,1 C 95 % 994,9 hPa 0,0 l/m 18,7 km/h (3 Bft) SW 225 0 min 0,000 mm 0,0 UV-I 0 W/m 9,3 C 3,9 C 27,4 km/h (4 Bft) 100,00 %
13.05.2016 01:48 10,1 C 95 % 994,9 hPa 0,0 l/m 13,3 km/h (3 Bft) SW 229 0 min 0,000 mm 0,0 UV-I 0 W/m 9,3 C 6,0 C 22,5 km/h (4 Bft) 100,00 %
13.05.2016 01:49 10,1 C 95 % 994,9 hPa 0,0 l/m 17,4 km/h (3 Bft) SW 227 0 min 0,000 mm 0,0 UV-I 0 W/m 9,3 C 4,3 C 22,5 km/h (4 Bft) 100,00 %
13.05.2016 01:50 10,1 C 95 % 994,9 hPa 0,0 l/m 14,1 km/h (3 Bft) SW 236 0 min 0,000 mm 0,0 UV-I 0 W/m 9,3 C 5,6 C 20,9 km/h (4 Bft) 100,00 %
13.05.2016 01:51 10,1 C 95 % 994,9 hPa 0,2 l/m 19,4 km/h (3 Bft) SW 226 0 min 0,000 mm 0,0 UV-I 0 W/m 9,3 C 3,6 C 24,1 km/h (4 Bft) 100,00 %
13.05.2016 01:52 10,1 C 95 % 994,9 hPa 0,0 l/m 14,4 km/h (3 Bft) W-SW 243 0 min 0,000 mm 0,0 UV-I 0 W/m 9,3 C 5,5 C 20,9 km/h (4 Bft) 100,00 %
13.05.2016 01:53 10,1 C 95 % 994,9 hPa 0,0 l/m 14,6 km/h (3 Bft) SW 229 0 min 0,000 mm 0,0 UV-I 0 W/m 9,3 C 5,4 C 20,9 km/h (4 Bft) 100,00 %
13.05.2016 01:54 10,1 C 95 % 994,9 hPa 0,0 l/m 15,2 km/h (3 Bft) W-SW 239 0 min 0,000 mm 0,0 UV-I 0 W/m 9,3 C 5,2 C 22,5 km/h (4 Bft) 98,49 %
13.05.2016 01:55 10,1 C 95 % 994,9 hPa 0,2 l/m 15,5 km/h (3 Bft) SW 219 0 min 0,000 mm 0,0 UV-I 0 W/m 9,3 C 5,0 C 22,5 km/h (4 Bft) 100,00 %
13.05.2016 01:56 10,1 C 95 % 994,8 hPa 0,0 l/m 12,9 km/h (3 Bft) S-SW 196 0 min 0,000 mm 0,0 UV-I 0 W/m 9,3 C 6,2 C 20,9 km/h (4 Bft) 100,00 %
13.05.2016 01:57 10,1 C 95 % 994,8 hPa 0,0 l/m 13,0 km/h (3 Bft) SW 217 0 min 0,000 mm 0,0 UV-I 0 W/m 9,3 C 6,1 C 22,5 km/h (4 Bft) 100,00 %
13.05.2016 01:58 10,0 C 95 % 994,9 hPa 0,0 l/m 18,4 km/h (3 Bft) W-SW 238 0 min 0,000 mm 0,0 UV-I 0 W/m 9,2 C 3,8 C 24,1 km/h (4 Bft) 100,00 %
13.05.2016 01:59 10,0 C 95 % 994,9 hPa 0,0 l/m 12,9 km/h (3 Bft) SW 234 0 min 0,000 mm 0,0 UV-I 0 W/m 9,2 C 6,1 C 17,7 km/h (3 Bft) 100,00 %
13.05.2016 02:00 10,0 C 95 % 994,9 hPa 0,0 l/m 13,3 km/h (3 Bft) SW 227 0 min 0,000 mm 0,0 UV-I 0 W/m 9,2 C 5,9 C 16,1 km/h (3 Bft) 100,00 %
13.05.2016 02:02 10,1 C 95 % 994,9 hPa 0,2 l/m 16,1 km/h (3 Bft) W-SW 239 0 min 0,000 mm 0,0 UV-I 0 W/m 9,3 C 4,8 C 24,1 km/h (4 Bft) 96,23 %
13.05.2016 02:03 10,0 C 95 % 994,9 hPa 0,0 l/m 19,9 km/h (4 Bft) SW 236 0 min 0,000 mm 0,0 UV-I 0 W/m 9,2 C 3,3 C 25,7 km/h (4 Bft) 100,00 %
13.05.2016 02:04 10,0 C 95 % 994,9 hPa 0,2 l/m 12,6 km/h (3 Bft) SW 229 0 min 0,000 mm 0,0 UV-I 0 W/m 9,2 C 6,2 C 24,1 km/h (4 Bft) 100,00 %
13.05.2016 02:05 10,0 C 95 % 994,9 hPa 0,0 l/m 17,4 km/h (3 Bft) SW 236 0 min 0,000 mm 0,0 UV-I 0 W/m 9,2 C 4,2 C 22,5 km/h (4 Bft) 92,86 %
13.05.2016 02:06 10,0 C 95 % 994,9 hPa 0,0 l/m 12,4 km/h (3 Bft) W-SW 257 0 min 0,000 mm 0,0 UV-I 0 W/m 9,2 C 6,3 C 17,7 km/h (3 Bft) 100,00 %
13.05.2016 02:07 10,0 C 95 % 994,9 hPa 0,0 l/m 10,8 km/h (2 Bft) SW 233 0 min 0,000 mm 0,0 UV-I 0 W/m 9,2 C 7,1 C 17,7 km/h (3 Bft) 100,00 %
13.05.2016 02:08 10,0 C 95 % 994,8 hPa 0,0 l/m 14,1 km/h (3 Bft) SW 232 0 min 0,000 mm 0,0 UV-I 0 W/m 9,2 C 5,5 C 20,9 km/h (4 Bft) 96,55 %
13.05.2016 02:09 10,0 C 95 % 994,9 hPa 0,0 l/m 16,2 km/h (3 Bft) SW 220 0 min 0,000 mm 0,0 UV-I 0 W/m 9,2 C 4,6 C 22,5 km/h (4 Bft) 100,00 %
13.05.2016 02:10 9,9 C 95 % 994,9 hPa 0,0 l/m 14,5 km/h (3 Bft) SW 224 0 min 0,000 mm 0,0 UV-I 0 W/m 9,1 C 5,2 C 20,9 km/h (4 Bft) 100,00 %
13.05.2016 02:11 9,9 C 95 % 994,9 hPa 0,2 l/m 12,4 km/h (3 Bft) S-SW 212 0 min 0,000 mm 0,0 UV-I 0 W/m 9,1 C 6,2 C 16,1 km/h (3 Bft) 100,00 %
13.05.2016 02:12 9,9 C 95 % 994,9 hPa 0,0 l/m 12,1 km/h (2 Bft) SW 232 0 min 0,000 mm 0,0 UV-I 0 W/m 9,1 C 6,3 C 17,7 km/h (3 Bft) 96,15 %
13.05.2016 02:13 9,9 C 95 % 994,8 hPa 0,0 l/m 12,9 km/h (3 Bft) SW 215 0 min 0,000 mm 0,0 UV-I 0 W/m 9,1 C 6,0 C 17,7 km/h (3 Bft) 100,00 %
13.05.2016 02:14 9,9 C 95 % 994,9 hPa 0,0 l/m 13,1 km/h (3 Bft) W-SW 247 0 min 0,000 mm 0,0 UV-I 0 W/m 9,1 C 5,9 C 16,1 km/h (3 Bft) 98,55 %
13.05.2016 02:15 9,9 C 95 % 994,9 hPa 0,0 l/m 11,0 km/h (2 Bft) SW 223 0 min 0,000 mm 0,0 UV-I 0 W/m 9,1 C 6,9 C 17,7 km/h (3 Bft) 100,00 %
13.05.2016 02:16 9,9 C 95 % 994,8 hPa 0,2 l/m 14,6 km/h (3 Bft) SW 234 0 min 0,000 mm 0,0 UV-I 0 W/m 9,1 C 5,2 C 19,3 km/h (3 Bft) 100,00 %
13.05.2016 02:17 9,9 C 95 % 994,8 hPa 0,0 l/m 13,0 km/h (3 Bft) SW 227 0 min 0,000 mm 0,0 UV-I 0 W/m 9,1 C 5,9 C 17,7 km/h (3 Bft) 100,00 %
13.05.2016 02:18 9,9 C 95 % 994,8 hPa 0,0 l/m 14,7 km/h (3 Bft) W-SW 248 0 min 0,000 mm 0,0 UV-I 0 W/m 9,1 C 5,1 C 17,7 km/h (3 Bft) 100,00 %
13.05.2016 02:19 9,9 C 95 % 994,9 hPa 0,0 l/m 12,1 km/h (2 Bft) SW 219 0 min 0,000 mm 0,0 UV-I 0 W/m 9,1 C 6,3 C 16,1 km/h (3 Bft) 96,30 %
13.05.2016 02:20 9,9 C 95 % 994,8 hPa 0,0 l/m 15,1 km/h (3 Bft) S-SW 206 0 min 0,000 mm 0,0 UV-I 0 W/m 9,1 C 5,0 C 20,9 km/h (4 Bft) 100,00 %
13.05.2016 02:21 9,9 C 95 % 994,8 hPa 0,2 l/m 10,2 km/h (2 Bft) S-SW 197 0 min 0,000 mm 0,0 UV-I 0 W/m 9,1 C 7,4 C 16,1 km/h (3 Bft) 100,00 %
13.05.2016 02:22 9,9 C 95 % 994,9 hPa 0,0 l/m 10,4 km/h (2 Bft) SW 235 0 min 0,000 mm 0,0 UV-I 0 W/m 9,1 C 7,3 C 12,9 km/h (3 Bft) 96,55 %
13.05.2016 02:23 9,9 C 95 % 994,8 hPa 0,0 l/m 12,6 km/h (3 Bft) SW 221 0 min 0,000 mm 0,0 UV-I 0 W/m 9,1 C 6,1 C 17,7 km/h (3 Bft) 100,00 %
13.05.2016 02:24 9,9 C 95 % 994,8 hPa 0,0 l/m 13,8 km/h (3 Bft) S-SO 157 0 min 0,000 mm 0,0 UV-I 0 W/m 9,1 C 5,5 C 20,9 km/h (4 Bft) 100,00 %
13.05.2016 02:25 9,9 C 95 % 994,8 hPa 0,2 l/m 12,5 km/h (3 Bft) SW 234 0 min 0,000 mm 0,0 UV-I 0 W/m 9,1 C 6,1 C 19,3 km/h (3 Bft) 100,00 %
13.05.2016 02:26 9,9 C 95 % 994,8 hPa 0,0 l/m 15,2 km/h (3 Bft) W-SW 238 0 min 0,000 mm 0,0 UV-I 0 W/m 9,1 C 4,9 C 20,9 km/h (4 Bft) 100,00 %
13.05.2016 02:27 9,9 C 95 % 994,8 hPa 0,0 l/m 16,0 km/h (3 Bft) SW 233 0 min 0,000 mm 0,0 UV-I 0 W/m 9,1 C 4,6 C 20,9 km/h (4 Bft) 95,83 %
13.05.2016 02:28 9,9 C 95 % 994,8 hPa 0,0 l/m 17,6 km/h (3 Bft) SW 236 0 min 0,000 mm 0,0 UV-I 0 W/m 9,1 C 4,0 C 24,1 km/h (4 Bft) 100,00 %
13.05.2016 02:29 9,9 C 95 % 994,8 hPa 0,0 l/m 14,3 km/h (3 Bft) SW 235 0 min 0,000 mm 0,0 UV-I 0 W/m 9,1 C 5,3 C 19,3 km/h (3 Bft) 100,00 %
13.05.2016 02:30 9,9 C 95 % 994,8 hPa 0,0 l/m 9,6 km/h (2 Bft) W-SW 245 0 min 0,000 mm 0,0 UV-I 0 W/m 9,1 C 7,7 C 14,5 km/h (3 Bft) 100,00 %
13.05.2016 02:31 9,9 C 95 % 994,8 hPa 0,2 l/m 13,0 km/h (3 Bft) W-SW 242 0 min 0,000 mm 0,0 UV-I 0 W/m 9,1 C 5,9 C 17,7 km/h (3 Bft) 100,00 %
13.05.2016 02:32 9,9 C 95 % 994,8 hPa 0,0 l/m 15,9 km/h (3 Bft) W-SW 239 0 min 0,000 mm 0,0 UV-I 0 W/m 9,1 C 4,6 C 19,3 km/h (3 Bft) 98,64 %
13.05.2016 02:33 9,9 C 95 % 994,8 hPa 0,0 l/m 9,2 km/h (2 Bft) W-SW 242 0 min 0,000 mm 0,0 UV-I 0 W/m 9,1 C 8,0 C 14,5 km/h (3 Bft) 100,00 %
13.05.2016 02:34 9,9 C 95 % 994,8 hPa 0,0 l/m 10,1 km/h (2 Bft) SW 226 0 min 0,000 mm 0,0 UV-I 0 W/m 9,1 C 7,4 C 12,9 km/h (3 Bft) 100,00 %
13.05.2016 02:35 9,9 C 95 % 994,8 hPa 0,0 l/m 11,7 km/h (2 Bft) W-SW 250 0 min 0,000 mm 0,0 UV-I 0 W/m 9,1 C 6,6 C 16,1 km/h (3 Bft) 100,00 %
13.05.2016 02:36 9,9 C 95 % 994,9 hPa 0,2 l/m 10,3 km/h (2 Bft) W-SW 247 0 min 0,000 mm 0,0 UV-I 0 W/m 9,1 C 7,3 C 17,7 km/h (3 Bft) 100,00 %
13.05.2016 02:37 9,9 C 95 % 994,8 hPa 0,0 l/m 7,1 km/h (2 Bft) W-SW 243 0 min 0,000 mm 0,0 UV-I 0 W/m 9,1 C 9,4 C 9,7 km/h (2 Bft) 100,00 %
13.05.2016 02:38 9,9 C 95 % 994,8 hPa 0,0 l/m 13,8 km/h (3 Bft) SW 221 0 min 0,000 mm 0,0 UV-I 0 W/m 9,1 C 5,5 C 19,3 km/h (3 Bft) 100,00 %
13.05.2016 02:39 9,9 C 95 % 994,8 hPa 0,0 l/m 13,0 km/h (3 Bft) W-SW 242 0 min 0,000 mm 0,0 UV-I 0 W/m 9,1 C 5,9 C 19,3 km/h (3 Bft) 100,00 %
13.05.2016 02:40 9,9 C 95 % 994,8 hPa 0,0 l/m 12,9 km/h (3 Bft) SW 234 0 min 0,000 mm 0,0 UV-I 0 W/m 9,1 C 6,0 C 17,7 km/h (3 Bft) 100,00 %
13.05.2016 02:41 9,9 C 95 % 994,8 hPa 0,2 l/m 11,4 km/h (2 Bft) SW 230 0 min 0,000 mm 0,0 UV-I 0 W/m 9,1 C 6,7 C 17,7 km/h (3 Bft) 92,86 %
13.05.2016 02:42 9,9 C 95 % 994,8 hPa 0,0 l/m 14,9 km/h (3 Bft) W-SW 253 0 min 0,000 mm 0,0 UV-I 0 W/m 9,1 C 5,1 C 17,7 km/h (3 Bft) 96,30 %
13.05.2016 02:43 9,9 C 95 % 994,8 hPa 0,0 l/m 10,0 km/h (2 Bft) SW 230 0 min 0,000 mm 0,0 UV-I 0 W/m 9,1 C 7,5 C 14,5 km/h (3 Bft) 95,65 %
13.05.2016 02:44 9,9 C 95 % 994,8 hPa 0,2 l/m 15,2 km/h (3 Bft) W-SW 242 0 min 0,000 mm 0,0 UV-I 0 W/m 9,1 C 4,9 C 19,3 km/h (3 Bft) 96,67 %
13.05.2016 02:45 9,9 C 95 % 994,8 hPa 0,0 l/m 10,2 km/h (2 Bft) SW 220 0 min 0,000 mm 0,0 UV-I 0 W/m 9,1 C 7,4 C 17,7 km/h (3 Bft) 100,00 %
13.05.2016 02:46 9,9 C 95 % 994,8 hPa 0,0 l/m 11,3 km/h (2 Bft) SW 232 0 min 0,000 mm 0,0 UV-I 0 W/m 9,1 C 6,8 C 16,1 km/h (3 Bft) 96,55 %
13.05.2016 02:47 9,9 C 95 % 994,8 hPa 0,0 l/m 16,4 km/h (3 Bft) W-SW 250 0 min 0,000 mm 0,0 UV-I 0 W/m 9,1 C 4,4 C 20,9 km/h (4 Bft) 100,00 %
13.05.2016 02:48 9,9 C 95 % 994,8 hPa 0,0 l/m 15,9 km/h (3 Bft) S 174 0 min 0,000 mm 0,0 UV-I 0 W/m 9,1 C 4,6 C 22,5 km/h (4 Bft) 93,33 %
13.05.2016 02:49 9,8 C 95 % 994,8 hPa 0,2 l/m 16,2 km/h (3 Bft) SW 236 0 min 0,000 mm 0,0 UV-I 0 W/m 9,0 C 4,4 C 22,5 km/h (4 Bft) 100,00 %
13.05.2016 02:50 9,8 C 95 % 994,7 hPa 0,0 l/m 15,6 km/h (3 Bft) W-SW 255 0 min 0,000 mm 0,0 UV-I 0 W/m 9,0 C 4,6 C 20,9 km/h (4 Bft) 96,15 %
13.05.2016 02:51 9,8 C 95 % 994,7 hPa 0,0 l/m 12,9 km/h (3 Bft) W-SW 237 0 min 0,000 mm 0,0 UV-I 0 W/m 9,0 C 5,8 C 19,3 km/h (3 Bft) 96,55 %
13.05.2016 02:52 9,8 C 95 % 994,6 hPa 0,0 l/m 12,3 km/h (3 Bft) W-SW 248 0 min 0,000 mm 0,0 UV-I 0 W/m 9,0 C 6,1 C 17,7 km/h (3 Bft) 100,00 %
13.05.2016 02:53 9,8 C 95 % 994,6 hPa 0,0 l/m 13,5 km/h (3 Bft) W-SW 240 0 min 0,000 mm 0,0 UV-I 0 W/m 9,0 C 5,6 C 17,7 km/h (3 Bft) 96,30 %
13.05.2016 02:54 9,8 C 95 % 994,6 hPa 0,2 l/m 13,7 km/h (3 Bft) SW 227 0 min 0,000 mm 0,0 UV-I 0 W/m 9,0 C 5,5 C 17,7 km/h (3 Bft) 96,55 %
13.05.2016 02:55 9,8 C 95 % 994,6 hPa 0,0 l/m 14,3 km/h (3 Bft) SW 233 0 min 0,000 mm 0,0 UV-I 0 W/m 9,0 C 5,2 C 19,3 km/h (3 Bft) 96,30 %
13.05.2016 02:56 9,8 C 95 % 994,6 hPa 0,0 l/m 10,9 km/h (2 Bft) W-SW 239 0 min 0,000 mm 0,0 UV-I 0 W/m 9,0 C 6,9 C 17,7 km/h (3 Bft) 100,00 %
13.05.2016 02:57 9,9 C 95 % 994,6 hPa 0,0 l/m 10,8 km/h (2 Bft) W-SW 238 0 min 0,000 mm 0,0 UV-I 0 W/m 9,1 C 7,0 C 16,1 km/h (3 Bft) 96,67 %
13.05.2016 02:58 9,9 C 95 % 994,6 hPa 0,0 l/m 12,8 km/h (3 Bft) W 271 0 min 0,000 mm 0,0 UV-I 0 W/m 9,1 C 6,0 C 16,1 km/h (3 Bft) 100,00 %
13.05.2016 02:59 9,8 C 95 % 994,6 hPa 0,0 l/m 11,5 km/h (2 Bft) W-SW 238 0 min 0,000 mm 0,0 UV-I 0 W/m 9,0 C 6,5 C 16,1 km/h (3 Bft) 95,83 %
13.05.2016 03:00 9,8 C 95 % 994,6 hPa 0,0 l/m 14,1 km/h (3 Bft) SW 217 0 min 0,000 mm 0,0 UV-I 0 W/m 9,0 C 5,3 C 22,5 km/h (4 Bft) 95,65 %
13.05.2016 03:01 9,8 C 95 % 994,6 hPa 0,0 l/m 12,5 km/h (3 Bft) S-SW 211 0 min 0,000 mm 0,0 UV-I 0 W/m 9,0 C 6,0 C 17,7 km/h (3 Bft) 95,83 %
13.05.2016 03:02 9,8 C 95 % 994,6 hPa 0,2 l/m 11,2 km/h (2 Bft) W-SW 247 0 min 0,000 mm 0,0 UV-I 0 W/m 9,0 C 6,7 C 14,5 km/h (3 Bft) 95,65 %
13.05.2016 03:03 9,8 C 95 % 994,6 hPa 0,0 l/m 11,3 km/h (2 Bft) W-SW 247 0 min 0,000 mm 0,0 UV-I 0 W/m 9,0 C 6,6 C 16,1 km/h (3 Bft) 100,00 %
13.05.2016 03:04 9,8 C 95 % 994,6 hPa 0,0 l/m 11,3 km/h (2 Bft) W-SW 242 0 min 0,000 mm 0,0 UV-I 0 W/m 9,0 C 6,6 C 16,1 km/h (3 Bft) 92,86 %
13.05.2016 03:05 9,8 C 95 % 994,6 hPa 0,0 l/m 8,0 km/h (2 Bft) W-SW 237 0 min 0,000 mm 0,0 UV-I 0 W/m 9,0 C 8,6 C 11,3 km/h (2 Bft) 100,00 %
13.05.2016 03:06 9,8 C 95 % 994,6 hPa 0,2 l/m 11,6 km/h (2 Bft) SW 225 0 min 0,000 mm 0,0 UV-I 0 W/m 9,0 C 6,5 C 19,3 km/h (3 Bft) 96,55 %
13.05.2016 03:07 9,8 C 95 % 994,6 hPa 0,0 l/m 13,8 km/h (3 Bft) W-SW 250 0 min 0,000 mm 0,0 UV-I 0 W/m 9,0 C 5,4 C 17,7 km/h (3 Bft) 100,00 %
13.05.2016 03:08 9,8 C 95 % 994,6 hPa 0,0 l/m 12,9 km/h (3 Bft) SW 225 0 min 0,000 mm 0,0 UV-I 0 W/m 9,0 C 5,8 C 16,1 km/h (3 Bft) 96,30 %
13.05.2016 03:09 9,8 C 95 % 994,6 hPa 0,0 l/m 10,0 km/h (2 Bft) SW 227 0 min 0,000 mm 0,0 UV-I 0 W/m 9,0 C 7,4 C 12,9 km/h (3 Bft) 96,55 %
13.05.2016 03:10 9,8 C 95 % 994,6 hPa 0,0 l/m 9,4 km/h (2 Bft) S-SW 196 0 min 0,000 mm 0,0 UV-I 0 W/m 9,0 C 7,7 C 14,5 km/h (3 Bft) 100,00 %
13.05.2016 03:11 9,8 C 95 % 994,6 hPa 0,0 l/m 10,9 km/h (2 Bft) SW 223 0 min 0,000 mm 0,0 UV-I 0 W/m 9,0 C 6,9 C 17,7 km/h (3 Bft) 96,55 %
13.05.2016 03:12 9,8 C 95 % 994,6 hPa 0,0 l/m 14,6 km/h (3 Bft) W-SW 250 0 min 0,000 mm 0,0 UV-I 0 W/m 9,0 C 5,1 C 19,3 km/h (3 Bft) 95,83 %
13.05.2016 03:13 9,8 C 95 % 994,6 hPa 0,2 l/m 11,1 km/h (2 Bft) W-SW 245 0 min 0,000 mm 0,0 UV-I 0 W/m 9,0 C 6,8 C 16,1 km/h (3 Bft) 96,15 %
13.05.2016 03:14 9,8 C 95 % 994,6 hPa 0,0 l/m 9,7 km/h (2 Bft) SW 223 0 min 0,000 mm 0,0 UV-I 0 W/m 9,0 C 7,6 C 14,5 km/h (3 Bft) 100,00 %
13.05.2016 03:15 9,8 C 95 % 994,5 hPa 0,0 l/m 12,5 km/h (3 Bft) SW 236 0 min 0,000 mm 0,0 UV-I 0 W/m 9,0 C 6,0 C 17,7 km/h (3 Bft) 100,00 %
13.05.2016 03:16 9,8 C 95 % 994,6 hPa 0,0 l/m 13,2 km/h (3 Bft) SW 229 0 min 0,000 mm 0,0 UV-I 0 W/m 9,0 C 5,7 C 17,7 km/h (3 Bft) 100,00 %
13.05.2016 03:17 9,8 C 95 % 994,6 hPa 0,0 l/m 14,4 km/h (3 Bft) S-SW 211 0 min 0,000 mm 0,0 UV-I 0 W/m 9,0 C 5,2 C 20,9 km/h (4 Bft) 100,00 %
13.05.2016 03:18 9,8 C 95 % 994,6 hPa 0,2 l/m 12,3 km/h (3 Bft) W-SW 251 0 min 0,000 mm 0,0 UV-I 0 W/m 9,0 C 6,1 C 17,7 km/h (3 Bft) 100,00 %
13.05.2016 03:19 9,8 C 95 % 994,6 hPa 0,0 l/m 9,3 km/h (2 Bft) W-SW 256 0 min 0,000 mm 0,0 UV-I 0 W/m 9,0 C 7,8 C 19,3 km/h (3 Bft) 96,15 %
13.05.2016 03:20 9,8 C 95 % 994,7 hPa 0,0 l/m 10,4 km/h (2 Bft) S-SO 161 0 min 0,000 mm 0,0 UV-I 0 W/m 9,0 C 7,1 C 17,7 km/h (3 Bft) 100,00 %
13.05.2016 03:21 9,8 C 95 % 994,7 hPa 0,0 l/m 8,4 km/h (2 Bft) W-SW 249 0 min 0,000 mm 0,0 UV-I 0 W/m 9,0 C 8,4 C 12,9 km/h (3 Bft) 100,00 %
13.05.2016 03:22 9,8 C 95 % 994,6 hPa 0,0 l/m 12,7 km/h (3 Bft) SW 215 0 min 0,000 mm 0,0 UV-I 0 W/m 9,0 C 5,9 C 19,3 km/h (3 Bft) 96,30 %
13.05.2016 03:23 9,8 C 95 % 994,6 hPa 0,0 l/m 11,0 km/h (2 Bft) W-SW 245 0 min 0,000 mm 0,0 UV-I 0 W/m 9,0 C 6,8 C 16,1 km/h (3 Bft) 96,55 %
13.05.2016 03:24 9,8 C 95 % 994,7 hPa 0,0 l/m 11,3 km/h (2 Bft) W-SW 243 0 min 0,000 mm 0,0 UV-I 0 W/m 9,0 C 6,6 C 17,7 km/h (3 Bft) 100,00 %
13.05.2016 03:25 9,8 C 95 % 994,7 hPa 0,2 l/m 9,0 km/h (2 Bft) SW 226 0 min 0,000 mm 0,0 UV-I 0 W/m 9,0 C 8,0 C 12,9 km/h (3 Bft) 95,65 %
13.05.2016 03:26 9,8 C 95 % 994,7 hPa 0,0 l/m 11,8 km/h (2 Bft) W-SW 244 0 min 0,000 mm 0,0 UV-I 0 W/m 9,0 C 6,4 C 16,1 km/h (3 Bft) 100,00 %
13.05.2016 03:27 9,8 C 95 % 994,7 hPa 0,0 l/m 10,0 km/h (2 Bft) W-SW 247 0 min 0,000 mm 0,0 UV-I 0 W/m 9,0 C 7,4 C 16,1 km/h (3 Bft) 100,00 %
13.05.2016 03:28 9,8 C 95 % 994,7 hPa 0,0 l/m 11,3 km/h (2 Bft) W-SW 246 0 min 0,000 mm 0,0 UV-I 0 W/m 9,0 C 6,6 C 14,5 km/h (3 Bft) 100,00 %
13.05.2016 03:29 9,8 C 95 % 994,6 hPa 0,0 l/m 11,4 km/h (2 Bft) SW 232 0 min 0,000 mm 0,0 UV-I 0 W/m 9,0 C 6,6 C 12,9 km/h (3 Bft) 100,00 %
13.05.2016 03:30 9,8 C 95 % 994,7 hPa 0,0 l/m 9,6 km/h (2 Bft) SW 223 0 min 0,000 mm 0,0 UV-I 0 W/m 9,0 C 7,6 C 12,9 km/h (3 Bft) 100,00 %
13.05.2016 03:31 9,8 C 95 % 994,7 hPa 0,2 l/m 11,7 km/h (2 Bft) W-SW 238 0 min 0,000 mm 0,0 UV-I 0 W/m 9,0 C 6,4 C 16,1 km/h (3 Bft) 96,15 %
13.05.2016 03:32 9,8 C 95 % 994,7 hPa 0,0 l/m 12,1 km/h (2 Bft) W-SW 247 0 min 0,000 mm 0,0 UV-I 0 W/m 9,0 C 6,2 C 17,7 km/h (3 Bft) 100,00 %
13.05.2016 03:33 9,8 C 95 % 994,6 hPa 0,0 l/m 7,7 km/h (2 Bft) W-SW 257 0 min 0,000 mm 0,0 UV-I 0 W/m 9,0 C 8,9 C 11,3 km/h (2 Bft) 100,00 %
13.05.2016 03:34 9,8 C 95 % 994,7 hPa 0,0 l/m 9,7 km/h (2 Bft) W-SW 242 0 min 0,000 mm 0,0 UV-I 0 W/m 9,0 C 7,6 C 14,5 km/h (3 Bft) 100,00 %
13.05.2016 03:35 9,8 C 95 % 994,6 hPa 0,0 l/m 12,8 km/h (3 Bft) SW 223 0 min 0,000 mm 0,0 UV-I 0 W/m 9,0 C 5,9 C 17,7 km/h (3 Bft) 100,00 %
13.05.2016 03:36 9,8 C 95 % 994,6 hPa 0,0 l/m 9,8 km/h (2 Bft) S-SW 205 0 min 0,000 mm 0,0 UV-I 0 W/m 9,0 C 7,5 C 16,1 km/h (3 Bft) 100,00 %
13.05.2016 03:37 9,8 C 95 % 994,6 hPa 0,2 l/m 10,5 km/h (2 Bft) S 190 0 min 0,000 mm 0,0 UV-I 0 W/m 9,0 C 7,1 C 14,5 km/h (3 Bft) 100,00 %
13.05.2016 03:38 9,8 C 95 % 994,6 hPa 0,0 l/m 11,9 km/h (2 Bft) SW 229 0 min 0,000 mm 0,0 UV-I 0 W/m 9,0 C 6,3 C 14,5 km/h (3 Bft) 100,00 %
13.05.2016 03:39 9,8 C 95 % 994,6 hPa 0,0 l/m 10,6 km/h (2 Bft) W 266 0 min 0,000 mm 0,0 UV-I 0 W/m 9,0 C 7,0 C 14,5 km/h (3 Bft) 100,00 %
13.05.2016 03:40 9,8 C 95 % 994,6 hPa 0,0 l/m 13,1 km/h (3 Bft) W-SW 249 0 min 0,000 mm 0,0 UV-I 0 W/m 9,0 C 5,7 C 17,7 km/h (3 Bft) 100,00 %
13.05.2016 03:41 9,8 C 95 % 994,6 hPa 0,0 l/m 9,8 km/h (2 Bft) W-SW 242 0 min 0,000 mm 0,0 UV-I 0 W/m 9,0 C 7,5 C 12,9 km/h (3 Bft) 100,00 %
13.05.2016 03:42 9,8 C 95 % 994,6 hPa 0,2 l/m 7,4 km/h (2 Bft) W-SW 248 0 min 0,000 mm 0,0 UV-I 0 W/m 9,0 C 9,1 C 9,7 km/h (2 Bft) 100,00 %
13.05.2016 03:43 9,8 C 95 % 994,6 hPa 0,0 l/m 7,9 km/h (2 Bft) SW 230 0 min 0,000 mm 0,0 UV-I 0 W/m 9,0 C 8,7 C 11,3 km/h (2 Bft) 100,00 %
13.05.2016 03:44 9,8 C 96 % 994,6 hPa 0,0 l/m 12,5 km/h (3 Bft) SW 229 0 min 0,000 mm 0,0 UV-I 0 W/m 9,2 C 6,0 C 17,7 km/h (3 Bft) 95,65 %
13.05.2016 03:45 9,8 C 96 % 994,6 hPa 0,0 l/m 10,0 km/h (2 Bft) W-SW 253 0 min 0,000 mm 0,0 UV-I 0 W/m 9,2 C 7,4 C 14,5 km/h (3 Bft) 100,00 %
13.05.2016 03:46 9,8 C 96 % 994,5 hPa 0,0 l/m 9,4 km/h (2 Bft) W-SW 244 0 min 0,000 mm 0,0 UV-I 0 W/m 9,2 C 7,7 C 12,9 km/h (3 Bft) 100,00 %
13.05.2016 03:47 9,8 C 96 % 994,6 hPa 0,0 l/m 10,5 km/h (2 Bft) W 271 0 min 0,000 mm 0,0 UV-I 0 W/m 9,2 C 7,1 C 14,5 km/h (3 Bft) 100,00 %
13.05.2016 03:48 9,8 C 96 % 994,6 hPa 0,0 l/m 9,3 km/h (2 Bft) SW 231 0 min 0,000 mm 0,0 UV-I 0 W/m 9,2 C 7,8 C 14,5 km/h (3 Bft) 100,00 %
13.05.2016 03:49 9,8 C 95 % 994,5 hPa 0,2 l/m 12,0 km/h (2 Bft) SW 225 0 min 0,000 mm 0,0 UV-I 0 W/m 9,0 C 6,3 C 14,5 km/h (3 Bft) 100,00 %
13.05.2016 03:50 9,8 C 95 % 994,5 hPa 0,0 l/m 11,9 km/h (2 Bft) SW 227 0 min 0,000 mm 0,0 UV-I 0 W/m 9,0 C 6,3 C 17,7 km/h (3 Bft) 100,00 %
13.05.2016 03:51 9,8 C 95 % 994,5 hPa 0,0 l/m 10,9 km/h (2 Bft) SW 228 0 min 0,000 mm 0,0 UV-I 0 W/m 9,0 C 6,9 C 14,5 km/h (3 Bft) 100,00 %
13.05.2016 03:52 9,8 C 95 % 994,5 hPa 0,0 l/m 12,5 km/h (3 Bft) W 259 0 min 0,000 mm 0,0 UV-I 0 W/m 9,0 C 6,0 C 17,7 km/h (3 Bft) 100,00 %
13.05.2016 03:53 9,8 C 95 % 994,5 hPa 0,0 l/m 9,4 km/h (2 Bft) SW 223 0 min 0,000 mm 0,0 UV-I 0 W/m 9,0 C 7,7 C 12,9 km/h (3 Bft) 96,88 %
13.05.2016 03:54 9,8 C 95 % 994,5 hPa 0,0 l/m 7,7 km/h (2 Bft) SW 225 0 min 0,000 mm 0,0 UV-I 0 W/m 9,0 C 8,9 C 12,9 km/h (3 Bft) 100,00 %
13.05.2016 03:55 9,8 C 95 % 994,5 hPa 0,2 l/m 12,5 km/h (3 Bft) S-SW 199 0 min 0,000 mm 0,0 UV-I 0 W/m 9,0 C 6,0 C 16,1 km/h (3 Bft) 100,00 %
13.05.2016 03:56 9,8 C 95 % 994,5 hPa 0,0 l/m 8,2 km/h (2 Bft) W-SW 246 0 min 0,000 mm 0,0 UV-I 0 W/m 9,0 C 8,5 C 11,3 km/h (2 Bft) 100,00 %
13.05.2016 03:57 9,8 C 95 % 994,5 hPa 0,0 l/m 12,1 km/h (2 Bft) W-SW 256 0 min 0,000 mm 0,0 UV-I 0 W/m 9,0 C 6,2 C 19,3 km/h (3 Bft) 100,00 %
13.05.2016 03:58 9,8 C 95 % 994,5 hPa 0,0 l/m 14,2 km/h (3 Bft) W-SW 244 0 min 0,000 mm 0,0 UV-I 0 W/m 9,0 C 5,2 C 17,7 km/h (3 Bft) 100,00 %
13.05.2016 03:59 9,8 C 95 % 994,5 hPa 0,0 l/m 10,5 km/h (2 Bft) SW 233 0 min 0,000 mm 0,0 UV-I 0 W/m 9,0 C 7,1 C 12,9 km/h (3 Bft) 100,00 %
13.05.2016 04:00 9,8 C 95 % 994,5 hPa 0,0 l/m 9,7 km/h (2 Bft) SW 234 0 min 0,000 mm 0,0 UV-I 0 W/m 9,0 C 7,6 C 14,5 km/h (3 Bft) 100,00 %
13.05.2016 04:02 9,8 C 95 % 994,5 hPa 0,0 l/m 12,0 km/h (2 Bft) W 261 0 min 0,000 mm 0,0 UV-I 0 W/m 9,0 C 6,3 C 19,3 km/h (3 Bft) 100,00 %
13.05.2016 04:03 9,8 C 95 % 994,5 hPa 0,2 l/m 13,2 km/h (3 Bft) S-SW 198 0 min 0,000 mm 0,0 UV-I 0 W/m 9,0 C 5,7 C 19,3 km/h (3 Bft) 100,00 %
13.05.2016 04:04 9,8 C 95 % 994,5 hPa 0,0 l/m 10,5 km/h (2 Bft) SW 220 0 min 0,000 mm 0,0 UV-I 0 W/m 9,0 C 7,1 C 14,5 km/h (3 Bft) 100,00 %
13.05.2016 04:05 9,7 C 95 % 994,5 hPa 0,0 l/m 9,8 km/h (2 Bft) W-SW 241 0 min 0,000 mm 0,0 UV-I 0 W/m 8,9 C 7,4 C 16,1 km/h (3 Bft) 100,00 %
13.05.2016 04:06 9,7 C 95 % 994,5 hPa 0,0 l/m 7,7 km/h (2 Bft) SW 223 0 min 0,000 mm 0,0 UV-I 0 W/m 8,9 C 8,7 C 11,3 km/h (2 Bft) 96,88 %
13.05.2016 04:07 9,8 C 95 % 994,5 hPa 0,0 l/m 10,9 km/h (2 Bft) S-SW 212 0 min 0,000 mm 0,0 UV-I 0 W/m 9,0 C 6,9 C 14,5 km/h (3 Bft) 100,00 %
13.05.2016 04:08 9,8 C 95 % 994,5 hPa 0,0 l/m 8,6 km/h (2 Bft) SW 236 0 min 0,000 mm 0,0 UV-I 0 W/m 9,0 C 8,2 C 11,3 km/h (2 Bft) 100,00 %
13.05.2016 04:09 9,7 C 95 % 994,4 hPa 0,0 l/m 9,8 km/h (2 Bft) W-SW 250 0 min 0,000 mm 0,0 UV-I 0 W/m 8,9 C 7,4 C 14,5 km/h (3 Bft) 100,00 %
13.05.2016 04:10 9,8 C 95 % 994,4 hPa 0,2 l/m 12,3 km/h (3 Bft) SW 220 0 min 0,000 mm 0,0 UV-I 0 W/m 9,0 C 6,1 C 16,1 km/h (3 Bft) 100,00 %
13.05.2016 04:11 9,7 C 95 % 994,4 hPa 0,0 l/m 13,7 km/h (3 Bft) S-SW 204 0 min 0,000 mm 0,0 UV-I 0 W/m 8,9 C 5,3 C 17,7 km/h (3 Bft) 96,30 %
13.05.2016 04:12 9,7 C 95 % 994,4 hPa 0,0 l/m 8,5 km/h (2 Bft) SW 227 0 min 0,000 mm 0,0 UV-I 0 W/m 8,9 C 8,2 C 11,3 km/h (2 Bft) 100,00 %
13.05.2016 04:13 9,8 C 95 % 994,4 hPa 0,0 l/m 10,9 km/h (2 Bft) SW 229 0 min 0,000 mm 0,0 UV-I 0 W/m 9,0 C 6,9 C 16,1 km/h (3 Bft) 100,00 %
13.05.2016 04:14 9,7 C 96 % 994,4 hPa 0,0 l/m 8,7 km/h (2 Bft) W 259 0 min 0,000 mm 0,0 UV-I 0 W/m 9,1 C 8,1 C 12,9 km/h (3 Bft) 100,00 %
13.05.2016 04:15 9,8 C 96 % 994,4 hPa 0,0 l/m 12,3 km/h (3 Bft) W-SW 246 0 min 0,000 mm 0,0 UV-I 0 W/m 9,2 C 6,1 C 17,7 km/h (3 Bft) 100,00 %
13.05.2016 04:16 9,8 C 96 % 994,4 hPa 0,0 l/m 12,9 km/h (3 Bft) W-SW 250 0 min 0,000 mm 0,0 UV-I 0 W/m 9,2 C 5,8 C 19,3 km/h (3 Bft) 100,00 %
13.05.2016 04:17 9,8 C 96 % 994,4 hPa 0,2 l/m 13,3 km/h (3 Bft) W-SW 247 0 min 0,000 mm 0,0 UV-I 0 W/m 9,2 C 5,6 C 17,7 km/h (3 Bft) 100,00 %
13.05.2016 04:18 9,8 C 96 % 994,4 hPa 0,0 l/m 10,9 km/h (2 Bft) SW 222 0 min 0,000 mm 0,0 UV-I 0 W/m 9,2 C 6,9 C 12,9 km/h (3 Bft) 100,00 %
13.05.2016 04:19 9,8 C 96 % 994,4 hPa 0,0 l/m 11,5 km/h (2 Bft) W 261 0 min 0,000 mm 0,0 UV-I 0 W/m 9,2 C 6,5 C 14,5 km/h (3 Bft) 100,00 %
13.05.2016 04:20 9,8 C 96 % 994,5 hPa 0,0 l/m 12,3 km/h (3 Bft) SW 228 0 min 0,000 mm 0,0 UV-I 0 W/m 9,2 C 6,1 C 17,7 km/h (3 Bft) 100,00 %
13.05.2016 04:21 9,8 C 96 % 994,4 hPa 0,0 l/m 13,8 km/h (3 Bft) S-SW 202 0 min 0,000 mm 0,0 UV-I 0 W/m 9,2 C 5,4 C 16,1 km/h (3 Bft) 100,00 %
13.05.2016 04:22 9,8 C 96 % 994,4 hPa 0,2 l/m 14,1 km/h (3 Bft) SW 224 0 min 0,000 mm 0,0 UV-I 0 W/m 9,2 C 5,3 C 17,7 km/h (3 Bft) 100,00 %
13.05.2016 04:23 9,8 C 96 % 994,5 hPa 0,0 l/m 11,6 km/h (2 Bft) SW 233 0 min 0,000 mm 0,0 UV-I 0 W/m 9,2 C 6,5 C 16,1 km/h (3 Bft) 100,00 %
13.05.2016 04:24 9,7 C 96 % 994,5 hPa 0,0 l/m 10,0 km/h (2 Bft) S 189 0 min 0,000 mm 0,0 UV-I 0 W/m 9,1 C 7,3 C 12,9 km/h (3 Bft) 99,62 %
13.05.2016 04:25 9,8 C 96 % 994,4 hPa 0,0 l/m 13,0 km/h (3 Bft) SW 236 0 min 0,000 mm 0,0 UV-I 0 W/m 9,2 C 5,8 C 19,3 km/h (3 Bft) 100,00 %
13.05.2016 04:26 9,8 C 96 % 994,4 hPa 0,2 l/m 11,3 km/h (2 Bft) SW 231 0 min 0,000 mm 0,0 UV-I 0 W/m 9,2 C 6,6 C 16,1 km/h (3 Bft) 100,00 %
13.05.2016 04:27 9,8 C 96 % 994,4 hPa 0,0 l/m 12,9 km/h (3 Bft) W-SW 244 0 min 0,000 mm 0,0 UV-I 0 W/m 9,2 C 5,8 C 17,7 km/h (3 Bft) 100,00 %
13.05.2016 04:28 9,8 C 96 % 994,4 hPa 0,0 l/m 11,3 km/h (2 Bft) W-SW 241 0 min 0,000 mm 0,0 UV-I 0 W/m 9,2 C 6,6 C 14,5 km/h (3 Bft) 100,00 %
13.05.2016 04:29 9,8 C 96 % 994,4 hPa 0,2 l/m 11,0 km/h (2 Bft) W-SW 245 0 min 0,000 mm 0,0 UV-I 0 W/m 9,2 C 6,8 C 12,9 km/h (3 Bft) 100,00 %
13.05.2016 04:30 9,8 C 96 % 994,4 hPa 0,0 l/m 11,9 km/h (2 Bft) W-SW 239 0 min 0,000 mm 0,0 UV-I 0 W/m 9,2 C 6,3 C 17,7 km/h (3 Bft) 100,00 %
13.05.2016 04:31 9,8 C 96 % 994,4 hPa 0,0 l/m 10,8 km/h (2 Bft) W-SW 238 0 min 0,000 mm 0,0 UV-I 0 W/m 9,2 C 6,9 C 14,5 km/h (3 Bft) 100,00 %
13.05.2016 04:32 9,8 C 96 % 994,4 hPa 0,0 l/m 10,2 km/h (2 Bft) SW 224 0 min 0,000 mm 0,0 UV-I 0 W/m 9,2 C 7,3 C 16,1 km/h (3 Bft) 100,00 %
13.05.2016 04:33 9,8 C 96 % 994,4 hPa 0,0 l/m 12,2 km/h (2 Bft) SW 219 0 min 0,000 mm 0,0 UV-I 0 W/m 9,2 C 6,2 C 17,7 km/h (3 Bft) 96,15 %
13.05.2016 04:34 9,8 C 96 % 994,4 hPa 0,0 l/m 15,9 km/h (3 Bft) W-SW 240 0 min 0,000 mm 0,0 UV-I 0 W/m 9,2 C 4,5 C 20,9 km/h (4 Bft) 99,61 %
13.05.2016 04:35 9,8 C 96 % 994,4 hPa 0,0 l/m 12,0 km/h (2 Bft) SW 225 0 min 0,000 mm 0,0 UV-I 0 W/m 9,2 C 6,3 C 16,1 km/h (3 Bft) 100,00 %
13.05.2016 04:36 9,8 C 96 % 994,4 hPa 0,2 l/m 13,2 km/h (3 Bft) SW 224 0 min 0,000 mm 0,0 UV-I 0 W/m 9,2 C 5,7 C 16,1 km/h (3 Bft) 100,00 %
13.05.2016 04:37 9,8 C 96 % 994,3 hPa 0,0 l/m 12,5 km/h (3 Bft) SW 229 0 min 0,000 mm 0,0 UV-I 0 W/m 9,2 C 6,0 C 17,7 km/h (3 Bft) 100,00 %
13.05.2016 04:38 9,8 C 96 % 994,3 hPa 0,0 l/m 12,3 km/h (3 Bft) W 261 0 min 0,000 mm 0,0 UV-I 0 W/m 9,2 C 6,1 C 17,7 km/h (3 Bft) 100,00 %
13.05.2016 04:39 9,8 C 96 % 994,3 hPa 0,0 l/m 13,0 km/h (3 Bft) SW 229 0 min 0,000 mm 0,0 UV-I 0 W/m 9,2 C 5,8 C 17,7 km/h (3 Bft) 100,00 %
13.05.2016 04:40 9,8 C 96 % 994,3 hPa 0,0 l/m 11,3 km/h (2 Bft) SW 219 0 min 0,000 mm 0,0 UV-I 0 W/m 9,2 C 6,6 C 14,5 km/h (3 Bft) 100,00 %
13.05.2016 04:41 9,8 C 96 % 994,3 hPa 0,0 l/m 16,8 km/h (3 Bft) W-SW 256 0 min 0,000 mm 0,0 UV-I 0 W/m 9,2 C 4,2 C 24,1 km/h (4 Bft) 96,15 %
13.05.2016 04:42 9,8 C 96 % 994,3 hPa 0,2 l/m 13,2 km/h (3 Bft) W-SW 242 0 min 0,000 mm 0,0 UV-I 0 W/m 9,2 C 5,7 C 19,3 km/h (3 Bft) 100,00 %
13.05.2016 04:43 9,8 C 96 % 994,3 hPa 0,0 l/m 17,1 km/h (3 Bft) W-SW 251 0 min 0,000 mm 0,0 UV-I 0 W/m 9,2 C 4,1 C 22,5 km/h (4 Bft) 92,31 %
13.05.2016 04:44 9,8 C 96 % 994,3 hPa 0,0 l/m 17,2 km/h (3 Bft) W-SW 238 0 min 0,000 mm 0,0 UV-I 0 W/m 9,2 C 4,0 C 22,5 km/h (4 Bft) 95,83 %
13.05.2016 04:45 9,8 C 96 % 994,3 hPa 0,0 l/m 18,5 km/h (3 Bft) W-SW 237 0 min 0,000 mm 0,0 UV-I 0 W/m 9,2 C 3,5 C 24,1 km/h (4 Bft) 100,00 %
13.05.2016 04:46 9,8 C 96 % 994,2 hPa 0,0 l/m 15,6 km/h (3 Bft) W-SW 243 0 min 0,000 mm 0,0 UV-I 0 W/m 9,2 C 4,6 C 22,5 km/h (4 Bft) 96,55 %
13.05.2016 04:47 9,8 C 96 % 994,2 hPa 0,0 l/m 13,7 km/h (3 Bft) SW 229 0 min 0,000 mm 0,0 UV-I 0 W/m 9,2 C 5,5 C 17,7 km/h (3 Bft) 100,00 %
13.05.2016 04:48 9,8 C 96 % 994,2 hPa 0,0 l/m 13,6 km/h (3 Bft) SW 233 0 min 0,000 mm 0,0 UV-I 0 W/m 9,2 C 5,5 C 22,5 km/h (4 Bft) 93,33 %
13.05.2016 04:49 9,8 C 96 % 994,2 hPa 0,2 l/m 12,4 km/h (3 Bft) SW 234 0 min 0,000 mm 0,0 UV-I 0 W/m 9,2 C 6,1 C 19,3 km/h (3 Bft) 100,00 %
13.05.2016 04:50 9,8 C 96 % 994,2 hPa 0,0 l/m 15,8 km/h (3 Bft) W-SW 237 0 min 0,000 mm 0,0 UV-I 0 W/m 9,2 C 4,6 C 20,9 km/h (4 Bft) 83,33 %
13.05.2016 04:51 9,8 C 96 % 994,1 hPa 0,0 l/m 13,6 km/h (3 Bft) W-SW 240 0 min 0,000 mm 0,0 UV-I 0 W/m 9,2 C 5,5 C 19,3 km/h (3 Bft) 100,00 %
13.05.2016 04:52 9,8 C 96 % 994,2 hPa 0,0 l/m 16,7 km/h (3 Bft) W-SW 249 0 min 0,000 mm 0,0 UV-I 0 W/m 9,2 C 4,2 C 24,1 km/h (4 Bft) 95,65 %
13.05.2016 04:53 9,8 C 96 % 994,2 hPa 0,0 l/m 15,3 km/h (3 Bft) W 259 0 min 0,000 mm 0,0 UV-I 0 W/m 9,2 C 4,8 C 19,3 km/h (3 Bft) 100,00 %
13.05.2016 04:54 9,8 C 96 % 994,1 hPa 0,0 l/m 13,8 km/h (3 Bft) W 270 0 min 0,000 mm 0,0 UV-I 0 W/m 9,2 C 5,4 C 22,5 km/h (4 Bft) 94,74 %
13.05.2016 04:55 9,7 C 96 % 994,1 hPa 0,2 l/m 16,3 km/h (3 Bft) W-SW 247 0 min 0,000 mm 0,0 UV-I 0 W/m 9,1 C 4,2 C 22,5 km/h (4 Bft) 95,83 %
13.05.2016 04:56 9,8 C 96 % 994,1 hPa 0,0 l/m 14,3 km/h (3 Bft) S-SW 210 0 min 0,000 mm 0,0 UV-I 0 W/m 9,2 C 5,2 C 20,9 km/h (4 Bft) 100,00 %
13.05.2016 04:57 9,7 C 96 % 994,1 hPa 0,0 l/m 13,6 km/h (3 Bft) S-SW 196 0 min 0,000 mm 0,0 UV-I 0 W/m 9,1 C 5,4 C 17,7 km/h (3 Bft) 95,83 %
13.05.2016 04:58 9,8 C 96 % 994,1 hPa 0,0 l/m 13,4 km/h (3 Bft) S-SW 213 0 min 0,000 mm 0,0 UV-I 0 W/m 9,2 C 5,6 C 24,1 km/h (4 Bft) 100,00 %
13.05.2016 04:59 9,7 C 96 % 994,1 hPa 0,0 l/m 15,3 km/h (3 Bft) W-SW 253 0 min 0,000 mm 0,0 UV-I 0 W/m 9,1 C 4,6 C 22,5 km/h (4 Bft) 95,83 %
13.05.2016 05:00 9,8 C 96 % 994,1 hPa 0,0 l/m 16,7 km/h (3 Bft) SW 235 0 min 0,000 mm 0,0 UV-I 0 W/m 9,2 C 4,2 C 22,5 km/h (4 Bft) 90,91 %
13.05.2016 05:01 9,8 C 96 % 994,1 hPa 0,2 l/m 14,1 km/h (3 Bft) SW 216 0 min 0,000 mm 0,0 UV-I 0 W/m 9,2 C 5,3 C 24,1 km/h (4 Bft) 96,30 %
13.05.2016 05:02 9,7 C 96 % 994,1 hPa 0,0 l/m 15,2 km/h (3 Bft) SW 214 0 min 0,000 mm 0,0 UV-I 0 W/m 9,1 C 4,7 C 27,4 km/h (4 Bft) 96,15 %
13.05.2016 05:03 9,8 C 96 % 994,1 hPa 0,0 l/m 15,5 km/h (3 Bft) SW 221 0 min 0,000 mm 0,0 UV-I 0 W/m 9,2 C 4,7 C 22,5 km/h (4 Bft) 100,00 %
13.05.2016 05:04 9,8 C 96 % 994,0 hPa 0,0 l/m 16,3 km/h (3 Bft) SW 229 0 min 0,000 mm 0,0 UV-I 0 W/m 9,2 C 4,4 C 20,9 km/h (4 Bft) 96,15 %
13.05.2016 05:05 9,8 C 95 % 994,0 hPa 0,0 l/m 15,6 km/h (3 Bft) SW 234 0 min 0,000 mm 0,0 UV-I 0 W/m 9,0 C 4,6 C 22,5 km/h (4 Bft) 100,00 %
13.05.2016 05:06 9,8 C 95 % 994,0 hPa 0,0 l/m 14,4 km/h (3 Bft) W-SW 248 0 min 0,000 mm 0,0 UV-I 0 W/m 9,0 C 5,2 C 20,9 km/h (4 Bft) 96,15 %
13.05.2016 05:07 9,8 C 95 % 993,9 hPa 0,2 l/m 18,5 km/h (3 Bft) SW 236 0 min 0,000 mm 0,0 UV-I 0 W/m 9,0 C 3,5 C 27,4 km/h (4 Bft) 96,67 %
13.05.2016 05:08 9,8 C 95 % 993,9 hPa 0,0 l/m 18,2 km/h (3 Bft) SW 236 0 min 0,000 mm 0,0 UV-I 0 W/m 9,0 C 3,6 C 24,1 km/h (4 Bft) 93,33 %
13.05.2016 05:09 9,8 C 95 % 993,9 hPa 0,0 l/m 20,0 km/h (4 Bft) SW 224 0 min 0,000 mm 0,0 UV-I 0 W/m 9,0 C 3,0 C 25,7 km/h (4 Bft) 100,00 %
13.05.2016 05:10 9,8 C 95 % 993,9 hPa 0,0 l/m 20,4 km/h (4 Bft) W-SW 240 0 min 0,000 mm 0,0 UV-I 0 W/m 9,0 C 2,9 C 25,7 km/h (4 Bft) 96,30 %
13.05.2016 05:11 9,8 C 95 % 993,9 hPa 0,0 l/m 16,0 km/h (3 Bft) W-SW 243 0 min 0,000 mm 0,0 UV-I 0 W/m 9,0 C 4,5 C 22,5 km/h (4 Bft) 91,30 %
13.05.2016 05:12 9,8 C 96 % 993,9 hPa 0,0 l/m 15,7 km/h (3 Bft) SW 219 0 min 0,000 mm 0,0 UV-I 0 W/m 9,2 C 4,6 C 24,1 km/h (4 Bft) 100,00 %
13.05.2016 05:13 9,8 C 96 % 993,9 hPa 0,0 l/m 19,3 km/h (3 Bft) SW 234 0 min 0,000 mm 0,0 UV-I 0 W/m 9,2 C 3,3 C 27,4 km/h (4 Bft) 96,15 %
13.05.2016 05:14 9,8 C 96 % 993,9 hPa 0,2 l/m 18,0 km/h (3 Bft) W-SW 239 0 min 0,000 mm 0,0 UV-I 0 W/m 9,2 C 3,7 C 25,7 km/h (4 Bft) 100,00 %
13.05.2016 05:15 9,8 C 96 % 993,9 hPa 0,0 l/m 15,7 km/h (3 Bft) SW 234 0 min 0,000 mm 0,0 UV-I 0 W/m 9,2 C 4,6 C 20,9 km/h (4 Bft) 91,30 %
13.05.2016 05:16 9,8 C 96 % 993,9 hPa 0,0 l/m 16,2 km/h (3 Bft) SW 234 0 min 0,000 mm 0,0 UV-I 0 W/m 9,2 C 4,4 C 24,1 km/h (4 Bft) 100,00 %
13.05.2016 05:17 9,8 C 96 % 993,9 hPa 0,0 l/m 10,6 km/h (2 Bft) SW 225 0 min 0,000 mm 0,0 UV-I 0 W/m 9,2 C 7,0 C 16,1 km/h (3 Bft) 100,00 %
13.05.2016 05:18 9,8 C 96 % 993,9 hPa 0,0 l/m 12,7 km/h (3 Bft) SW 223 0 min 0,000 mm 0,0 UV-I 0 W/m 9,2 C 5,9 C 22,5 km/h (4 Bft) 96,43 %
13.05.2016 05:19 9,8 C 96 % 993,9 hPa 0,2 l/m 18,1 km/h (3 Bft) SW 225 0 min 0,000 mm 0,0 UV-I 0 W/m 9,2 C 3,7 C 24,1 km/h (4 Bft) 91,30 %
13.05.2016 05:20 9,8 C 96 % 993,9 hPa 0,0 l/m 15,3 km/h (3 Bft) W-SW 241 0 min 0,000 mm 0,0 UV-I 0 W/m 9,2 C 4,8 C 20,9 km/h (4 Bft) 96,30 %
13.05.2016 05:21 9,8 C 96 % 993,9 hPa 0,0 l/m 18,0 km/h (3 Bft) SW 234 0 min 0,000 mm 0,0 UV-I 0 W/m 9,2 C 3,7 C 22,5 km/h (4 Bft) 100,00 %
13.05.2016 05:22 9,8 C 96 % 993,9 hPa 0,0 l/m 11,8 km/h (2 Bft) W-SW 244 0 min 0,000 mm 0,0 UV-I 0 W/m 9,2 C 6,4 C 14,5 km/h (3 Bft) 100,00 %
13.05.2016 05:23 9,8 C 96 % 993,9 hPa 0,0 l/m 14,5 km/h (3 Bft) W-SW 240 0 min 0,000 mm 0,0 UV-I 0 W/m 9,2 C 5,1 C 20,9 km/h (4 Bft) 96,55 %
13.05.2016 05:24 9,8 C 96 % 993,9 hPa 0,0 l/m 15,6 km/h (3 Bft) SW 221 0 min 0,000 mm 0,0 UV-I 0 W/m 9,2 C 4,6 C 22,5 km/h (4 Bft) 100,00 %
13.05.2016 05:25 9,8 C 96 % 993,9 hPa 0,0 l/m 15,8 km/h (3 Bft) W-SW 254 0 min 0,000 mm 0,0 UV-I 0 W/m 9,2 C 4,6 C 22,5 km/h (4 Bft) 100,00 %
13.05.2016 05:26 9,8 C 96 % 993,9 hPa 0,0 l/m 9,7 km/h (2 Bft) SW 219 0 min 0,000 mm 0,0 UV-I 0 W/m 9,2 C 7,6 C 12,9 km/h (3 Bft) 100,00 %
13.05.2016 05:27 9,8 C 96 % 993,9 hPa 0,0 l/m 12,4 km/h (3 Bft) SW 225 0 min 0,000 mm 0,0 UV-I 0 W/m 9,2 C 6,1 C 19,3 km/h (3 Bft) 91,30 %
13.05.2016 05:28 9,8 C 96 % 993,9 hPa 0,0 l/m 15,6 km/h (3 Bft) W-SW 246 0 min 0,000 mm 0,0 UV-I 0 W/m 9,2 C 4,6 C 20,9 km/h (4 Bft) 100,00 %
13.05.2016 05:29 9,8 C 96 % 993,9 hPa 0,2 l/m 7,8 km/h (2 Bft) SW 230 0 min 0,000 mm 0,0 UV-I 0 W/m 9,2 C 8,8 C 11,3 km/h (2 Bft) 100,00 %
13.05.2016 05:30 9,8 C 96 % 993,9 hPa 0,0 l/m 11,4 km/h (2 Bft) SW 236 0 min 0,000 mm 0,0 UV-I 0 W/m 9,2 C 6,6 C 17,7 km/h (3 Bft) 100,00 %
13.05.2016 05:31 9,8 C 96 % 993,9 hPa 0,0 l/m 12,9 km/h (3 Bft) W-SW 246 0 min 0,000 mm 0,0 UV-I 0 W/m 9,2 C 5,8 C 16,1 km/h (3 Bft) 100,00 %
13.05.2016 05:32 9,8 C 96 % 993,9 hPa 0,0 l/m 13,3 km/h (3 Bft) W-SW 242 0 min 0,000 mm 0,0 UV-I 0 W/m 9,2 C 5,6 C 17,7 km/h (3 Bft) 96,88 %
13.05.2016 05:33 9,8 C 96 % 993,9 hPa 0,0 l/m 12,6 km/h (3 Bft) SW 233 0 min 0,000 mm 0,0 UV-I 0 W/m 9,2 C 6,0 C 24,1 km/h (4 Bft) 100,00 %
13.05.2016 05:34 9,8 C 96 % 993,8 hPa 0,0 l/m 16,0 km/h (3 Bft) SW 217 0 min 0,000 mm 0,0 UV-I 0 W/m 9,2 C 4,5 C 22,5 km/h (4 Bft) 98,25 %
13.05.2016 05:35 9,8 C 96 % 993,8 hPa 0,0 l/m 15,8 km/h (3 Bft) W-SW 249 0 min 0,000 mm 0,0 UV-I 0 W/m 9,2 C 4,6 C 22,5 km/h (4 Bft) 97,56 %
13.05.2016 05:36 9,8 C 96 % 993,8 hPa 0,2 l/m 12,1 km/h (2 Bft) SW 215 0 min 0,000 mm 0,0 UV-I 0 W/m 9,2 C 6,2 C 22,5 km/h (4 Bft) 96,15 %
13.05.2016 05:37 9,8 C 96 % 993,8 hPa 0,0 l/m 11,3 km/h (2 Bft) S-SW 208 0 min 0,000 mm 0,0 UV-I 0 W/m 9,2 C 6,6 C 16,1 km/h (3 Bft) 98,21 %
13.05.2016 05:38 9,8 C 96 % 993,9 hPa 0,0 l/m 13,5 km/h (3 Bft) S-SW 206 0 min 0,000 mm 0,0 UV-I 0 W/m 9,2 C 5,6 C 17,7 km/h (3 Bft) 100,00 %
13.05.2016 05:39 9,8 C 96 % 993,8 hPa 0,0 l/m 15,7 km/h (3 Bft) S-SW 211 0 min 0,000 mm 0,0 UV-I 0 W/m 9,2 C 4,6 C 22,5 km/h (4 Bft) 100,00 %
13.05.2016 05:40 9,8 C 96 % 993,8 hPa 0,0 l/m 10,9 km/h (2 Bft) SW 236 0 min 0,000 mm 0,0 UV-I 0 W/m 9,2 C 6,9 C 19,3 km/h (3 Bft) 100,00 %
13.05.2016 05:41 9,8 C 96 % 993,8 hPa 0,0 l/m 16,1 km/h (3 Bft) S-SW 211 0 min 0,000 mm 0,0 UV-I 0 W/m 9,2 C 4,4 C 20,9 km/h (4 Bft) 100,00 %
13.05.2016 05:42 9,8 C 96 % 993,8 hPa 0,0 l/m 16,0 km/h (3 Bft) W-SW 245 0 min 0,000 mm 0,0 UV-I 0 W/m 9,2 C 4,5 C 24,1 km/h (4 Bft) 100,00 %
13.05.2016 05:43 9,8 C 96 % 993,8 hPa 0,2 l/m 12,4 km/h (3 Bft) W-SW 244 0 min 0,000 mm 0,0 UV-I 0 W/m 9,2 C 6,1 C 14,5 km/h (3 Bft) 100,00 %
13.05.2016 05:44 9,8 C 96 % 993,8 hPa 0,0 l/m 12,1 km/h (2 Bft) SW 223 0 min 0,000 mm 0,0 UV-I 0 W/m 9,2 C 6,2 C 16,1 km/h (3 Bft) 100,00 %
13.05.2016 05:45 9,8 C 96 % 993,8 hPa 0,0 l/m 12,1 km/h (2 Bft) W-SW 246 0 min 0,000 mm 0,0 UV-I 0 W/m 9,2 C 6,2 C 14,5 km/h (3 Bft) 100,00 %
13.05.2016 05:46 9,8 C 96 % 993,8 hPa 0,0 l/m 13,0 km/h (3 Bft) SW 221 0 min 0,000 mm 0,0 UV-I 0 W/m 9,2 C 5,8 C 19,3 km/h (3 Bft) 100,00 %
13.05.2016 05:47 9,8 C 96 % 993,8 hPa 0,2 l/m 11,6 km/h (2 Bft) W-SW 242 0 min 0,000 mm 0,0 UV-I 0 W/m 9,2 C 6,5 C 17,7 km/h (3 Bft) 100,00 %
13.05.2016 05:48 9,8 C 96 % 993,8 hPa 0,0 l/m 12,0 km/h (2 Bft) S-SW 210 0 min 0,000 mm 0,0 UV-I 0 W/m 9,2 C 6,3 C 14,5 km/h (3 Bft) 100,00 %
13.05.2016 05:49 9,8 C 96 % 993,8 hPa 0,0 l/m 15,7 km/h (3 Bft) S-SW 194 0 min 0,000 mm 0,0 UV-I 0 W/m 9,2 C 4,6 C 20,9 km/h (4 Bft) 100,00 %
13.05.2016 05:50 9,8 C 96 % 993,8 hPa 0,0 l/m 9,9 km/h (2 Bft) SW 223 0 min 0,000 mm 0,0 UV-I 0 W/m 9,2 C 7,4 C 12,9 km/h (3 Bft) 100,00 %
13.05.2016 05:51 9,9 C 96 % 993,8 hPa 0,0 l/m 14,3 km/h (3 Bft) SW 221 0 min 0,000 mm 0,0 UV-I 0 W/m 9,3 C 5,3 C 22,5 km/h (4 Bft) 100,00 %
13.05.2016 05:52 9,9 C 96 % 993,8 hPa 0,0 l/m 15,5 km/h (3 Bft) W-SW 251 0 min 0,000 mm 0,0 UV-I 0 W/m 9,3 C 4,8 C 19,3 km/h (3 Bft) 100,00 %
13.05.2016 05:53 9,9 C 96 % 993,8 hPa 0,0 l/m 12,8 km/h (3 Bft) SW 217 0 min 0,000 mm 0,0 UV-I 0 W/m 9,3 C 6,0 C 14,5 km/h (3 Bft) 100,00 %
13.05.2016 05:54 9,8 C 96 % 993,8 hPa 0,0 l/m 12,5 km/h (3 Bft) W-SW 237 0 min 0,000 mm 0,0 UV-I 0 W/m 9,2 C 6,0 C 17,7 km/h (3 Bft) 100,00 %
13.05.2016 05:55 9,9 C 96 % 993,8 hPa 0,2 l/m 13,9 km/h (3 Bft) SW 220 0 min 0,000 mm 0,0 UV-I 0 W/m 9,3 C 5,5 C 17,7 km/h (3 Bft) 100,00 %
13.05.2016 05:56 9,9 C 96 % 993,8 hPa 0,0 l/m 16,8 km/h (3 Bft) SW 218 0 min 0,000 mm 0,0 UV-I 0 W/m 9,3 C 4,3 C 20,9 km/h (4 Bft) 100,00 %
13.05.2016 05:57 9,9 C 96 % 993,8 hPa 0,0 l/m 16,4 km/h (3 Bft) W-SW 242 0 min 0,000 mm 0,0 UV-I 0 W/m 9,3 C 4,4 C 20,9 km/h (4 Bft) 100,00 %
13.05.2016 05:58 9,9 C 96 % 993,8 hPa 0,0 l/m 13,2 km/h (3 Bft) SW 226 0 min 0,000 mm 0,0 UV-I 0 W/m 9,3 C 5,8 C 19,3 km/h (3 Bft) 100,00 %
13.05.2016 05:59 9,9 C 96 % 993,8 hPa 0,2 l/m 13,1 km/h (3 Bft) SW 223 0 min 0,000 mm 0,0 UV-I 1 W/m 9,3 C 5,9 C 24,1 km/h (4 Bft) 100,00 %
13.05.2016 06:00 9,9 C 96 % 993,8 hPa 0,0 l/m 13,9 km/h (3 Bft) S-SW 211 0 min 0,000 mm 0,0 UV-I 5 W/m 9,3 C 5,5 C 17,7 km/h (3 Bft) 100,00 %
13.05.2016 06:01 9,9 C 96 % 993,8 hPa 0,0 l/m 12,0 km/h (2 Bft) W-SW 249 0 min 0,000 mm 0,0 UV-I 5 W/m 9,3 C 6,4 C 14,5 km/h (3 Bft) 100,00 %
13.05.2016 06:02 9,9 C 96 % 993,8 hPa 0,0 l/m 12,3 km/h (3 Bft) SW 221 0 min 0,000 mm 0,0 UV-I 5 W/m 9,3 C 6,2 C 17,7 km/h (3 Bft) 100,00 %
13.05.2016 06:03 9,9 C 96 % 993,8 hPa 0,0 l/m 11,7 km/h (2 Bft) SW 221 0 min 0,000 mm 0,0 UV-I 5 W/m 9,3 C 6,6 C 17,7 km/h (3 Bft) 100,00 %
13.05.2016 06:04 9,9 C 96 % 993,8 hPa 0,2 l/m 11,7 km/h (2 Bft) SW 224 0 min 0,000 mm 0,0 UV-I 5 W/m 9,3 C 6,6 C 17,7 km/h (3 Bft) 93,10 %
13.05.2016 06:05 9,9 C 96 % 993,8 hPa 0,0 l/m 11,3 km/h (2 Bft) W 260 0 min 0,000 mm 0,0 UV-I 5 W/m 9,3 C 6,8 C 17,7 km/h (3 Bft) 100,00 %
13.05.2016 06:06 9,9 C 96 % 993,9 hPa 0,0 l/m 11,3 km/h (2 Bft) W-SW 238 0 min 0,000 mm 0,0 UV-I 5 W/m 9,3 C 6,8 C 16,1 km/h (3 Bft) 96,30 %
13.05.2016 06:07 9,9 C 96 % 993,9 hPa 0,0 l/m 15,1 km/h (3 Bft) W-SW 254 0 min 0,000 mm 0,0 UV-I 5 W/m 9,3 C 5,0 C 19,3 km/h (3 Bft) 93,33 %
13.05.2016 06:08 9,9 C 96 % 993,9 hPa 0,2 l/m 11,5 km/h (2 Bft) SW 232 0 min 0,000 mm 0,0 UV-I 5 W/m 9,3 C 6,7 C 17,7 km/h (3 Bft) 100,00 %
13.05.2016 06:09 9,9 C 96 % 993,9 hPa 0,0 l/m 13,4 km/h (3 Bft) SW 231 0 min 0,000 mm 0,0 UV-I 5 W/m 9,3 C 5,7 C 17,7 km/h (3 Bft) 100,00 %
13.05.2016 06:10 9,9 C 96 % 993,8 hPa 0,0 l/m 10,1 km/h (2 Bft) SW 217 0 min 0,000 mm 0,0 UV-I 5 W/m 9,3 C 7,4 C 16,1 km/h (3 Bft) 100,00 %
13.05.2016 06:11 9,9 C 96 % 993,8 hPa 0,0 l/m 13,5 km/h (3 Bft) S-SW 203 0 min 0,000 mm 0,0 UV-I 5 W/m 9,3 C 5,7 C 17,7 km/h (3 Bft) 100,00 %
13.05.2016 06:12 9,9 C 96 % 993,8 hPa 0,0 l/m 14,8 km/h (3 Bft) SW 236 0 min 0,000 mm 0,0 UV-I 5 W/m 9,3 C 5,1 C 19,3 km/h (3 Bft) 100,00 %
13.05.2016 06:13 9,9 C 96 % 993,9 hPa 0,0 l/m 11,8 km/h (2 Bft) W-SW 258 0 min 0,000 mm 0,0 UV-I 5 W/m 9,3 C 6,5 C 16,1 km/h (3 Bft) 100,00 %
13.05.2016 06:14 9,9 C 96 % 993,8 hPa 0,0 l/m 10,6 km/h (2 Bft) SW 230 0 min 0,000 mm 0,0 UV-I 5 W/m 9,3 C 7,1 C 14,5 km/h (3 Bft) 100,00 %
13.05.2016 06:15 9,9 C 96 % 993,8 hPa 0,2 l/m 13,0 km/h (3 Bft) SW 236 0 min 0,000 mm 0,0 UV-I 5 W/m 9,3 C 5,9 C 17,7 km/h (3 Bft) 100,00 %
13.05.2016 06:16 9,9 C 96 % 993,9 hPa 0,0 l/m 10,8 km/h (2 Bft) S-SW 211 0 min 0,000 mm 0,0 UV-I 7 W/m 9,3 C 7,0 C 14,5 km/h (3 Bft) 100,00 %
13.05.2016 06:17 9,9 C 96 % 993,9 hPa 0,0 l/m 10,5 km/h (2 Bft) SW 234 0 min 0,000 mm 0,0 UV-I 7 W/m 9,3 C 7,2 C 12,9 km/h (3 Bft) 100,00 %
13.05.2016 06:18 9,9 C 96 % 993,9 hPa 0,0 l/m 11,6 km/h (2 Bft) SW 234 0 min 0,000 mm 0,0 UV-I 7 W/m 9,3 C 6,6 C 16,1 km/h (3 Bft) 100,00 %
13.05.2016 06:19 9,9 C 96 % 993,9 hPa 0,0 l/m 13,5 km/h (3 Bft) W-SW 240 0 min 0,000 mm 0,0 UV-I 7 W/m 9,3 C 5,7 C 19,3 km/h (3 Bft) 100,00 %
13.05.2016 06:20 9,9 C 96 % 993,8 hPa 0,0 l/m 13,4 km/h (3 Bft) SW 230 0 min 0,000 mm 0,0 UV-I 7 W/m 9,3 C 5,7 C 19,3 km/h (3 Bft) 100,00 %
13.05.2016 06:21 9,9 C 96 % 993,9 hPa 0,0 l/m 12,2 km/h (2 Bft) S-SW 212 0 min 0,000 mm 0,0 UV-I 7 W/m 9,3 C 6,3 C 19,3 km/h (3 Bft) 100,00 %
13.05.2016 06:22 9,9 C 96 % 993,9 hPa 0,2 l/m 10,9 km/h (2 Bft) SW 234 0 min 0,000 mm 0,0 UV-I 7 W/m 9,3 C 7,0 C 14,5 km/h (3 Bft) 100,00 %
13.05.2016 06:23 9,9 C 96 % 993,9 hPa 0,0 l/m 9,7 km/h (2 Bft) S-SW 212 0 min 0,000 mm 0,0 UV-I 7 W/m 9,3 C 7,7 C 14,5 km/h (3 Bft) 100,00 %
13.05.2016 06:24 9,9 C 96 % 993,8 hPa 0,0 l/m 11,9 km/h (2 Bft) W-SW 249 0 min 0,000 mm 0,0 UV-I 9 W/m 9,3 C 6,4 C 19,3 km/h (3 Bft) 100,00 %
13.05.2016 06:25 9,9 C 96 % 993,8 hPa 0,0 l/m 11,7 km/h (2 Bft) W-SW 238 0 min 0,000 mm 0,0 UV-I 9 W/m 9,3 C 6,6 C 16,1 km/h (3 Bft) 100,00 %
13.05.2016 06:26 9,9 C 96 % 993,8 hPa 0,0 l/m 12,7 km/h (3 Bft) W-SW 246 0 min 0,000 mm 0,0 UV-I 9 W/m 9,3 C 6,1 C 17,7 km/h (3 Bft) 100,00 %
13.05.2016 06:27 9,9 C 96 % 993,8 hPa 0,0 l/m 11,9 km/h (2 Bft) SW 236 0 min 0,000 mm 0,0 UV-I 9 W/m 9,3 C 6,4 C 17,7 km/h (3 Bft) 100,00 %
13.05.2016 06:28 9,9 C 96 % 993,9 hPa 0,2 l/m 10,0 km/h (2 Bft) SW 229 0 min 0,000 mm 0,0 UV-I 11 W/m 9,3 C 7,5 C 14,5 km/h (3 Bft) 100,00 %
13.05.2016 06:29 9,9 C 96 % 993,9 hPa 0,0 l/m 15,3 km/h (3 Bft) W-SW 256 0 min 0,000 mm 0,0 UV-I 11 W/m 9,3 C 4,9 C 19,3 km/h (3 Bft) 100,00 %
13.05.2016 06:30 9,9 C 96 % 993,8 hPa 0,0 l/m 13,1 km/h (3 Bft) SW 221 0 min 0,000 mm 0,0 UV-I 11 W/m 9,3 C 5,9 C 16,1 km/h (3 Bft) 100,00 %
13.05.2016 06:31 9,9 C 96 % 993,8 hPa 0,0 l/m 11,9 km/h (2 Bft) S-SW 208 0 min 0,000 mm 0,0 UV-I 11 W/m 9,3 C 6,4 C 14,5 km/h (3 Bft) 96,15 %
13.05.2016 06:32 9,9 C 96 % 993,8 hPa 0,2 l/m 12,1 km/h (2 Bft) SW 228 0 min 0,000 mm 0,0 UV-I 11 W/m 9,3 C 6,3 C 16,1 km/h (3 Bft) 96,67 %
13.05.2016 06:33 9,9 C 96 % 993,8 hPa 0,0 l/m 11,4 km/h (2 Bft) SW 231 0 min 0,000 mm 0,0 UV-I 11 W/m 9,3 C 6,7 C 14,5 km/h (3 Bft) 100,00 %
13.05.2016 06:34 9,9 C 96 % 993,8 hPa 0,0 l/m 13,0 km/h (3 Bft) W-SW 242 0 min 0,000 mm 0,0 UV-I 11 W/m 9,3 C 5,9 C 16,1 km/h (3 Bft) 100,00 %
13.05.2016 06:35 9,9 C 96 % 993,8 hPa 0,0 l/m 9,9 km/h (2 Bft) S-SW 208 0 min 0,000 mm 0,0 UV-I 12 W/m 9,3 C 7,5 C 12,9 km/h (3 Bft) 100,00 %
13.05.2016 06:36 9,9 C 96 % 993,7 hPa 0,0 l/m 9,7 km/h (2 Bft) W 272 0 min 0,000 mm 0,0 UV-I 12 W/m 9,3 C 7,7 C 14,5 km/h (3 Bft) 96,30 %
13.05.2016 06:37 10,0 C 96 % 993,7 hPa 0,0 l/m 11,9 km/h (2 Bft) S-SW 209 0 min 0,000 mm 0,0 UV-I 12 W/m 9,4 C 6,6 C 16,1 km/h (3 Bft) 100,00 %
13.05.2016 06:38 9,9 C 96 % 993,7 hPa 0,0 l/m 10,1 km/h (2 Bft) SW 236 0 min 0,000 mm 0,0 UV-I 12 W/m 9,3 C 7,4 C 14,5 km/h (3 Bft) 95,83 %
13.05.2016 06:39 9,9 C 96 % 993,7 hPa 0,0 l/m 15,5 km/h (3 Bft) W-SW 243 0 min 0,000 mm 0,0 UV-I 12 W/m 9,3 C 4,8 C 19,3 km/h (3 Bft) 100,00 %
13.05.2016 06:40 9,9 C 96 % 993,7 hPa 0,2 l/m 11,9 km/h (2 Bft) W-SW 245 0 min 0,000 mm 0,0 UV-I 12 W/m 9,3 C 6,4 C 16,1 km/h (3 Bft) 100,00 %
13.05.2016 06:41 9,9 C 96 % 993,8 hPa 0,0 l/m 12,0 km/h (2 Bft) SW 217 0 min 0,000 mm 0,0 UV-I 12 W/m 9,3 C 6,4 C 16,1 km/h (3 Bft) 100,00 %
13.05.2016 06:42 9,9 C 96 % 993,7 hPa 0,0 l/m 14,9 km/h (3 Bft) W-SW 251 0 min 0,000 mm 0,0 UV-I 12 W/m 9,3 C 5,1 C 17,7 km/h (3 Bft) 100,00 %
13.05.2016 06:43 9,9 C 96 % 993,7 hPa 0,0 l/m 12,6 km/h (3 Bft) SW 223 0 min 0,000 mm 0,0 UV-I 13 W/m 9,3 C 6,1 C 17,7 km/h (3 Bft) 100,00 %
13.05.2016 06:44 9,9 C 96 % 993,7 hPa 0,0 l/m 12,3 km/h (3 Bft) SW 215 0 min 0,000 mm 0,0 UV-I 14 W/m 9,3 C 6,2 C 17,7 km/h (3 Bft) 96,30 %
13.05.2016 06:45 9,9 C 96 % 993,7 hPa 0,2 l/m 12,8 km/h (3 Bft) S-SW 211 0 min 0,000 mm 0,0 UV-I 14 W/m 9,3 C 6,0 C 16,1 km/h (3 Bft) 93,33 %
13.05.2016 06:46 9,9 C 96 % 993,7 hPa 0,0 l/m 13,2 km/h (3 Bft) SW 224 0 min 0,000 mm 0,0 UV-I 14 W/m 9,3 C 5,8 C 19,3 km/h (3 Bft) 91,30 %
13.05.2016 06:47 9,9 C 96 % 993,7 hPa 0,0 l/m 10,4 km/h (2 Bft) SW 236 0 min 0,000 mm 0,0 UV-I 14 W/m 9,3 C 7,3 C 14,5 km/h (3 Bft) 96,30 %
13.05.2016 06:48 9,9 C 96 % 993,6 hPa 0,0 l/m 10,2 km/h (2 Bft) W-SW 241 0 min 0,000 mm 0,0 UV-I 14 W/m 9,3 C 7,4 C 14,5 km/h (3 Bft) 100,00 %
13.05.2016 06:49 9,9 C 96 % 993,7 hPa 0,0 l/m 9,2 km/h (2 Bft) SW 234 0 min 0,000 mm 0,0 UV-I 14 W/m 9,3 C 8,0 C 14,5 km/h (3 Bft) 96,97 %
13.05.2016 06:50 9,9 C 96 % 993,7 hPa 0,2 l/m 11,8 km/h (2 Bft) SW 216 0 min 0,000 mm 0,0 UV-I 15 W/m 9,3 C 6,5 C 16,1 km/h (3 Bft) 95,65 %
13.05.2016 06:51 9,9 C 96 % 993,6 hPa 0,0 l/m 11,7 km/h (2 Bft) SW 228 0 min 0,000 mm 0,0 UV-I 16 W/m 9,3 C 6,6 C 16,1 km/h (3 Bft) 100,00 %
13.05.2016 06:52 9,9 C 96 % 993,7 hPa 0,0 l/m 15,5 km/h (3 Bft) SW 215 0 min 0,000 mm 0,0 UV-I 16 W/m 9,3 C 4,8 C 20,9 km/h (4 Bft) 95,65 %
13.05.2016 06:53 10,0 C 96 % 993,6 hPa 0,0 l/m 13,3 km/h (3 Bft) SW 234 0 min 0,000 mm 0,0 UV-I 16 W/m 9,4 C 5,9 C 20,9 km/h (4 Bft) 95,83 %
13.05.2016 06:54 9,9 C 96 % 993,6 hPa 0,0 l/m 15,9 km/h (3 Bft) S-SW 205 0 min 0,000 mm 0,0 UV-I 16 W/m 9,3 C 4,6 C 22,5 km/h (4 Bft) 100,00 %
13.05.2016 06:55 9,9 C 96 % 993,6 hPa 0,2 l/m 11,2 km/h (2 Bft) SW 225 0 min 0,000 mm 0,0 UV-I 16 W/m 9,3 C 6,8 C 16,1 km/h (3 Bft) 100,00 %
13.05.2016 06:56 9,9 C 96 % 993,7 hPa 0,0 l/m 11,8 km/h (2 Bft) W-SW 250 0 min 0,000 mm 0,0 UV-I 16 W/m 9,3 C 6,5 C 16,1 km/h (3 Bft) 92,31 %
13.05.2016 06:57 9,9 C 96 % 993,7 hPa 0,0 l/m 12,4 km/h (3 Bft) SW 236 0 min 0,000 mm 0,0 UV-I 16 W/m 9,3 C 6,2 C 17,7 km/h (3 Bft) 96,30 %
13.05.2016 06:58 9,9 C 96 % 993,6 hPa 0,0 l/m 13,5 km/h (3 Bft) SW 226 0 min 0,000 mm 0,0 UV-I 16 W/m 9,3 C 5,7 C 19,3 km/h (3 Bft) 96,55 %
13.05.2016 06:59 9,9 C 96 % 993,7 hPa 0,2 l/m 12,4 km/h (3 Bft) SW 221 0 min 0,000 mm 0,0 UV-I 16 W/m 9,3 C 6,2 C 16,1 km/h (3 Bft) 91,67 %
13.05.2016 07:00 9,9 C 96 % 993,7 hPa 0,0 l/m 13,1 km/h (3 Bft) S-SW 210 0 min 0,000 mm 0,0 UV-I 16 W/m 9,3 C 5,9 C 19,3 km/h (3 Bft) 100,00 %
13.05.2016 07:01 9,9 C 96 % 993,7 hPa 0,0 l/m 12,2 km/h (2 Bft) SW 231 0 min 0,000 mm 0,0 UV-I 15 W/m 9,3 C 6,3 C 20,9 km/h (4 Bft) 96,67 %
13.05.2016 07:02 9,9 C 96 % 993,7 hPa 0,0 l/m 10,7 km/h (2 Bft) W 262 0 min 0,000 mm 0,0 UV-I 14 W/m 9,3 C 7,1 C 19,3 km/h (3 Bft) 86,96 %
13.05.2016 07:03 9,9 C 96 % 993,7 hPa 0,2 l/m 11,8 km/h (2 Bft) SW 232 0 min 0,000 mm 0,0 UV-I 14 W/m 9,3 C 6,5 C 14,5 km/h (3 Bft) 100,00 %
13.05.2016 07:04 10,0 C 96 % 993,7 hPa 0,0 l/m 9,8 km/h (2 Bft) W-SW 256 0 min 0,000 mm 0,0 UV-I 14 W/m 9,4 C 7,7 C 14,5 km/h (3 Bft) 97,14 %
13.05.2016 07:05 10,0 C 96 % 993,7 hPa 0,0 l/m 11,1 km/h (2 Bft) SW 225 0 min 0,000 mm 0,0 UV-I 15 W/m 9,4 C 7,0 C 14,5 km/h (3 Bft) 100,00 %
13.05.2016 07:06 10,0 C 96 % 993,7 hPa 0,0 l/m 15,1 km/h (3 Bft) SW 232 0 min 0,000 mm 0,0 UV-I 16 W/m 9,4 C 5,1 C 17,7 km/h (3 Bft) 96,67 %
13.05.2016 07:07 10,0 C 96 % 993,8 hPa 0,0 l/m 11,8 km/h (2 Bft) W-SW 241 0 min 0,000 mm 0,0 UV-I 16 W/m 9,4 C 6,6 C 19,3 km/h (3 Bft) 100,00 %
13.05.2016 07:08 9,9 C 96 % 993,7 hPa 0,2 l/m 6,1 km/h (2 Bft) SW 220 0 min 0,000 mm 0,0 UV-I 16 W/m 9,3 C 9,9 C 8,0 km/h (2 Bft) 96,30 %
13.05.2016 07:09 9,9 C 96 % 993,7 hPa 0,0 l/m 12,2 km/h (2 Bft) W 277 0 min 0,000 mm 0,0 UV-I 16 W/m 9,3 C 6,3 C 17,7 km/h (3 Bft) 96,15 %
13.05.2016 07:10 9,9 C 96 % 993,7 hPa 0,0 l/m 11,5 km/h (2 Bft) SW 224 0 min 0,000 mm 0,0 UV-I 17 W/m 9,3 C 6,7 C 14,5 km/h (3 Bft) 91,67 %
13.05.2016 07:11 9,9 C 96 % 993,8 hPa 0,2 l/m 11,7 km/h (2 Bft) W-SW 238 0 min 0,000 mm 0,0 UV-I 18 W/m 9,3 C 6,6 C 16,1 km/h (3 Bft) 96,88 %
13.05.2016 07:12 9,9 C 96 % 993,8 hPa 0,0 l/m 11,3 km/h (2 Bft) SW 219 0 min 0,000 mm 0,0 UV-I 18 W/m 9,3 C 6,8 C 14,5 km/h (3 Bft) 96,30 %
13.05.2016 07:13 10,0 C 96 % 993,8 hPa 0,0 l/m 10,8 km/h (2 Bft) W 265 0 min 0,000 mm 0,0 UV-I 19 W/m 9,4 C 7,1 C 16,1 km/h (3 Bft) 96,15 %
13.05.2016 07:14 10,0 C 96 % 993,9 hPa 0,2 l/m 11,9 km/h (2 Bft) W-SW 241 0 min 0,000 mm 0,0 UV-I 19 W/m 9,4 C 6,6 C 17,7 km/h (3 Bft) 100,00 %
13.05.2016 07:15 10,0 C 96 % 993,9 hPa 0,0 l/m 12,7 km/h (3 Bft) W-SW 239 0 min 0,000 mm 0,0 UV-I 19 W/m 9,4 C 6,2 C 17,7 km/h (3 Bft) 95,65 %
13.05.2016 07:16 10,0 C 96 % 993,8 hPa 0,2 l/m 13,7 km/h (3 Bft) SW 218 0 min 0,000 mm 0,0 UV-I 20 W/m 9,4 C 5,7 C 17,7 km/h (3 Bft) 96,30 %
13.05.2016 07:17 10,0 C 96 % 993,8 hPa 0,0 l/m 9,6 km/h (2 Bft) SW 236 0 min 0,000 mm 0,0 UV-I 21 W/m 9,4 C 7,8 C 12,9 km/h (3 Bft) 96,15 %
13.05.2016 07:18 10,0 C 96 % 993,9 hPa 0,0 l/m 13,9 km/h (3 Bft) W-SW 258 0 min 0,000 mm 0,0 UV-I 21 W/m 9,4 C 5,6 C 19,3 km/h (3 Bft) 100,00 %
13.05.2016 07:19 10,0 C 96 % 993,8 hPa 0,0 l/m 14,2 km/h (3 Bft) SW 228 0 min 0,000 mm 0,0 UV-I 21 W/m 9,4 C 5,5 C 16,1 km/h (3 Bft) 100,00 %
13.05.2016 07:20 9,9 C 96 % 993,8 hPa 0,2 l/m 11,8 km/h (2 Bft) W-SW 254 0 min 0,000 mm 0,0 UV-I 21 W/m 9,3 C 6,5 C 16,1 km/h (3 Bft) 100,00 %
13.05.2016 07:21 9,9 C 96 % 993,9 hPa 0,0 l/m 13,0 km/h (3 Bft) W-SW 238 0 min 0,000 mm 0,0 UV-I 21 W/m 9,3 C 5,9 C 16,1 km/h (3 Bft) 100,00 %
13.05.2016 07:22 9,9 C 96 % 993,8 hPa 0,0 l/m 10,8 km/h (2 Bft) W-SW 242 0 min 0,000 mm 0,0 UV-I 21 W/m 9,3 C 7,0 C 20,9 km/h (4 Bft) 100,00 %
13.05.2016 07:23 10,0 C 96 % 993,8 hPa 0,2 l/m 9,4 km/h (2 Bft) W-SW 247 0 min 0,000 mm 0,0 UV-I 21 W/m 9,4 C 8,0 C 12,9 km/h (3 Bft) 100,00 %
13.05.2016 07:24 9,9 C 96 % 993,8 hPa 0,0 l/m 10,3 km/h (2 Bft) W-SW 242 0 min 0,000 mm 0,0 UV-I 21 W/m 9,3 C 7,3 C 16,1 km/h (3 Bft) 95,83 %
13.05.2016 07:25 10,0 C 96 % 993,8 hPa 0,0 l/m 13,2 km/h (3 Bft) SW 231 0 min 0,000 mm 0,0 UV-I 21 W/m 9,4 C 5,9 C 17,7 km/h (3 Bft) 95,65 %
13.05.2016 07:26 9,9 C 96 % 993,8 hPa 0,0 l/m 11,2 km/h (2 Bft) W-SW 254 0 min 0,000 mm 0,0 UV-I 23 W/m 9,3 C 6,8 C 16,1 km/h (3 Bft) 100,00 %
13.05.2016 07:27 9,9 C 96 % 993,9 hPa 0,2 l/m 11,8 km/h (2 Bft) W-SW 247 0 min 0,000 mm 0,0 UV-I 25 W/m 9,3 C 6,5 C 16,1 km/h (3 Bft) 100,00 %
13.05.2016 07:28 10,0 C 96 % 993,8 hPa 0,0 l/m 11,6 km/h (2 Bft) SW 224 0 min 0,000 mm 0,0 UV-I 26 W/m 9,4 C 6,7 C 14,5 km/h (3 Bft) 100,00 %
13.05.2016 07:29 10,0 C 96 % 993,8 hPa 0,0 l/m 8,8 km/h (2 Bft) W-SW 248 0 min 0,000 mm 0,0 UV-I 29 W/m 9,4 C 8,3 C 12,9 km/h (3 Bft) 100,00 %
13.05.2016 07:30 10,0 C 96 % 993,8 hPa 0,0 l/m 10,2 km/h (2 Bft) W-SW 237 0 min 0,000 mm 0,0 UV-I 30 W/m 9,4 C 7,5 C 14,5 km/h (3 Bft) 100,00 %
13.05.2016 07:31 10,0 C 96 % 993,8 hPa 0,2 l/m 12,4 km/h (3 Bft) SW 220 0 min 0,000 mm 0,0 UV-I 30 W/m 9,4 C 6,3 C 14,5 km/h (3 Bft) 100,00 %
13.05.2016 07:32 10,0 C 96 % 993,9 hPa 0,0 l/m 7,5 km/h (2 Bft) SW 230 0 min 0,000 mm 0,0 UV-I 30 W/m 9,4 C 9,2 C 11,3 km/h (2 Bft) 100,00 %
13.05.2016 07:33 10,0 C 96 % 993,9 hPa 0,0 l/m 9,5 km/h (2 Bft) W-SW 251 0 min 0,000 mm 0,0 UV-I 30 W/m 9,4 C 7,9 C 12,9 km/h (3 Bft) 92,59 %
13.05.2016 07:34 10,0 C 96 % 993,9 hPa 0,0 l/m 12,5 km/h (3 Bft) SW 219 0 min 0,000 mm 0,0 UV-I 30 W/m 9,4 C 6,3 C 16,1 km/h (3 Bft) 90,91 %
13.05.2016 07:35 10,0 C 96 % 993,8 hPa 0,0 l/m 13,4 km/h (3 Bft) W-SW 248 0 min 0,000 mm 0,0 UV-I 30 W/m 9,4 C 5,8 C 17,7 km/h (3 Bft) 100,00 %
13.05.2016 07:36 10,0 C 96 % 993,8 hPa 0,2 l/m 12,3 km/h (3 Bft) W-SW 244 0 min 0,000 mm 0,0 UV-I 30 W/m 9,4 C 6,4 C 19,3 km/h (3 Bft) 96,15 %
13.05.2016 07:37 10,0 C 96 % 993,8 hPa 0,0 l/m 13,2 km/h (3 Bft) W-SW 254 0 min 0,000 mm 0,0 UV-I 30 W/m 9,4 C 5,9 C 17,7 km/h (3 Bft) 100,00 %
13.05.2016 07:38 10,0 C 96 % 993,9 hPa 0,0 l/m 9,7 km/h (2 Bft) SW 227 0 min 0,000 mm 0,0 UV-I 28 W/m 9,4 C 7,8 C 14,5 km/h (3 Bft) 100,00 %
13.05.2016 07:39 10,0 C 96 % 993,9 hPa 0,0 l/m 8,2 km/h (2 Bft) W-SW 243 0 min 0,000 mm 0,0 UV-I 28 W/m 9,4 C 8,7 C 12,9 km/h (3 Bft) 100,00 %
13.05.2016 07:40 10,0 C 96 % 993,9 hPa 0,2 l/m 9,5 km/h (2 Bft) W-SW 239 0 min 0,000 mm 0,0 UV-I 26 W/m 9,4 C 7,9 C 12,9 km/h (3 Bft) 100,00 %
13.05.2016 07:41 10,0 C 96 % 993,9 hPa 0,0 l/m 11,9 km/h (2 Bft) SW 230 0 min 0,000 mm 0,0 UV-I 25 W/m 9,4 C 6,6 C 16,1 km/h (3 Bft) 100,00 %
13.05.2016 07:42 10,0 C 96 % 993,8 hPa 0,0 l/m 10,5 km/h (2 Bft) SW 223 0 min 0,000 mm 0,0 UV-I 25 W/m 9,4 C 7,3 C 14,5 km/h (3 Bft) 100,00 %
13.05.2016 07:43 10,0 C 96 % 993,8 hPa 0,0 l/m 9,9 km/h (2 Bft) SW 223 0 min 0,000 mm 0,0 UV-I 26 W/m 9,4 C 7,7 C 14,5 km/h (3 Bft) 100,00 %
13.05.2016 07:44 10,1 C 96 % 993,8 hPa 0,0 l/m 10,9 km/h (2 Bft) W-SW 248 0 min 0,000 mm 0,0 UV-I 28 W/m 9,5 C 7,2 C 14,5 km/h (3 Bft) 100,00 %
13.05.2016 07:45 10,0 C 96 % 993,9 hPa 0,2 l/m 8,5 km/h (2 Bft) SW 236 0 min 0,000 mm 0,0 UV-I 32 W/m 9,4 C 8,5 C 11,3 km/h (2 Bft) 96,30 %
13.05.2016 07:46 10,1 C 96 % 993,9 hPa 0,0 l/m 11,4 km/h (2 Bft) W-SW 248 0 min 0,000 mm 0,0 UV-I 34 W/m 9,5 C 6,9 C 16,1 km/h (3 Bft) 100,00 %
13.05.2016 07:47 10,1 C 96 % 993,9 hPa 0,0 l/m 9,9 km/h (2 Bft) SW 223 0 min 0,000 mm 0,0 UV-I 35 W/m 9,5 C 7,8 C 14,5 km/h (3 Bft) 100,00 %
13.05.2016 07:48 10,1 C 96 % 993,9 hPa 0,2 l/m 9,6 km/h (2 Bft) W-SW 250 0 min 0,000 mm 0,0 UV-I 35 W/m 9,5 C 7,9 C 16,1 km/h (3 Bft) 98,42 %
13.05.2016 07:49 10,1 C 96 % 993,9 hPa 0,0 l/m 11,0 km/h (2 Bft) SW 234 0 min 0,000 mm 0,0 UV-I 35 W/m 9,5 C 7,1 C 19,3 km/h (3 Bft) 100,00 %
13.05.2016 07:50 10,1 C 96 % 993,9 hPa 0,0 l/m 8,4 km/h (2 Bft) S-SW 213 0 min 0,000 mm 0,0 UV-I 35 W/m 9,5 C 8,7 C 12,9 km/h (3 Bft) 100,00 %
13.05.2016 07:51 10,1 C 96 % 993,9 hPa 0,0 l/m 15,7 km/h (3 Bft) W-SW 240 0 min 0,000 mm 0,0 UV-I 34 W/m 9,5 C 5,0 C 22,5 km/h (4 Bft) 100,00 %
13.05.2016 07:52 10,1 C 96 % 993,9 hPa 0,0 l/m 13,5 km/h (3 Bft) SW 232 0 min 0,000 mm 0,0 UV-I 33 W/m 9,5 C 5,9 C 17,7 km/h (3 Bft) 100,00 %
13.05.2016 07:53 10,1 C 96 % 993,9 hPa 0,2 l/m 12,7 km/h (3 Bft) W 261 0 min 0,000 mm 0,0 UV-I 32 W/m 9,5 C 6,3 C 19,3 km/h (3 Bft) 100,00 %
13.05.2016 07:54 10,1 C 96 % 993,9 hPa 0,0 l/m 13,3 km/h (3 Bft) SW 234 0 min 0,000 mm 0,0 UV-I 30 W/m 9,5 C 6,0 C 17,7 km/h (3 Bft) 93,33 %
13.05.2016 07:55 10,1 C 96 % 993,9 hPa 0,0 l/m 12,4 km/h (3 Bft) SW 236 0 min 0,000 mm 0,0 UV-I 30 W/m 9,5 C 6,4 C 14,5 km/h (3 Bft) 100,00 %
13.05.2016 07:56 10,1 C 96 % 993,9 hPa 0,2 l/m 12,5 km/h (3 Bft) SW 225 0 min 0,000 mm 0,0 UV-I 30 W/m 9,5 C 6,4 C 14,5 km/h (3 Bft) 100,00 %
13.05.2016 07:57 10,1 C 96 % 993,9 hPa 0,0 l/m 10,8 km/h (2 Bft) SW 233 0 min 0,000 mm 0,0 UV-I 28 W/m 9,5 C 7,3 C 14,5 km/h (3 Bft) 100,00 %
13.05.2016 07:58 10,1 C 96 % 993,9 hPa 0,0 l/m 12,8 km/h (3 Bft) SW 235 0 min 0,000 mm 0,0 UV-I 29 W/m 9,5 C 6,2 C 16,1 km/h (3 Bft) 100,00 %
13.05.2016 07:59 10,1 C 96 % 993,9 hPa 0,0 l/m 11,3 km/h (2 Bft) W-SW 246 0 min 0,000 mm 0,0 UV-I 30 W/m 9,5 C 7,0 C 16,1 km/h (3 Bft) 100,00 %
13.05.2016 08:00 10,1 C 96 % 994,0 hPa 0,0 l/m 13,5 km/h (3 Bft) SW 226 0 min 0,025 mm 0,0 UV-I 30 W/m 9,5 C 5,9 C 20,9 km/h (4 Bft) 100,00 %
13.05.2016 08:02 10,1 C 96 % 993,9 hPa 0,2 l/m 13,7 km/h (3 Bft) SW 227 0 min 0,000 mm 0,0 UV-I 32 W/m 9,5 C 5,8 C 19,3 km/h (3 Bft) 100,00 %
13.05.2016 08:03 10,1 C 96 % 993,9 hPa 0,2 l/m 12,2 km/h (2 Bft) SW 227 0 min 0,000 mm 0,0 UV-I 36 W/m 9,5 C 6,5 C 16,1 km/h (3 Bft) 100,00 %
13.05.2016 08:04 10,1 C 96 % 993,9 hPa 0,0 l/m 11,9 km/h (2 Bft) SW 236 0 min 0,000 mm 0,0 UV-I 38 W/m 9,5 C 6,7 C 17,7 km/h (3 Bft) 100,00 %
13.05.2016 08:05 10,1 C 96 % 993,8 hPa 0,0 l/m 11,1 km/h (2 Bft) W 261 0 min 0,000 mm 0,0 UV-I 39 W/m 9,5 C 7,1 C 14,5 km/h (3 Bft) 100,00 %
13.05.2016 08:06 10,1 C 96 % 993,8 hPa 0,0 l/m 10,7 km/h (2 Bft) W-SW 256 0 min 0,000 mm 0,0 UV-I 40 W/m 9,5 C 7,3 C 12,9 km/h (3 Bft) 100,00 %
13.05.2016 08:07 10,1 C 96 % 993,8 hPa 0,0 l/m 13,4 km/h (3 Bft) S 190 0 min 0,000 mm 0,0 UV-I 42 W/m 9,5 C 6,0 C 17,7 km/h (3 Bft) 100,00 %
13.05.2016 08:08 10,1 C 96 % 993,9 hPa 0,2 l/m 10,4 km/h (2 Bft) S-SW 205 0 min 0,000 mm 0,0 UV-I 42 W/m 9,5 C 7,5 C 14,5 km/h (3 Bft) 100,00 %
13.05.2016 08:09 10,1 C 96 % 993,9 hPa 0,0 l/m 10,8 km/h (2 Bft) W-SW 238 0 min 0,000 mm 0,0 UV-I 42 W/m 9,5 C 7,3 C 14,5 km/h (3 Bft) 91,67 %
13.05.2016 08:10 10,1 C 96 % 993,9 hPa 0,0 l/m 11,4 km/h (2 Bft) W-SW 240 0 min 0,000 mm 0,0 UV-I 46 W/m 9,5 C 6,9 C 16,1 km/h (3 Bft) 100,00 %
13.05.2016 08:11 10,1 C 96 % 993,9 hPa 0,0 l/m 12,3 km/h (3 Bft) SW 235 0 min 0,000 mm 0,0 UV-I 49 W/m 9,5 C 6,5 C 19,3 km/h (3 Bft) 100,00 %
13.05.2016 08:12 10,1 C 96 % 993,8 hPa 0,0 l/m 11,7 km/h (2 Bft) SW 222 0 min 0,000 mm 0,0 UV-I 52 W/m 9,5 C 6,8 C 16,1 km/h (3 Bft) 100,00 %
13.05.2016 08:13 10,1 C 96 % 993,8 hPa 0,2 l/m 15,0 km/h (3 Bft) SW 225 0 min 0,000 mm 0,0 UV-I 53 W/m 9,5 C 5,3 C 22,5 km/h (4 Bft) 100,00 %
13.05.2016 08:14 10,1 C 96 % 993,9 hPa 0,0 l/m 17,5 km/h (3 Bft) SW 223 0 min 0,000 mm 0,0 UV-I 56 W/m 9,5 C 4,3 C 24,1 km/h (4 Bft) 100,00 %
13.05.2016 08:15 10,1 C 96 % 993,8 hPa 0,0 l/m 18,8 km/h (3 Bft) SW 234 0 min 0,000 mm 0,0 UV-I 58 W/m 9,5 C 3,8 C 25,7 km/h (4 Bft) 100,00 %
13.05.2016 08:16 10,1 C 96 % 993,8 hPa 0,0 l/m 17,1 km/h (3 Bft) SW 226 0 min 0,000 mm 0,0 UV-I 57 W/m 9,5 C 4,4 C 25,7 km/h (4 Bft) 100,00 %
13.05.2016 08:17 10,1 C 96 % 993,8 hPa 0,0 l/m 18,5 km/h (3 Bft) W-SW 240 0 min 0,000 mm 0,0 UV-I 55 W/m 9,5 C 3,9 C 24,1 km/h (4 Bft) 100,00 %
13.05.2016 08:18 10,1 C 96 % 993,8 hPa 0,0 l/m 17,2 km/h (3 Bft) W-SW 246 0 min 0,000 mm 0,0 UV-I 54 W/m 9,5 C 4,4 C 22,5 km/h (4 Bft) 100,00 %
13.05.2016 08:19 10,1 C 96 % 993,8 hPa 0,0 l/m 14,9 km/h (3 Bft) W-SW 242 0 min 0,000 mm 0,0 UV-I 53 W/m 9,5 C 5,3 C 19,3 km/h (3 Bft) 96,30 %
13.05.2016 08:20 10,2 C 96 % 993,8 hPa 0,0 l/m 13,4 km/h (3 Bft) SW 217 0 min 0,000 mm 0,0 UV-I 46 W/m 9,6 C 6,1 C 16,1 km/h (3 Bft) 100,00 %
13.05.2016 08:21 10,2 C 96 % 993,9 hPa 0,2 l/m 13,3 km/h (3 Bft) SW 223 0 min 0,000 mm 0,0 UV-I 44 W/m 9,6 C 6,1 C 22,5 km/h (4 Bft) 100,00 %
13.05.2016 08:22 10,2 C 96 % 993,9 hPa 0,0 l/m 13,9 km/h (3 Bft) W-SW 246 0 min 0,000 mm 0,0 UV-I 44 W/m 9,6 C 5,8 C 17,7 km/h (3 Bft) 100,00 %
13.05.2016 08:23 10,1 C 96 % 993,9 hPa 0,0 l/m 14,7 km/h (3 Bft) W-SW 247 0 min 0,000 mm 0,0 UV-I 46 W/m 9,5 C 5,4 C 17,7 km/h (3 Bft) 96,30 %
13.05.2016 08:24 10,2 C 96 % 993,9 hPa 0,0 l/m 14,7 km/h (3 Bft) SW 224 0 min 0,000 mm 0,0 UV-I 44 W/m 9,6 C 5,5 C 22,5 km/h (4 Bft) 100,00 %
13.05.2016 08:25 10,1 C 96 % 993,9 hPa 0,0 l/m 13,1 km/h (3 Bft) W-SW 238 0 min 0,000 mm 0,0 UV-I 44 W/m 9,5 C 6,1 C 17,7 km/h (3 Bft) 100,00 %
13.05.2016 08:26 10,2 C 96 % 993,9 hPa 0,2 l/m 13,7 km/h (3 Bft) SW 223 0 min 0,000 mm 0,0 UV-I 44 W/m 9,6 C 5,9 C 17,7 km/h (3 Bft) 95,83 %
13.05.2016 08:27 10,2 C 96 % 993,9 hPa 0,0 l/m 10,3 km/h (2 Bft) W-SW 239 0 min 0,000 mm 0,0 UV-I 42 W/m 9,6 C 7,6 C 14,5 km/h (3 Bft) 100,00 %
13.05.2016 08:28 10,2 C 96 % 993,9 hPa 0,0 l/m 16,6 km/h (3 Bft) W-SW 240 0 min 0,000 mm 0,0 UV-I 42 W/m 9,6 C 4,7 C 20,9 km/h (4 Bft) 100,00 %
13.05.2016 08:29 10,2 C 96 % 993,9 hPa 0,0 l/m 14,0 km/h (3 Bft) W-SW 248 0 min 0,000 mm 0,0 UV-I 43 W/m 9,6 C 5,8 C 17,7 km/h (3 Bft) 100,00 %
13.05.2016 08:30 10,1 C 96 % 993,9 hPa 0,0 l/m 10,0 km/h (2 Bft) SW 228 0 min 0,000 mm 0,0 UV-I 46 W/m 9,5 C 7,7 C 16,1 km/h (3 Bft) 100,00 %
13.05.2016 08:31 10,2 C 96 % 993,9 hPa 0,2 l/m 14,4 km/h (3 Bft) W-SW 242 0 min 0,000 mm 0,0 UV-I 47 W/m 9,6 C 5,6 C 19,3 km/h (3 Bft) 100,00 %
13.05.2016 08:32 10,2 C 96 % 993,9 hPa 0,0 l/m 13,0 km/h (3 Bft) W-SW 249 0 min 0,000 mm 0,0 UV-I 46 W/m 9,6 C 6,3 C 17,7 km/h (3 Bft) 100,00 %
13.05.2016 08:33 10,2 C 96 % 993,9 hPa 0,0 l/m 11,9 km/h (2 Bft) SW 228 0 min 0,000 mm 0,0 UV-I 44 W/m 9,6 C 6,8 C 17,7 km/h (3 Bft) 100,00 %
13.05.2016 08:34 10,1 C 96 % 993,9 hPa 0,2 l/m 10,9 km/h (2 Bft) W-SW 249 0 min 0,000 mm 0,0 UV-I 42 W/m 9,5 C 7,2 C 14,5 km/h (3 Bft) 100,00 %
13.05.2016 08:35 10,2 C 96 % 993,9 hPa 0,0 l/m 10,4 km/h (2 Bft) SW 236 0 min 0,000 mm 0,0 UV-I 42 W/m 9,6 C 7,6 C 14,5 km/h (3 Bft) 100,00 %
13.05.2016 08:36 10,2 C 96 % 993,9 hPa 0,0 l/m 13,4 km/h (3 Bft) W-SW 255 0 min 0,000 mm 0,0 UV-I 42 W/m 9,6 C 6,1 C 19,3 km/h (3 Bft) 100,00 %
13.05.2016 08:37 10,2 C 96 % 993,9 hPa 0,0 l/m 14,2 km/h (3 Bft) W-SW 248 0 min 0,000 mm 0,0 UV-I 42 W/m 9,6 C 5,7 C 19,3 km/h (3 Bft) 100,00 %
13.05.2016 08:38 10,2 C 96 % 994,0 hPa 0,0 l/m 12,2 km/h (2 Bft) W 260 0 min 0,000 mm 0,0 UV-I 43 W/m 9,6 C 6,6 C 16,1 km/h (3 Bft) 96,30 %
13.05.2016 08:39 10,2 C 96 % 994,0 hPa 0,0 l/m 12,8 km/h (3 Bft) W-SW 254 0 min 0,000 mm 0,0 UV-I 45 W/m 9,6 C 6,4 C 17,7 km/h (3 Bft) 100,00 %
13.05.2016 08:40 10,2 C 96 % 993,9 hPa 0,2 l/m 9,9 km/h (2 Bft) S-SW 201 0 min 0,000 mm 0,0 UV-I 47 W/m 9,6 C 7,9 C 14,5 km/h (3 Bft) 100,00 %
13.05.2016 08:41 10,2 C 96 % 993,9 hPa 0,0 l/m 12,1 km/h (2 Bft) W-SW 252 0 min 0,000 mm 0,0 UV-I 52 W/m 9,6 C 6,7 C 17,7 km/h (3 Bft) 100,00 %
13.05.2016 08:42 10,2 C 96 % 993,8 hPa 0,0 l/m 13,1 km/h (3 Bft) W-SW 255 0 min 0,000 mm 0,0 UV-I 60 W/m 9,6 C 6,2 C 17,7 km/h (3 Bft) 100,00 %
13.05.2016 08:43 10,2 C 96 % 993,9 hPa 0,0 l/m 11,7 km/h (2 Bft) W-SW 250 0 min 0,000 mm 0,0 UV-I 74 W/m 9,6 C 6,9 C 16,1 km/h (3 Bft) 100,00 %
13.05.2016 08:44 10,2 C 96 % 993,9 hPa 0,0 l/m 10,9 km/h (2 Bft) W-SW 256 0 min 0,000 mm 0,0 UV-I 86 W/m 9,6 C 7,3 C 14,5 km/h (3 Bft) 100,00 %
13.05.2016 08:45 10,2 C 96 % 993,9 hPa 0,0 l/m 11,1 km/h (2 Bft) W-SW 248 0 min 0,000 mm 0,0 UV-I 93 W/m 9,6 C 7,2 C 16,1 km/h (3 Bft) 96,30 %
13.05.2016 08:46 10,2 C 96 % 993,8 hPa 0,2 l/m 12,5 km/h (3 Bft) W-SW 252 0 min 0,000 mm 0,0 UV-I 95 W/m 9,6 C 6,5 C 16,1 km/h (3 Bft) 100,00 %
13.05.2016 08:47 10,2 C 96 % 993,9 hPa 0,0 l/m 9,3 km/h (2 Bft) SW 236 0 min 0,000 mm 0,0 UV-I 99 W/m 9,6 C 8,2 C 17,7 km/h (3 Bft) 96,67 %
13.05.2016 08:48 10,2 C 96 % 993,9 hPa 0,0 l/m 16,1 km/h (3 Bft) W-SW 254 0 min 0,000 mm 0,0 UV-I 102 W/m 9,6 C 4,9 C 20,9 km/h (4 Bft) 100,00 %
13.05.2016 08:49 10,2 C 96 % 993,9 hPa 0,0 l/m 19,0 km/h (3 Bft) W-SW 244 0 min 0,000 mm 0,0 UV-I 104 W/m 9,6 C 3,9 C 24,1 km/h (4 Bft) 96,77 %
13.05.2016 08:50 10,3 C 96 % 993,9 hPa 0,0 l/m 12,5 km/h (3 Bft) SW 236 0 min 0,000 mm 0,0 UV-I 104 W/m 9,7 C 6,6 C 19,3 km/h (3 Bft) 95,65 %
13.05.2016 08:51 10,3 C 96 % 993,9 hPa 0,0 l/m 13,0 km/h (3 Bft) W-SW 238 0 min 0,000 mm 0,0 UV-I 103 W/m 9,7 C 6,4 C 19,3 km/h (3 Bft) 100,00 %
13.05.2016 08:52 10,3 C 96 % 993,9 hPa 0,2 l/m 16,4 km/h (3 Bft) W 265 0 min 0,000 mm 0,0 UV-I 97 W/m 9,7 C 4,9 C 19,3 km/h (3 Bft) 98,62 %
13.05.2016 08:53 10,3 C 96 % 993,9 hPa 0,0 l/m 12,0 km/h (2 Bft) W 269 0 min 0,000 mm 0,0 UV-I 89 W/m 9,7 C 6,9 C 17,7 km/h (3 Bft) 97,56 %
13.05.2016 08:54 10,3 C 96 % 994,0 hPa 0,0 l/m 10,5 km/h (2 Bft) SW 236 0 min 0,000 mm 0,0 UV-I 86 W/m 9,7 C 7,6 C 16,1 km/h (3 Bft) 92,31 %
13.05.2016 08:55 10,3 C 96 % 993,9 hPa 0,0 l/m 12,2 km/h (2 Bft) W-SW 250 0 min 0,000 mm 0,0 UV-I 86 W/m 9,7 C 6,8 C 17,7 km/h (3 Bft) 96,30 %
13.05.2016 08:56 10,3 C 96 % 994,0 hPa 0,0 l/m 10,0 km/h (2 Bft) W-SW 250 0 min 0,000 mm 0,0 UV-I 86 W/m 9,7 C 7,9 C 12,9 km/h (3 Bft) 100,00 %
13.05.2016 08:57 10,3 C 96 % 994,0 hPa 0,2 l/m 12,7 km/h (3 Bft) S-SW 201 0 min 0,000 mm 0,0 UV-I 89 W/m 9,7 C 6,5 C 14,5 km/h (3 Bft) 91,67 %
13.05.2016 08:58 10,3 C 96 % 993,9 hPa 0,0 l/m 13,0 km/h (3 Bft) SW 234 0 min 0,000 mm 0,0 UV-I 97 W/m 9,7 C 6,4 C 20,9 km/h (4 Bft) 100,00 %
13.05.2016 08:59 10,3 C 96 % 993,9 hPa 0,0 l/m 13,8 km/h (3 Bft) W 271 0 min 0,000 mm 0,0 UV-I 103 W/m 9,7 C 6,0 C 17,7 km/h (3 Bft) 93,33 %
13.05.2016 09:00 10,3 C 96 % 993,9 hPa 0,0 l/m 13,6 km/h (3 Bft) W 261 0 min 0,000 mm 0,3 UV-I 105 W/m 9,7 C 6,1 C 19,3 km/h (3 Bft) 100,00 %
13.05.2016 09:01 10,3 C 96 % 993,9 hPa 0,0 l/m 14,6 km/h (3 Bft) SW 219 0 min 0,026 mm 0,5 UV-I 106 W/m 9,7 C 5,7 C 19,3 km/h (3 Bft) 92,59 %
13.05.2016 09:02 10,3 C 96 % 993,9 hPa 0,0 l/m 14,2 km/h (3 Bft) SW 229 0 min 0,000 mm 0,4 UV-I 108 W/m 9,7 C 5,8 C 17,7 km/h (3 Bft) 96,55 %
13.05.2016 09:03 10,3 C 96 % 993,9 hPa 0,0 l/m 14,1 km/h (3 Bft) W-SW 248 0 min 0,000 mm 0,0 UV-I 101 W/m 9,7 C 5,9 C 20,9 km/h (4 Bft) 100,00 %
13.05.2016 09:04 10,3 C 96 % 993,9 hPa 0,2 l/m 15,0 km/h (3 Bft) SW 217 0 min 0,000 mm 0,0 UV-I 98 W/m 9,7 C 5,5 C 19,3 km/h (3 Bft) 95,65 %
13.05.2016 09:05 10,3 C 96 % 993,9 hPa 0,0 l/m 13,1 km/h (3 Bft) SW 234 0 min 0,000 mm 0,0 UV-I 96 W/m 9,7 C 6,3 C 17,7 km/h (3 Bft) 100,00 %
13.05.2016 09:06 10,3 C 96 % 993,9 hPa 0,0 l/m 12,7 km/h (3 Bft) W-SW 241 0 min 0,000 mm 0,0 UV-I 93 W/m 9,7 C 6,5 C 19,3 km/h (3 Bft) 91,30 %
13.05.2016 09:07 10,3 C 96 % 993,9 hPa 0,0 l/m 12,7 km/h (3 Bft) SW 229 0 min 0,000 mm 0,0 UV-I 89 W/m 9,7 C 6,5 C 17,7 km/h (3 Bft) 100,00 %
13.05.2016 09:08 10,3 C 96 % 993,9 hPa 0,0 l/m 12,4 km/h (3 Bft) W-SW 257 0 min 0,000 mm 0,0 UV-I 82 W/m 9,7 C 6,7 C 16,1 km/h (3 Bft) 91,67 %
13.05.2016 09:09 10,3 C 96 % 993,9 hPa 0,0 l/m 12,8 km/h (3 Bft) W 259 0 min 0,000 mm 0,0 UV-I 80 W/m 9,7 C 6,5 C 17,7 km/h (3 Bft) 100,00 %
13.05.2016 09:10 10,3 C 96 % 993,9 hPa 0,0 l/m 16,1 km/h (3 Bft) SW 229 0 min 0,000 mm 0,0 UV-I 80 W/m 9,7 C 5,1 C 22,5 km/h (4 Bft) 96,67 %
13.05.2016 09:11 10,3 C 96 % 993,9 hPa 0,0 l/m 16,6 km/h (3 Bft) SW 232 0 min 0,000 mm 0,0 UV-I 78 W/m 9,7 C 4,9 C 19,3 km/h (3 Bft) 90,91 %
13.05.2016 09:12 10,3 C 96 % 993,9 hPa 0,0 l/m 11,9 km/h (2 Bft) W-SW 248 0 min 0,000 mm 0,0 UV-I 84 W/m 9,7 C 6,9 C 16,1 km/h (3 Bft) 96,67 %
13.05.2016 09:13 10,3 C 96 % 993,9 hPa 0,0 l/m 9,3 km/h (2 Bft) W-SW 238 0 min 0,000 mm 0,0 UV-I 85 W/m 9,7 C 8,3 C 14,5 km/h (3 Bft) 91,30 %
13.05.2016 09:14 10,3 C 96 % 993,9 hPa 0,2 l/m 9,9 km/h (2 Bft) S-SW 200 0 min 0,000 mm 0,0 UV-I 80 W/m 9,7 C 8,0 C 14,5 km/h (3 Bft) 100,00 %
13.05.2016 09:15 10,4 C 96 % 994,0 hPa 0,0 l/m 12,8 km/h (3 Bft) W-SW 247 0 min 0,000 mm 0,0 UV-I 74 W/m 9,8 C 6,6 C 16,1 km/h (3 Bft) 96,15 %
13.05.2016 09:16 10,4 C 96 % 994,0 hPa 0,0 l/m 10,6 km/h (2 Bft) W 278 0 min 0,000 mm 0,0 UV-I 68 W/m 9,8 C 7,7 C 16,1 km/h (3 Bft) 100,00 %
13.05.2016 09:17 10,3 C 96 % 994,1 hPa 0,0 l/m 13,4 km/h (3 Bft) W-SW 244 0 min 0,000 mm 0,0 UV-I 65 W/m 9,7 C 6,2 C 17,7 km/h (3 Bft) 96,15 %
13.05.2016 09:18 10,4 C 96 % 994,0 hPa 0,0 l/m 11,7 km/h (2 Bft) SW 223 0 min 0,000 mm 0,0 UV-I 70 W/m 9,8 C 7,1 C 19,3 km/h (3 Bft) 100,00 %
13.05.2016 09:19 10,4 C 96 % 994,0 hPa 0,0 l/m 9,8 km/h (2 Bft) W-SW 254 0 min 0,000 mm 0,0 UV-I 78 W/m 9,8 C 8,2 C 14,5 km/h (3 Bft) 95,65 %
13.05.2016 09:20 10,4 C 96 % 994,0 hPa 0,2 l/m 12,5 km/h (3 Bft) W 267 0 min 0,000 mm 0,0 UV-I 92 W/m 9,8 C 6,7 C 16,1 km/h (3 Bft) 96,30 %
13.05.2016 09:21 10,4 C 96 % 994,0 hPa 0,0 l/m 8,9 km/h (2 Bft) W 263 0 min 0,000 mm 0,1 UV-I 104 W/m 9,8 C 8,7 C 14,5 km/h (3 Bft) 100,00 %
13.05.2016 09:22 10,4 C 96 % 994,0 hPa 0,0 l/m 7,4 km/h (2 Bft) W-SW 240 0 min 0,000 mm 0,5 UV-I 112 W/m 9,8 C 9,7 C 11,3 km/h (2 Bft) 100,00 %
13.05.2016 09:23 10,4 C 96 % 994,0 hPa 0,0 l/m 11,3 km/h (2 Bft) W-SW 256 0 min 0,000 mm 0,5 UV-I 112 W/m 9,8 C 7,3 C 16,1 km/h (3 Bft) 100,00 %
13.05.2016 09:24 10,4 C 96 % 994,1 hPa 0,0 l/m 14,4 km/h (3 Bft) W-SW 251 0 min 0,000 mm 0,5 UV-I 111 W/m 9,8 C 5,9 C 17,7 km/h (3 Bft) 100,00 %
13.05.2016 09:25 10,4 C 96 % 994,0 hPa 0,2 l/m 12,6 km/h (3 Bft) SW 225 0 min 0,000 mm 0,5 UV-I 113 W/m 9,8 C 6,7 C 17,7 km/h (3 Bft) 96,30 %
13.05.2016 09:26 10,4 C 96 % 994,0 hPa 0,0 l/m 10,5 km/h (2 Bft) SW 235 0 min 0,000 mm 0,5 UV-I 112 W/m 9,8 C 7,8 C 16,1 km/h (3 Bft) 92,86 %
13.05.2016 09:27 10,4 C 96 % 994,1 hPa 0,0 l/m 11,6 km/h (2 Bft) W 281 0 min 0,000 mm 0,5 UV-I 107 W/m 9,8 C 7,2 C 16,1 km/h (3 Bft) 100,00 %
13.05.2016 09:28 10,4 C 96 % 994,1 hPa 0,0 l/m 10,5 km/h (2 Bft) W-SW 243 0 min 0,000 mm 0,5 UV-I 103 W/m 9,8 C 7,8 C 14,5 km/h (3 Bft) 100,00 %
13.05.2016 09:29 10,4 C 96 % 994,1 hPa 0,0 l/m 15,2 km/h (3 Bft) W 264 0 min 0,000 mm 0,5 UV-I 100 W/m 9,8 C 5,5 C 19,3 km/h (3 Bft) 96,30 %
13.05.2016 09:30 10,4 C 96 % 994,1 hPa 0,0 l/m 9,1 km/h (2 Bft) W 267 0 min 0,000 mm 0,0 UV-I 98 W/m 9,8 C 8,6 C 14,5 km/h (3 Bft) 100,00 %
13.05.2016 09:31 10,4 C 96 % 994,1 hPa 0,0 l/m 11,5 km/h (2 Bft) SW 217 0 min 0,000 mm 0,0 UV-I 90 W/m 9,8 C 7,2 C 16,1 km/h (3 Bft) 100,00 %
13.05.2016 09:32 10,4 C 96 % 994,1 hPa 0,0 l/m 15,4 km/h (3 Bft) W-SW 254 0 min 0,000 mm 0,0 UV-I 89 W/m 9,8 C 5,5 C 19,3 km/h (3 Bft) 100,00 %
13.05.2016 09:33 10,5 C 96 % 994,1 hPa 0,0 l/m 12,7 km/h (3 Bft) W-SW 255 0 min 0,000 mm 0,0 UV-I 93 W/m 9,9 C 6,8 C 16,1 km/h (3 Bft) 100,00 %
13.05.2016 09:34 10,5 C 96 % 994,1 hPa 0,0 l/m 7,5 km/h (2 Bft) W-SW 240 0 min 0,000 mm 0,4 UV-I 105 W/m 9,9 C 9,7 C 9,7 km/h (2 Bft) 100,00 %
13.05.2016 09:35 10,5 C 96 % 994,0 hPa 0,0 l/m 11,7 km/h (2 Bft) W-SW 251 0 min 0,000 mm 0,6 UV-I 117 W/m 9,9 C 7,2 C 19,3 km/h (3 Bft) 95,83 %
13.05.2016 09:36 10,6 C 96 % 994,0 hPa 0,0 l/m 12,9 km/h (3 Bft) W 263 0 min 0,000 mm 0,6 UV-I 124 W/m 10,0 C 6,8 C 17,7 km/h (3 Bft) 100,00 %
13.05.2016 09:37 10,6 C 96 % 994,0 hPa 0,0 l/m 10,5 km/h (2 Bft) SW 236 0 min 0,000 mm 0,6 UV-I 126 W/m 10,0 C 8,0 C 16,1 km/h (3 Bft) 100,00 %
13.05.2016 09:38 10,6 C 96 % 994,0 hPa 0,0 l/m 9,5 km/h (2 Bft) W-SW 250 0 min 0,000 mm 0,6 UV-I 124 W/m 10,0 C 8,5 C 14,5 km/h (3 Bft) 100,00 %
13.05.2016 09:39 10,6 C 96 % 994,0 hPa 0,0 l/m 15,0 km/h (3 Bft) SW 234 0 min 0,000 mm 0,6 UV-I 123 W/m 10,0 C 5,9 C 22,5 km/h (4 Bft) 100,00 %
13.05.2016 09:40 10,6 C 96 % 994,0 hPa 0,0 l/m 11,6 km/h (2 Bft) W-SW 252 0 min 0,000 mm 0,5 UV-I 117 W/m 10,0 C 7,4 C 16,1 km/h (3 Bft) 100,00 %
13.05.2016 09:41 10,6 C 96 % 994,0 hPa 0,0 l/m 12,2 km/h (2 Bft) W 263 0 min 0,000 mm 0,5 UV-I 113 W/m 10,0 C 7,1 C 16,1 km/h (3 Bft) 96,30 %
13.05.2016 09:42 10,6 C 96 % 994,0 hPa 0,2 l/m 13,5 km/h (3 Bft) W 267 0 min 0,000 mm 0,5 UV-I 109 W/m 10,0 C 6,5 C 19,3 km/h (3 Bft) 100,00 %
13.05.2016 09:43 10,6 C 96 % 993,9 hPa 0,0 l/m 14,9 km/h (3 Bft) W-SW 254 0 min 0,000 mm 0,5 UV-I 107 W/m 10,0 C 5,9 C 17,7 km/h (3 Bft) 100,00 %
13.05.2016 09:44 10,6 C 96 % 993,9 hPa 0,0 l/m 16,4 km/h (3 Bft) W-SW 256 0 min 0,000 mm 0,5 UV-I 113 W/m 10,0 C 5,3 C 24,1 km/h (4 Bft) 93,33 %
13.05.2016 09:45 10,6 C 96 % 993,9 hPa 0,0 l/m 11,3 km/h (2 Bft) W 268 0 min 0,000 mm 0,6 UV-I 119 W/m 10,0 C 7,6 C 19,3 km/h (3 Bft) 100,00 %
13.05.2016 09:46 10,6 C 96 % 993,9 hPa 0,0 l/m 10,3 km/h (2 Bft) W-SW 254 0 min 0,000 mm 0,6 UV-I 127 W/m 10,0 C 8,1 C 14,5 km/h (3 Bft) 100,00 %
13.05.2016 09:47 10,7 C 96 % 993,9 hPa 0,0 l/m 10,8 km/h (2 Bft) SW 217 0 min 0,000 mm 0,6 UV-I 130 W/m 10,1 C 7,9 C 17,7 km/h (3 Bft) 100,00 %
13.05.2016 09:48 10,7 C 96 % 993,9 hPa 0,0 l/m 12,8 km/h (3 Bft) SW 236 0 min 0,000 mm 0,6 UV-I 135 W/m 10,1 C 6,9 C 17,7 km/h (3 Bft) 100,00 %
13.05.2016 09:49 10,7 C 96 % 993,9 hPa 0,2 l/m 13,7 km/h (3 Bft) W-SW 242 0 min 0,000 mm 0,7 UV-I 138 W/m 10,1 C 6,5 C 17,7 km/h (3 Bft) 100,00 %
13.05.2016 09:50 10,7 C 96 % 993,9 hPa 0,0 l/m 12,1 km/h (2 Bft) W-SW 254 0 min 0,000 mm 0,7 UV-I 139 W/m 10,1 C 7,3 C 17,7 km/h (3 Bft) 100,00 %
13.05.2016 09:51 10,7 C 96 % 993,9 hPa 0,0 l/m 11,3 km/h (2 Bft) W-SW 254 0 min 0,000 mm 0,7 UV-I 138 W/m 10,1 C 7,7 C 16,1 km/h (3 Bft) 100,00 %
13.05.2016 09:52 10,7 C 96 % 994,0 hPa 0,0 l/m 11,8 km/h (2 Bft) W-SW 250 0 min 0,000 mm 0,6 UV-I 135 W/m 10,1 C 7,4 C 16,1 km/h (3 Bft) 100,00 %
13.05.2016 09:53 10,7 C 96 % 994,0 hPa 0,0 l/m 10,0 km/h (2 Bft) SW 232 0 min 0,000 mm 0,6 UV-I 128 W/m 10,1 C 8,4 C 12,9 km/h (3 Bft) 100,00 %
13.05.2016 09:54 10,7 C 96 % 994,0 hPa 0,0 l/m 8,7 km/h (2 Bft) W-SW 247 0 min 0,000 mm 0,6 UV-I 120 W/m 10,1 C 9,1 C 14,5 km/h (3 Bft) 100,00 %
13.05.2016 09:55 10,7 C 96 % 994,0 hPa 0,0 l/m 10,2 km/h (2 Bft) SW 224 0 min 0,000 mm 0,6 UV-I 116 W/m 10,1 C 8,3 C 12,9 km/h (3 Bft) 92,31 %
13.05.2016 09:56 10,7 C 96 % 994,1 hPa 0,0 l/m 13,0 km/h (3 Bft) W-SW 252 0 min 0,000 mm 0,6 UV-I 109 W/m 10,1 C 6,8 C 19,3 km/h (3 Bft) 96,30 %
13.05.2016 09:57 10,7 C 96 % 994,1 hPa 0,0 l/m 10,5 km/h (2 Bft) SW 226 0 min 0,000 mm 0,5 UV-I 100 W/m 10,1 C 8,1 C 12,9 km/h (3 Bft) 100,00 %
13.05.2016 09:58 10,7 C 96 % 994,1 hPa 0,0 l/m 10,1 km/h (2 Bft) SW 232 0 min 0,000 mm 0,5 UV-I 93 W/m 10,1 C 8,3 C 17,7 km/h (3 Bft) 100,00 %
13.05.2016 09:59 10,7 C 96 % 994,1 hPa 0,0 l/m 15,3 km/h (3 Bft) S-SW 213 0 min 0,000 mm 0,1 UV-I 86 W/m 10,1 C 5,9 C 19,3 km/h (3 Bft) 100,00 %
13.05.2016 10:00 10,7 C 96 % 994,1 hPa 0,0 l/m 12,8 km/h (3 Bft) W-SW 257 0 min 0,000 mm 0,0 UV-I 83 W/m 10,1 C 6,9 C 16,1 km/h (3 Bft) 100,00 %
13.05.2016 10:02 10,7 C 96 % 994,2 hPa 0,0 l/m 9,9 km/h (2 Bft) W-SW 252 0 min 0,051 mm 0,0 UV-I 73 W/m 10,1 C 8,4 C 16,1 km/h (3 Bft) 98,21 %
13.05.2016 10:03 10,7 C 96 % 994,2 hPa 0,2 l/m 12,0 km/h (2 Bft) SW 236 0 min 0,000 mm 0,0 UV-I 71 W/m 10,1 C 7,3 C 16,1 km/h (3 Bft) 100,00 %
13.05.2016 10:04 10,7 C 96 % 994,2 hPa 0,0 l/m 11,7 km/h (2 Bft) W-SW 238 0 min 0,000 mm 0,0 UV-I 79 W/m 10,1 C 7,5 C 17,7 km/h (3 Bft) 100,00 %
13.05.2016 10:05 10,7 C 96 % 994,2 hPa 0,0 l/m 12,5 km/h (3 Bft) W-SW 253 0 min 0,000 mm 0,4 UV-I 86 W/m 10,1 C 7,1 C 19,3 km/h (3 Bft) 100,00 %
13.05.2016 10:06 10,7 C 96 % 994,2 hPa 0,0 l/m 13,3 km/h (3 Bft) W-SW 255 0 min 0,000 mm 0,4 UV-I 91 W/m 10,1 C 6,7 C 19,3 km/h (3 Bft) 96,15 %
13.05.2016 10:07 10,7 C 96 % 994,2 hPa 0,0 l/m 7,7 km/h (2 Bft) SW 233 0 min 0,000 mm 0,0 UV-I 88 W/m 10,1 C 9,8 C 9,7 km/h (2 Bft) 100,00 %
13.05.2016 10:08 10,7 C 96 % 994,3 hPa 0,0 l/m 8,8 km/h (2 Bft) W 260 0 min 0,000 mm 0,0 UV-I 87 W/m 10,1 C 9,1 C 12,9 km/h (3 Bft) 100,00 %
13.05.2016 10:09 10,7 C 96 % 994,3 hPa 0,2 l/m 9,5 km/h (2 Bft) SW 220 0 min 0,000 mm 0,2 UV-I 89 W/m 10,1 C 8,7 C 14,5 km/h (3 Bft) 100,00 %
13.05.2016 10:10 10,7 C 96 % 994,3 hPa 0,0 l/m 12,3 km/h (3 Bft) S-SW 196 0 min 0,000 mm 0,5 UV-I 98 W/m 10,1 C 7,2 C 16,1 km/h (3 Bft) 96,88 %
13.05.2016 10:11 10,7 C 96 % 994,3 hPa 0,0 l/m 11,5 km/h (2 Bft) W 259 0 min 0,000 mm 0,6 UV-I 116 W/m 10,1 C 7,6 C 14,5 km/h (3 Bft) 100,00 %
13.05.2016 10:12 10,7 C 96 % 994,2 hPa 0,0 l/m 13,1 km/h (3 Bft) S-SW 213 0 min 0,000 mm 0,7 UV-I 130 W/m 10,1 C 6,8 C 19,3 km/h (3 Bft) 100,00 %
13.05.2016 10:13 10,7 C 96 % 994,2 hPa 0,0 l/m 14,2 km/h (3 Bft) W-SW 247 0 min 0,000 mm 0,7 UV-I 141 W/m 10,1 C 6,3 C 19,3 km/h (3 Bft) 100,00 %
13.05.2016 10:14 10,7 C 96 % 994,1 hPa 0,2 l/m 14,9 km/h (3 Bft) SW 230 0 min 0,000 mm 0,7 UV-I 142 W/m 10,1 C 6,0 C 17,7 km/h (3 Bft) 100,00 %
13.05.2016 10:15 10,7 C 96 % 994,1 hPa 0,0 l/m 11,6 km/h (2 Bft) SW 225 0 min 0,000 mm 0,7 UV-I 140 W/m 10,1 C 7,5 C 16,1 km/h (3 Bft) 100,00 %
13.05.2016 10:16 10,7 C 96 % 994,1 hPa 0,0 l/m 10,3 km/h (2 Bft) S-SW 208 0 min 0,000 mm 0,7 UV-I 133 W/m 10,1 C 8,2 C 12,9 km/h (3 Bft) 95,65 %
13.05.2016 10:17 10,7 C 96 % 994,1 hPa 0,0 l/m 11,2 km/h (2 Bft) W-SW 244 0 min 0,000 mm 0,7 UV-I 127 W/m 10,1 C 7,7 C 16,1 km/h (3 Bft) 95,83 %
13.05.2016 10:18 10,8 C 96 % 994,1 hPa 0,0 l/m 11,1 km/h (2 Bft) S-SW 213 0 min 0,000 mm 0,6 UV-I 121 W/m 10,2 C 7,9 C 14,5 km/h (3 Bft) 100,00 %
13.05.2016 10:19 10,8 C 96 % 994,1 hPa 0,2 l/m 8,9 km/h (2 Bft) SW 226 0 min 0,000 mm 0,6 UV-I 113 W/m 10,2 C 9,1 C 12,9 km/h (3 Bft) 100,00 %
13.05.2016 10:20 10,8 C 96 % 994,1 hPa 0,0 l/m 9,9 km/h (2 Bft) SW 229 0 min 0,000 mm 0,6 UV-I 107 W/m 10,2 C 8,5 C 14,5 km/h (3 Bft) 100,00 %
13.05.2016 10:21 10,8 C 96 % 994,2 hPa 0,0 l/m 8,3 km/h (2 Bft) W-SW 241 0 min 0,000 mm 0,5 UV-I 97 W/m 10,2 C 9,5 C 12,9 km/h (3 Bft) 100,00 %
13.05.2016 10:22 10,8 C 96 % 994,2 hPa 0,0 l/m 10,9 km/h (2 Bft) SW 236 0 min 0,000 mm 0,5 UV-I 92 W/m 10,2 C 8,0 C 16,1 km/h (3 Bft) 100,00 %
13.05.2016 10:23 10,8 C 96 % 994,2 hPa 0,0 l/m 13,5 km/h (3 Bft) W-SW 257 0 min 0,000 mm 0,5 UV-I 92 W/m 10,2 C 6,7 C 20,9 km/h (4 Bft) 100,00 %
13.05.2016 10:24 10,8 C 96 % 994,2 hPa 0,0 l/m 14,9 km/h (3 Bft) SW 231 0 min 0,000 mm 0,5 UV-I 88 W/m 10,2 C 6,1 C 19,3 km/h (3 Bft) 100,00 %
13.05.2016 10:25 10,8 C 96 % 994,2 hPa 0,0 l/m 15,6 km/h (3 Bft) W 274 0 min 0,000 mm 0,0 UV-I 82 W/m 10,2 C 5,9 C 20,9 km/h (4 Bft) 100,00 %
13.05.2016 10:26 10,7 C 96 % 994,2 hPa 0,0 l/m 12,7 km/h (3 Bft) W-SW 246 0 min 0,000 mm 0,0 UV-I 78 W/m 10,1 C 7,0 C 19,3 km/h (3 Bft) 100,00 %
13.05.2016 10:27 10,7 C 96 % 994,1 hPa 0,0 l/m 12,9 km/h (3 Bft) S-SW 213 0 min 0,000 mm 0,3 UV-I 84 W/m 10,1 C 6,9 C 17,7 km/h (3 Bft) 100,00 %
13.05.2016 10:28 10,7 C 96 % 994,1 hPa 0,0 l/m 10,2 km/h (2 Bft) SW 233 0 min 0,000 mm 0,5 UV-I 88 W/m 10,1 C 8,3 C 16,1 km/h (3 Bft) 100,00 %
13.05.2016 10:29 10,7 C 96 % 994,1 hPa 0,2 l/m 12,9 km/h (3 Bft) SW 224 0 min 0,000 mm 0,1 UV-I 85 W/m 10,1 C 6,9 C 17,7 km/h (3 Bft) 100,00 %
13.05.2016 10:30 10,7 C 96 % 994,1 hPa 0,0 l/m 11,6 km/h (2 Bft) W 271 0 min 0,000 mm 0,0 UV-I 67 W/m 10,1 C 7,5 C 16,1 km/h (3 Bft) 100,00 %
13.05.2016 10:31 10,7 C 96 % 994,2 hPa 0,0 l/m 10,0 km/h (2 Bft) W-SW 240 0 min 0,000 mm 0,0 UV-I 60 W/m 10,1 C 8,4 C 14,5 km/h (3 Bft) 100,00 %
13.05.2016 10:32 10,7 C 96 % 994,2 hPa 0,2 l/m 12,1 km/h (2 Bft) W-SW 254 0 min 0,000 mm 0,0 UV-I 53 W/m 10,1 C 7,3 C 17,7 km/h (3 Bft) 100,00 %
13.05.2016 10:33 10,7 C 96 % 994,3 hPa 0,0 l/m 5,7 km/h (1 Bft) W-SW 256 0 min 0,000 mm 0,0 UV-I 47 W/m 10,1 C 10,7 C 11,3 km/h (2 Bft) 96,15 %
13.05.2016 10:34 10,7 C 96 % 994,3 hPa 0,0 l/m 6,7 km/h (2 Bft) W 281 0 min 0,000 mm 0,0 UV-I 42 W/m 10,1 C 10,5 C 19,3 km/h (3 Bft) 100,00 %
13.05.2016 10:35 10,7 C 96 % 994,3 hPa 0,0 l/m 11,7 km/h (2 Bft) S-SW 200 0 min 0,000 mm 0,0 UV-I 45 W/m 10,1 C 7,5 C 19,3 km/h (3 Bft) 100,00 %
13.05.2016 10:36 10,7 C 96 % 994,3 hPa 0,0 l/m 9,8 km/h (2 Bft) S-SW 199 0 min 0,000 mm 0,0 UV-I 50 W/m 10,1 C 8,5 C 12,9 km/h (3 Bft) 100,00 %
13.05.2016 10:37 10,7 C 96 % 994,3 hPa 0,0 l/m 7,0 km/h (2 Bft) S-SW 210 0 min 0,000 mm 0,0 UV-I 52 W/m 10,1 C 10,3 C 11,3 km/h (2 Bft) 100,00 %
13.05.2016 10:38 10,7 C 96 % 994,4 hPa 0,0 l/m 8,3 km/h (2 Bft) W-SW 254 0 min 0,000 mm 0,0 UV-I 50 W/m 10,1 C 9,4 C 12,9 km/h (3 Bft) 100,00 %
13.05.2016 10:39 10,7 C 96 % 994,4 hPa 0,0 l/m 10,0 km/h (2 Bft) S-SW 201 0 min 0,000 mm 0,0 UV-I 46 W/m 10,1 C 8,4 C 14,5 km/h (3 Bft) 100,00 %
13.05.2016 10:40 10,7 C 96 % 994,4 hPa 0,0 l/m 16,1 km/h (3 Bft) SW 232 0 min 0,000 mm 0,0 UV-I 48 W/m 10,1 C 5,5 C 20,9 km/h (4 Bft) 100,00 %
13.05.2016 10:41 10,7 C 96 % 994,4 hPa 0,2 l/m 12,6 km/h (3 Bft) SW 234 0 min 0,000 mm 0,0 UV-I 52 W/m 10,1 C 7,0 C 16,1 km/h (3 Bft) 100,00 %
13.05.2016 10:42 10,7 C 96 % 994,4 hPa 0,0 l/m 9,8 km/h (2 Bft) SW 217 0 min 0,000 mm 0,0 UV-I 55 W/m 10,1 C 8,5 C 12,9 km/h (3 Bft) 100,00 %
13.05.2016 10:43 10,7 C 96 % 994,4 hPa 0,0 l/m 12,1 km/h (2 Bft) S 191 0 min 0,000 mm 0,0 UV-I 59 W/m 10,1 C 7,3 C 20,9 km/h (4 Bft) 100,00 %
13.05.2016 10:44 10,7 C 96 % 994,4 hPa 0,0 l/m 10,1 km/h (2 Bft) S 184 0 min 0,000 mm 0,0 UV-I 66 W/m 10,1 C 8,3 C 14,5 km/h (3 Bft) 97,56 %
13.05.2016 10:45 10,7 C 96 % 994,4 hPa 0,2 l/m 11,6 km/h (2 Bft) S-SW 206 0 min 0,000 mm 0,0 UV-I 69 W/m 10,1 C 7,5 C 16,1 km/h (3 Bft) 100,00 %
13.05.2016 10:46 10,7 C 96 % 994,3 hPa 0,0 l/m 10,3 km/h (2 Bft) S-SW 207 0 min 0,000 mm 0,0 UV-I 68 W/m 10,1 C 8,2 C 14,5 km/h (3 Bft) 95,65 %
13.05.2016 10:47 10,7 C 96 % 994,4 hPa 0,0 l/m 9,5 km/h (2 Bft) S-SW 207 0 min 0,000 mm 0,0 UV-I 65 W/m 10,1 C 8,7 C 12,9 km/h (3 Bft) 100,00 %
13.05.2016 10:48 10,7 C 96 % 994,4 hPa 0,0 l/m 11,6 km/h (2 Bft) S-SW 212 0 min 0,000 mm 0,0 UV-I 66 W/m 10,1 C 7,5 C 16,1 km/h (3 Bft) 100,00 %
13.05.2016 10:49 10,7 C 96 % 994,4 hPa 0,0 l/m 11,3 km/h (2 Bft) SW 234 0 min 0,000 mm 0,0 UV-I 68 W/m 10,1 C 7,7 C 19,3 km/h (3 Bft) 96,30 %
13.05.2016 10:50 10,7 C 96 % 994,4 hPa 0,0 l/m 12,1 km/h (2 Bft) SW 232 0 min 0,000 mm 0,0 UV-I 71 W/m 10,1 C 7,3 C 19,3 km/h (3 Bft) 95,65 %
13.05.2016 10:51 10,7 C 96 % 994,4 hPa 0,0 l/m 10,4 km/h (2 Bft) W-SW 240 0 min 0,000 mm 0,0 UV-I 80 W/m 10,1 C 8,1 C 14,5 km/h (3 Bft) 95,83 %
13.05.2016 10:52 10,7 C 96 % 994,4 hPa 0,0 l/m 10,1 km/h (2 Bft) SW 219 0 min 0,000 mm 0,0 UV-I 81 W/m 10,1 C 8,3 C 14,5 km/h (3 Bft) 86,96 %
13.05.2016 10:53 10,7 C 96 % 994,4 hPa 0,2 l/m 7,6 km/h (2 Bft) S 185 0 min 0,000 mm 0,5 UV-I 84 W/m 10,1 C 9,9 C 11,3 km/h (2 Bft) 96,30 %
13.05.2016 10:54 10,7 C 96 % 994,4 hPa 0,0 l/m 6,9 km/h (2 Bft) S-SW 196 0 min 0,000 mm 0,5 UV-I 83 W/m 10,1 C 10,4 C 11,3 km/h (2 Bft) 94,12 %
13.05.2016 10:55 10,8 C 96 % 994,4 hPa 0,0 l/m 11,0 km/h (2 Bft) S 172 0 min 0,000 mm 0,5 UV-I 84 W/m 10,2 C 7,9 C 16,1 km/h (3 Bft) 100,00 %
13.05.2016 10:56 10,8 C 96 % 994,4 hPa 0,0 l/m 14,0 km/h (3 Bft) S-SW 205 0 min 0,000 mm 0,5 UV-I 84 W/m 10,2 C 6,5 C 19,3 km/h (3 Bft) 96,15 %
13.05.2016 10:57 10,8 C 96 % 994,4 hPa 0,0 l/m 11,9 km/h (2 Bft) S-SW 208 0 min 0,000 mm 0,1 UV-I 83 W/m 10,2 C 7,5 C 14,5 km/h (3 Bft) 96,30 %
13.05.2016 10:58 10,8 C 96 % 994,4 hPa 0,2 l/m 8,6 km/h (2 Bft) S-SW 202 0 min 0,000 mm 0,5 UV-I 83 W/m 10,2 C 9,3 C 11,3 km/h (2 Bft) 93,33 %
13.05.2016 10:59 10,8 C 96 % 994,5 hPa 0,0 l/m 12,5 km/h (3 Bft) S-SW 207 0 min 0,000 mm 0,0 UV-I 82 W/m 10,2 C 7,2 C 16,1 km/h (3 Bft) 96,15 %
13.05.2016 11:00 10,8 C 96 % 994,4 hPa 0,0 l/m 10,7 km/h (2 Bft) SW 229 0 min 0,050 mm 0,0 UV-I 74 W/m 10,2 C 8,1 C 14,5 km/h (3 Bft) 100,00 %
13.05.2016 11:01 10,8 C 96 % 994,5 hPa 0,2 l/m 13,8 km/h (3 Bft) W-SW 238 0 min 0,000 mm 0,0 UV-I 65 W/m 10,2 C 6,6 C 20,9 km/h (4 Bft) 91,30 %
13.05.2016 11:02 10,8 C 96 % 994,5 hPa 0,0 l/m 13,3 km/h (3 Bft) SW 227 0 min 0,000 mm 0,0 UV-I 63 W/m 10,2 C 6,8 C 16,1 km/h (3 Bft) 100,00 %
13.05.2016 11:03 10,8 C 96 % 994,4 hPa 0,0 l/m 8,6 km/h (2 Bft) SW 227 0 min 0,000 mm 0,0 UV-I 65 W/m 10,2 C 9,3 C 12,9 km/h (3 Bft) 95,83 %
13.05.2016 11:04 10,8 C 96 % 994,4 hPa 0,0 l/m 12,1 km/h (2 Bft) SW 229 0 min 0,000 mm 0,0 UV-I 67 W/m 10,2 C 7,4 C 24,1 km/h (4 Bft) 100,00 %
13.05.2016 11:05 10,8 C 96 % 994,4 hPa 0,0 l/m 16,9 km/h (3 Bft) SW 225 0 min 0,000 mm 0,0 UV-I 69 W/m 10,2 C 5,4 C 22,5 km/h (4 Bft) 91,30 %
13.05.2016 11:06 10,8 C 96 % 994,4 hPa 0,0 l/m 10,2 km/h (2 Bft) S-SW 196 0 min 0,000 mm 0,1 UV-I 82 W/m 10,2 C 8,4 C 16,1 km/h (3 Bft) 96,30 %
13.05.2016 11:07 10,8 C 96 % 994,4 hPa 0,2 l/m 9,6 km/h (2 Bft) SW 232 0 min 0,000 mm 0,5 UV-I 98 W/m 10,2 C 8,7 C 16,1 km/h (3 Bft) 100,00 %
13.05.2016 11:08 10,8 C 96 % 994,4 hPa 0,0 l/m 12,0 km/h (2 Bft) W-SW 243 0 min 0,000 mm 0,6 UV-I 105 W/m 10,2 C 7,4 C 16,1 km/h (3 Bft) 91,67 %
13.05.2016 11:09 10,8 C 96 % 994,4 hPa 0,0 l/m 15,6 km/h (3 Bft) SW 232 0 min 0,000 mm 0,6 UV-I 104 W/m 10,2 C 5,9 C 19,3 km/h (3 Bft) 96,88 %
13.05.2016 11:10 10,8 C 96 % 994,4 hPa 0,0 l/m 12,0 km/h (2 Bft) SW 216 0 min 0,000 mm 0,6 UV-I 108 W/m 10,2 C 7,4 C 17,7 km/h (3 Bft) 91,67 %
13.05.2016 11:11 10,8 C 96 % 994,4 hPa 0,0 l/m 13,8 km/h (3 Bft) SW 234 0 min 0,000 mm 0,6 UV-I 112 W/m 10,2 C 6,6 C 19,3 km/h (3 Bft) 100,00 %
13.05.2016 11:12 10,8 C 96 % 994,4 hPa 0,0 l/m 11,9 km/h (2 Bft) SW 218 0 min 0,000 mm 0,6 UV-I 117 W/m 10,2 C 7,5 C 17,7 km/h (3 Bft) 96,67 %
13.05.2016 11:13 10,8 C 96 % 994,4 hPa 0,0 l/m 13,5 km/h (3 Bft) SW 230 0 min 0,000 mm 0,7 UV-I 125 W/m 10,2 C 6,7 C 17,7 km/h (3 Bft) 100,00 %
13.05.2016 11:14 10,9 C 96 % 994,4 hPa 0,0 l/m 11,3 km/h (2 Bft) S-SW 208 0 min 0,000 mm 0,7 UV-I 129 W/m 10,3 C 7,9 C 16,1 km/h (3 Bft) 94,12 %
13.05.2016 11:15 10,9 C 96 % 994,4 hPa 0,0 l/m 12,5 km/h (3 Bft) W-SW 250 0 min 0,000 mm 0,7 UV-I 131 W/m 10,3 C 7,3 C 20,9 km/h (4 Bft) 97,56 %
13.05.2016 11:16 10,9 C 96 % 994,4 hPa 0,2 l/m 15,9 km/h (3 Bft) SW 229 0 min 0,000 mm 0,8 UV-I 141 W/m 10,3 C 5,9 C 20,9 km/h (4 Bft) 100,00 %
13.05.2016 11:17 10,9 C 96 % 994,3 hPa 0,0 l/m 13,1 km/h (3 Bft) SW 219 0 min 0,000 mm 0,8 UV-I 138 W/m 10,3 C 7,0 C 19,3 km/h (3 Bft) 95,65 %
13.05.2016 11:18 10,9 C 96 % 994,4 hPa 0,0 l/m 10,3 km/h (2 Bft) W-SW 248 0 min 0,000 mm 0,8 UV-I 149 W/m 10,3 C 8,4 C 14,5 km/h (3 Bft) 100,00 %
13.05.2016 11:19 10,9 C 96 % 994,4 hPa 0,0 l/m 10,7 km/h (2 Bft) SW 215 0 min 0,000 mm 0,9 UV-I 168 W/m 10,3 C 8,2 C 17,7 km/h (3 Bft) 91,67 %
13.05.2016 11:20 11,0 C 96 % 994,4 hPa 0,0 l/m 12,6 km/h (3 Bft) SW 221 0 min 0,000 mm 1,1 UV-I 184 W/m 10,4 C 7,4 C 19,3 km/h (3 Bft) 100,00 %
13.05.2016 11:21 11,0 C 96 % 994,5 hPa 0,2 l/m 12,4 km/h (3 Bft) SW 223 0 min 0,000 mm 1,0 UV-I 174 W/m 10,4 C 7,5 C 16,1 km/h (3 Bft) 100,00 %
13.05.2016 11:22 11,0 C 96 % 994,6 hPa 0,0 l/m 9,6 km/h (2 Bft) W-SW 248 0 min 0,000 mm 0,9 UV-I 150 W/m 10,4 C 8,9 C 14,5 km/h (3 Bft) 100,00 %
13.05.2016 11:23 11,1 C 96 % 994,8 hPa 0,0 l/m 11,3 km/h (2 Bft) SW 233 0 min 0,000 mm 0,7 UV-I 121 W/m 10,5 C 8,1 C 14,5 km/h (3 Bft) 100,00 %
13.05.2016 11:24 11,1 C 96 % 994,8 hPa 0,0 l/m 8,7 km/h (2 Bft) W 265 0 min 0,000 mm 0,6 UV-I 98 W/m 10,5 C 9,6 C 12,9 km/h (3 Bft) 100,00 %
13.05.2016 11:25 11,1 C 96 % 994,8 hPa 0,0 l/m 12,7 km/h (3 Bft) SW 231 0 min 0,000 mm 0,5 UV-I 91 W/m 10,5 C 7,5 C 19,3 km/h (3 Bft) 100,00 %
13.05.2016 11:26 11,1 C 96 % 994,8 hPa 0,0 l/m 7,0 km/h (2 Bft) W 263 0 min 0,000 mm 0,5 UV-I 83 W/m 10,5 C 10,7 C 9,7 km/h (2 Bft) 94,12 %
13.05.2016 11:27 11,1 C 96 % 994,8 hPa 0,0 l/m 8,1 km/h (2 Bft) S-SW 207 0 min 0,000 mm 0,0 UV-I 76 W/m 10,5 C 9,9 C 12,9 km/h (3 Bft) 100,00 %
13.05.2016 11:28 11,1 C 96 % 994,9 hPa 0,0 l/m 6,2 km/h (2 Bft) SW 232 0 min 0,000 mm 0,0 UV-I 75 W/m 10,5 C 11,1 C 9,7 km/h (2 Bft) 100,00 %
13.05.2016 11:29 11,1 C 96 % 994,9 hPa 0,0 l/m 7,3 km/h (2 Bft) S-SW 196 0 min 0,000 mm 0,0 UV-I 72 W/m 10,5 C 10,5 C 14,5 km/h (3 Bft) 96,30 %
13.05.2016 11:30 11,1 C 96 % 994,9 hPa 0,0 l/m 8,8 km/h (2 Bft) SW 220 0 min 0,000 mm 0,0 UV-I 72 W/m 10,5 C 9,5 C 12,9 km/h (3 Bft) 98,46 %
13.05.2016 11:31 11,1 C 96 % 994,9 hPa 0,0 l/m 10,3 km/h (2 Bft) W-SW 253 0 min 0,000 mm 0,3 UV-I 79 W/m 10,5 C 8,6 C 17,7 km/h (3 Bft) 100,00 %
13.05.2016 11:32 11,1 C 96 % 994,9 hPa 0,2 l/m 14,2 km/h (3 Bft) SW 219 0 min 0,000 mm 0,5 UV-I 81 W/m 10,5 C 6,8 C 17,7 km/h (3 Bft) 100,00 %
13.05.2016 11:33 11,1 C 96 % 994,9 hPa 0,0 l/m 9,7 km/h (2 Bft) SW 227 0 min 0,000 mm 0,1 UV-I 76 W/m 10,5 C 9,0 C 14,5 km/h (3 Bft) 95,83 %
13.05.2016 11:34 11,1 C 96 % 994,9 hPa 0,0 l/m 11,7 km/h (2 Bft) SW 223 0 min 0,000 mm 0,0 UV-I 72 W/m 10,5 C 7,9 C 17,7 km/h (3 Bft) 100,00 %
13.05.2016 11:35 11,1 C 96 % 995,0 hPa 0,0 l/m 9,4 km/h (2 Bft) SW 224 0 min 0,000 mm 0,0 UV-I 58 W/m 10,5 C 9,1 C 14,5 km/h (3 Bft) 96,30 %
13.05.2016 11:36 11,1 C 95 % 995,1 hPa 0,0 l/m 9,2 km/h (2 Bft) S-SW 192 0 min 0,000 mm 0,0 UV-I 49 W/m 10,3 C 9,3 C 16,1 km/h (3 Bft) 100,00 %
13.05.2016 11:37 11,1 C 95 % 995,1 hPa 0,0 l/m 7,5 km/h (2 Bft) S 188 0 min 0,000 mm 0,0 UV-I 47 W/m 10,3 C 10,3 C 14,5 km/h (3 Bft) 100,00 %
13.05.2016 11:38 11,1 C 95 % 995,0 hPa 0,0 l/m 12,2 km/h (2 Bft) W-SW 246 0 min 0,000 mm 0,0 UV-I 50 W/m 10,3 C 7,7 C 14,5 km/h (3 Bft) 100,00 %
13.05.2016 11:39 11,1 C 95 % 995,1 hPa 0,0 l/m 8,2 km/h (2 Bft) S-SW 208 0 min 0,000 mm 0,0 UV-I 57 W/m 10,3 C 9,9 C 11,3 km/h (2 Bft) 100,00 %
13.05.2016 11:40 11,1 C 95 % 995,0 hPa 0,2 l/m 4,8 km/h (1 Bft) S 190 0 min 0,000 mm 0,0 UV-I 66 W/m 10,3 C 11,1 C 8,0 km/h (2 Bft) 100,00 %
13.05.2016 11:41 11,1 C 95 % 995,0 hPa 0,0 l/m 8,8 km/h (2 Bft) S-SW 198 0 min 0,000 mm 0,1 UV-I 74 W/m 10,3 C 9,5 C 11,3 km/h (2 Bft) 100,00 %
13.05.2016 11:42 11,1 C 95 % 995,1 hPa 0,0 l/m 12,5 km/h (3 Bft) S-SW 207 0 min 0,000 mm 0,5 UV-I 82 W/m 10,3 C 7,5 C 16,1 km/h (3 Bft) 100,00 %
13.05.2016 11:43 11,1 C 95 % 995,0 hPa 0,0 l/m 10,5 km/h (2 Bft) S-SW 212 0 min 0,000 mm 0,5 UV-I 85 W/m 10,3 C 8,5 C 16,1 km/h (3 Bft) 96,55 %
13.05.2016 11:44 11,1 C 95 % 995,0 hPa 0,0 l/m 6,9 km/h (2 Bft) S-SW 204 0 min 0,000 mm 0,5 UV-I 90 W/m 10,3 C 10,8 C 8,0 km/h (2 Bft) 96,30 %
13.05.2016 11:45 11,1 C 95 % 995,0 hPa 0,2 l/m 10,8 km/h (2 Bft) W-SW 248 0 min 0,000 mm 0,5 UV-I 85 W/m 10,3 C 8,4 C 14,5 km/h (3 Bft) 100,00 %
13.05.2016 11:46 11,1 C 95 % 995,0 hPa 0,0 l/m 8,0 km/h (2 Bft) SW 228 0 min 0,000 mm 0,5 UV-I 83 W/m 10,3 C 10,0 C 12,9 km/h (3 Bft) 100,00 %
13.05.2016 11:47 11,1 C 95 % 995,1 hPa 0,0 l/m 12,2 km/h (2 Bft) SW 218 0 min 0,000 mm 0,5 UV-I 84 W/m 10,3 C 7,7 C 16,1 km/h (3 Bft) 100,00 %
13.05.2016 11:48 11,1 C 95 % 995,0 hPa 0,0 l/m 12,2 km/h (2 Bft) W-SW 239 0 min 0,000 mm 0,5 UV-I 87 W/m 10,3 C 7,7 C 16,1 km/h (3 Bft) 100,00 %
13.05.2016 11:49 11,1 C 95 % 995,1 hPa 0,0 l/m 8,6 km/h (2 Bft) S-SW 199 0 min 0,000 mm 0,5 UV-I 91 W/m 10,3 C 9,6 C 16,1 km/h (3 Bft) 100,00 %
13.05.2016 11:50 11,1 C 95 % 995,0 hPa 0,0 l/m 8,8 km/h (2 Bft) S-SW 206 0 min 0,000 mm 0,5 UV-I 93 W/m 10,3 C 9,5 C 14,5 km/h (3 Bft) 100,00 %
13.05.2016 11:51 11,1 C 95 % 995,1 hPa 0,0 l/m 10,0 km/h (2 Bft) W 261 0 min 0,000 mm 0,5 UV-I 90 W/m 10,3 C 8,8 C 14,5 km/h (3 Bft) 100,00 %
13.05.2016 11:52 11,1 C 95 % 995,1 hPa 0,2 l/m 6,7 km/h (2 Bft) W-SW 245 0 min 0,000 mm 0,5 UV-I 87 W/m 10,3 C 10,9 C 8,0 km/h (2 Bft) 95,83 %
13.05.2016 11:53 11,1 C 95 % 995,0 hPa 0,0 l/m 8,7 km/h (2 Bft) SW 227 0 min 0,000 mm 0,5 UV-I 92 W/m 10,3 C 9,6 C 17,7 km/h (3 Bft) 100,00 %
13.05.2016 11:54 11,1 C 96 % 995,0 hPa 0,0 l/m 12,2 km/h (2 Bft) S-SW 203 0 min 0,000 mm 0,6 UV-I 103 W/m 10,5 C 7,7 C 16,1 km/h (3 Bft) 100,00 %
13.05.2016 11:55 11,1 C 96 % 995,0 hPa 0,0 l/m 12,5 km/h (3 Bft) S-SW 195 0 min 0,000 mm 0,7 UV-I 108 W/m 10,5 C 7,5 C 16,1 km/h (3 Bft) 100,00 %
13.05.2016 11:56 11,1 C 95 % 995,0 hPa 0,0 l/m 8,2 km/h (2 Bft) SW 218 0 min 0,000 mm 0,6 UV-I 110 W/m 10,3 C 9,9 C 9,7 km/h (2 Bft) 100,00 %
13.05.2016 11:57 11,2 C 96 % 995,1 hPa 0,0 l/m 8,3 km/h (2 Bft) SW 232 0 min 0,000 mm 0,7 UV-I 116 W/m 10,6 C 9,9 C 16,1 km/h (3 Bft) 100,00 %
13.05.2016 11:58 11,2 C 96 % 995,0 hPa 0,0 l/m 11,0 km/h (2 Bft) SW 222 0 min 0,000 mm 0,7 UV-I 125 W/m 10,6 C 8,4 C 16,1 km/h (3 Bft) 100,00 %
13.05.2016 11:59 11,2 C 96 % 995,0 hPa 0,0 l/m 12,6 km/h (3 Bft) SW 221 0 min 0,000 mm 0,8 UV-I 129 W/m 10,6 C 7,6 C 17,7 km/h (3 Bft) 100,00 %
13.05.2016 12:00 11,2 C 96 % 995,0 hPa 0,0 l/m 17,0 km/h (3 Bft) W-SW 252 0 min 0,000 mm 0,8 UV-I 130 W/m 10,6 C 5,8 C 22,5 km/h (4 Bft) 100,00 %
13.05.2016 12:02 11,2 C 96 % 995,0 hPa 0,2 l/m 15,3 km/h (3 Bft) W 263 0 min 0,051 mm 0,9 UV-I 137 W/m 10,6 C 6,5 C 20,9 km/h (4 Bft) 100,00 %
13.05.2016 12:03 11,2 C 96 % 995,0 hPa 0,0 l/m 13,8 km/h (3 Bft) W-SW 247 0 min 0,000 mm 0,8 UV-I 137 W/m 10,6 C 7,1 C 19,3 km/h (3 Bft) 95,83 %
13.05.2016 12:04 11,2 C 96 % 995,1 hPa 0,0 l/m 13,6 km/h (3 Bft) SW 236 0 min 0,000 mm 0,9 UV-I 141 W/m 10,6 C 7,2 C 17,7 km/h (3 Bft) 95,65 %
13.05.2016 12:05 11,2 C 96 % 995,0 hPa 0,0 l/m 14,4 km/h (3 Bft) W-SW 258 0 min 0,000 mm 0,9 UV-I 154 W/m 10,6 C 6,8 C 17,7 km/h (3 Bft) 100,00 %
13.05.2016 12:06 11,2 C 96 % 995,1 hPa 0,2 l/m 14,8 km/h (3 Bft) W-SW 239 0 min 0,000 mm 1,0 UV-I 168 W/m 10,6 C 6,7 C 17,7 km/h (3 Bft) 100,00 %
13.05.2016 12:07 11,2 C 96 % 995,1 hPa 0,0 l/m 12,9 km/h (3 Bft) W-SW 250 0 min 0,000 mm 1,2 UV-I 189 W/m 10,6 C 7,5 C 17,7 km/h (3 Bft) 100,00 %
13.05.2016 12:08 11,3 C 96 % 995,1 hPa 0,0 l/m 15,6 km/h (3 Bft) W-SW 252 0 min 0,000 mm 1,3 UV-I 208 W/m 10,7 C 6,5 C 24,1 km/h (4 Bft) 100,00 %
13.05.2016 12:09 11,3 C 96 % 995,1 hPa 0,0 l/m 13,6 km/h (3 Bft) W-SW 254 0 min 0,000 mm 1,3 UV-I 211 W/m 10,7 C 7,3 C 19,3 km/h (3 Bft) 100,00 %
13.05.2016 12:10 11,3 C 96 % 995,1 hPa 0,0 l/m 11,8 km/h (2 Bft) W-NW 292 0 min 0,000 mm 1,4 UV-I 218 W/m 10,7 C 8,1 C 16,1 km/h (3 Bft) 100,00 %
13.05.2016 12:11 11,4 C 96 % 995,1 hPa 0,0 l/m 13,5 km/h (3 Bft) W-SW 256 0 min 0,000 mm 1,5 UV-I 233 W/m 10,8 C 7,4 C 19,3 km/h (3 Bft) 100,00 %
13.05.2016 12:12 11,4 C 96 % 995,1 hPa 0,0 l/m 14,7 km/h (3 Bft) S-SW 208 0 min 0,000 mm 1,4 UV-I 230 W/m 10,8 C 6,9 C 17,7 km/h (3 Bft) 98,53 %
13.05.2016 12:13 11,4 C 96 % 995,1 hPa 0,0 l/m 13,3 km/h (3 Bft) S-SW 207 0 min 0,000 mm 1,3 UV-I 205 W/m 10,8 C 7,5 C 16,1 km/h (3 Bft) 100,00 %
13.05.2016 12:14 11,4 C 96 % 995,1 hPa 0,0 l/m 11,1 km/h (2 Bft) SW 234 0 min 0,000 mm 1,3 UV-I 199 W/m 10,8 C 8,6 C 12,9 km/h (3 Bft) 100,00 %
13.05.2016 12:15 11,4 C 96 % 995,1 hPa 0,0 l/m 19,4 km/h (3 Bft) W-SW 245 0 min 0,000 mm 1,3 UV-I 203 W/m 10,8 C 5,3 C 25,7 km/h (4 Bft) 100,00 %
13.05.2016 12:16 11,4 C 96 % 995,1 hPa 0,0 l/m 11,5 km/h (2 Bft) W-SW 246 0 min 0,000 mm 1,3 UV-I 205 W/m 10,8 C 8,4 C 17,7 km/h (3 Bft) 100,00 %
13.05.2016 12:17 11,5 C 96 % 995,1 hPa 0,0 l/m 16,9 km/h (3 Bft) SW 233 0 min 0,000 mm 1,3 UV-I 200 W/m 10,9 C 6,2 C 20,9 km/h (4 Bft) 100,00 %
13.05.2016 12:18 11,5 C 96 % 995,1 hPa 0,0 l/m 12,7 km/h (3 Bft) SW 231 0 min 0,000 mm 1,1 UV-I 177 W/m 10,9 C 7,9 C 19,3 km/h (3 Bft) 100,00 %
13.05.2016 12:19 11,5 C 96 % 995,1 hPa 0,0 l/m 14,1 km/h (3 Bft) W-SW 237 0 min 0,000 mm 1,0 UV-I 156 W/m 10,9 C 7,3 C 19,3 km/h (3 Bft) 95,83 %
13.05.2016 12:20 11,5 C 96 % 995,1 hPa 0,0 l/m 13,7 km/h (3 Bft) W 265 0 min 0,000 mm 0,8 UV-I 133 W/m 10,9 C 7,5 C 20,9 km/h (4 Bft) 98,54 %
13.05.2016 12:21 11,4 C 96 % 995,1 hPa 0,0 l/m 16,0 km/h (3 Bft) SW 219 0 min 0,000 mm 0,8 UV-I 125 W/m 10,8 C 6,4 C 19,3 km/h (3 Bft) 100,00 %
13.05.2016 12:22 11,4 C 95 % 995,1 hPa 0,2 l/m 11,8 km/h (2 Bft) SW 236 0 min 0,000 mm 0,8 UV-I 120 W/m 10,6 C 8,2 C 17,7 km/h (3 Bft) 100,00 %
13.05.2016 12:23 11,4 C 95 % 995,1 hPa 0,0 l/m 9,8 km/h (2 Bft) W-SW 238 0 min 0,000 mm 0,7 UV-I 110 W/m 10,6 C 9,3 C 12,9 km/h (3 Bft) 100,00 %
13.05.2016 12:24 11,4 C 95 % 995,2 hPa 0,0 l/m 12,2 km/h (2 Bft) W-SW 251 0 min 0,000 mm 0,6 UV-I 102 W/m 10,6 C 8,0 C 22,5 km/h (4 Bft) 100,00 %
13.05.2016 12:25 11,4 C 95 % 995,2 hPa 0,0 l/m 16,4 km/h (3 Bft) W 262 0 min 0,000 mm 0,6 UV-I 98 W/m 10,6 C 6,3 C 22,5 km/h (4 Bft) 100,00 %
13.05.2016 12:26 11,4 C 95 % 995,2 hPa 0,0 l/m 17,7 km/h (3 Bft) W-SW 252 0 min 0,000 mm 0,6 UV-I 98 W/m 10,6 C 5,8 C 20,9 km/h (4 Bft) 100,00 %
13.05.2016 12:27 11,4 C 95 % 995,1 hPa 0,0 l/m 13,7 km/h (3 Bft) SW 234 0 min 0,000 mm 0,6 UV-I 103 W/m 10,6 C 7,4 C 20,9 km/h (4 Bft) 96,55 %
13.05.2016 12:28 11,4 C 95 % 995,1 hPa 0,0 l/m 16,8 km/h (3 Bft) SW 234 0 min 0,000 mm 0,7 UV-I 103 W/m 10,6 C 6,2 C 20,9 km/h (4 Bft) 100,00 %
13.05.2016 12:29 11,4 C 96 % 995,1 hPa 0,2 l/m 13,7 km/h (3 Bft) W-SW 244 0 min 0,000 mm 0,6 UV-I 99 W/m 10,8 C 7,4 C 17,7 km/h (3 Bft) 100,00 %
13.05.2016 12:30 11,4 C 96 % 995,1 hPa 0,0 l/m 12,5 km/h (3 Bft) W-SW 255 0 min 0,000 mm 0,6 UV-I 93 W/m 10,8 C 7,9 C 16,1 km/h (3 Bft) 100,00 %
13.05.2016 12:31 11,4 C 96 % 995,2 hPa 0,0 l/m 12,0 km/h (2 Bft) W-SW 246 0 min 0,000 mm 0,5 UV-I 86 W/m 10,8 C 8,1 C 14,5 km/h (3 Bft) 100,00 %
13.05.2016 12:32 11,4 C 96 % 995,2 hPa 0,2 l/m 9,2 km/h (2 Bft) W-SW 258 0 min 0,000 mm 0,5 UV-I 84 W/m 10,8 C 9,6 C 14,5 km/h (3 Bft) 100,00 %
13.05.2016 12:33 11,4 C 96 % 995,2 hPa 0,0 l/m 11,0 km/h (2 Bft) W-SW 255 0 min 0,000 mm 0,5 UV-I 88 W/m 10,8 C 8,6 C 12,9 km/h (3 Bft) 100,00 %
13.05.2016 12:34 11,4 C 96 % 995,2 hPa 0,2 l/m 11,7 km/h (2 Bft) W-SW 240 0 min 0,000 mm 0,6 UV-I 93 W/m 10,8 C 8,3 C 17,7 km/h (3 Bft) 100,00 %
13.05.2016 12:35 11,4 C 96 % 995,2 hPa 0,2 l/m 10,5 km/h (2 Bft) W-SW 257 0 min 0,000 mm 0,6 UV-I 102 W/m 10,8 C 8,9 C 14,5 km/h (3 Bft) 100,00 %
13.05.2016 12:36 11,4 C 96 % 995,2 hPa 0,2 l/m 10,6 km/h (2 Bft) W 260 0 min 0,000 mm 0,7 UV-I 105 W/m 10,8 C 8,8 C 19,3 km/h (3 Bft) 100,00 %
13.05.2016 12:37 11,4 C 96 % 995,2 hPa 0,0 l/m 14,1 km/h (3 Bft) S-SW 209 0 min 0,000 mm 0,8 UV-I 114 W/m 10,8 C 7,2 C 19,3 km/h (3 Bft) 100,00 %
13.05.2016 12:38 11,4 C 96 % 995,2 hPa 0,0 l/m 10,1 km/h (2 Bft) W-SW 253 0 min 0,000 mm 0,7 UV-I 116 W/m 10,8 C 9,1 C 16,1 km/h (3 Bft) 100,00 %
13.05.2016 12:39 11,4 C 96 % 995,2 hPa 0,2 l/m 11,9 km/h (2 Bft) W 263 0 min 0,000 mm 0,8 UV-I 120 W/m 10,8 C 8,2 C 16,1 km/h (3 Bft) 100,00 %
13.05.2016 12:40 11,4 C 96 % 995,2 hPa 0,0 l/m 14,5 km/h (3 Bft) W-SW 250 0 min 0,000 mm 0,8 UV-I 116 W/m 10,8 C 7,0 C 19,3 km/h (3 Bft) 100,00 %
13.05.2016 12:41 11,4 C 96 % 995,3 hPa 0,0 l/m 13,7 km/h (3 Bft) W-SW 251 0 min 0,000 mm 0,7 UV-I 111 W/m 10,8 C 7,4 C 19,3 km/h (3 Bft) 100,00 %
13.05.2016 12:42 11,4 C 96 % 995,3 hPa 0,2 l/m 15,1 km/h (3 Bft) W 266 0 min 0,000 mm 0,6 UV-I 100 W/m 10,8 C 6,8 C 19,3 km/h (3 Bft) 100,00 %
13.05.2016 12:43 11,3 C 96 % 995,3 hPa 0,0 l/m 14,4 km/h (3 Bft) W-SW 241 0 min 0,000 mm 0,6 UV-I 91 W/m 10,7 C 7,0 C 19,3 km/h (3 Bft) 100,00 %
13.05.2016 12:44 11,4 C 96 % 995,3 hPa 0,0 l/m 14,2 km/h (3 Bft) W-SW 252 0 min 0,000 mm 0,6 UV-I 90 W/m 10,8 C 7,2 C 22,5 km/h (4 Bft) 100,00 %
13.05.2016 12:45 11,3 C 96 % 995,4 hPa 0,0 l/m 13,8 km/h (3 Bft) W-SW 247 0 min 0,000 mm 0,6 UV-I 92 W/m 10,7 C 7,2 C 16,1 km/h (3 Bft) 100,00 %
13.05.2016 12:46 11,3 C 96 % 995,4 hPa 0,2 l/m 9,3 km/h (2 Bft) W-SW 254 0 min 0,000 mm 0,6 UV-I 96 W/m 10,7 C 9,4 C 12,9 km/h (3 Bft) 100,00 %
13.05.2016 12:47 11,3 C 96 % 995,4 hPa 0,2 l/m 11,4 km/h (2 Bft) W 269 0 min 0,000 mm 0,6 UV-I 99 W/m 10,7 C 8,3 C 17,7 km/h (3 Bft) 100,00 %
13.05.2016 12:48 11,3 C 96 % 995,4 hPa 0,0 l/m 6,8 km/h (2 Bft) SW 229 0 min 0,000 mm 0,6 UV-I 102 W/m 10,7 C 11,0 C 11,3 km/h (2 Bft) 96,55 %
13.05.2016 12:49 11,4 C 96 % 995,4 hPa 0,2 l/m 14,1 km/h (3 Bft) W-SW 248 0 min 0,000 mm 0,7 UV-I 106 W/m 10,8 C 7,2 C 17,7 km/h (3 Bft) 98,61 %
13.05.2016 12:50 11,4 C 96 % 995,4 hPa 0,2 l/m 14,8 km/h (3 Bft) W-SW 249 0 min 0,000 mm 0,7 UV-I 112 W/m 10,8 C 6,9 C 19,3 km/h (3 Bft) 97,73 %
13.05.2016 12:51 11,4 C 96 % 995,4 hPa 0,0 l/m 14,2 km/h (3 Bft) SW 232 0 min 0,000 mm 0,7 UV-I 115 W/m 10,8 C 7,2 C 20,9 km/h (4 Bft) 100,00 %
13.05.2016 12:52 11,4 C 96 % 995,4 hPa 0,0 l/m 17,1 km/h (3 Bft) W-SW 247 0 min 0,000 mm 0,7 UV-I 114 W/m 10,8 C 6,0 C 24,1 km/h (4 Bft) 95,65 %
13.05.2016 12:53 11,3 C 96 % 995,4 hPa 0,0 l/m 12,7 km/h (3 Bft) W-SW 255 0 min 0,000 mm 0,7 UV-I 112 W/m 10,7 C 7,7 C 20,9 km/h (4 Bft) 100,00 %
13.05.2016 12:54 11,3 C 96 % 995,5 hPa 0,0 l/m 11,6 km/h (2 Bft) W-SW 246 0 min 0,000 mm 0,7 UV-I 114 W/m 10,7 C 8,2 C 16,1 km/h (3 Bft) 96,15 %
13.05.2016 12:55 11,3 C 96 % 995,5 hPa 0,2 l/m 9,9 km/h (2 Bft) S-SW 211 0 min 0,000 mm 0,7 UV-I 118 W/m 10,7 C 9,1 C 12,9 km/h (3 Bft) 100,00 %
13.05.2016 12:56 11,3 C 96 % 995,5 hPa 0,0 l/m 12,5 km/h (3 Bft) W-SW 247 0 min 0,000 mm 0,8 UV-I 120 W/m 10,7 C 7,8 C 17,7 km/h (3 Bft) 95,00 %
13.05.2016 12:57 11,4 C 96 % 995,5 hPa 0,2 l/m 13,9 km/h (3 Bft) W 263 0 min 0,000 mm 0,8 UV-I 121 W/m 10,8 C 7,3 C 17,7 km/h (3 Bft) 96,30 %
13.05.2016 12:58 11,4 C 96 % 995,5 hPa 0,0 l/m 10,5 km/h (2 Bft) W-SW 247 0 min 0,000 mm 0,8 UV-I 128 W/m 10,8 C 8,9 C 16,1 km/h (3 Bft) 100,00 %
13.05.2016 12:59 11,4 C 96 % 995,5 hPa 0,0 l/m 12,3 km/h (3 Bft) SW 223 0 min 0,000 mm 0,9 UV-I 138 W/m 10,8 C 8,0 C 16,1 km/h (3 Bft) 100,00 %
13.05.2016 13:00 11,4 C 96 % 995,4 hPa 0,0 l/m 9,9 km/h (2 Bft) W-SW 256 0 min 0,076 mm 1,0 UV-I 149 W/m 10,8 C 9,2 C 16,1 km/h (3 Bft) 95,83 %
13.05.2016 13:02 11,5 C 96 % 995,4 hPa 0,2 l/m 13,5 km/h (3 Bft) S-SW 205 0 min 0,000 mm 1,0 UV-I 155 W/m 10,9 C 7,6 C 20,9 km/h (4 Bft) 97,87 %
13.05.2016 13:03 11,5 C 96 % 995,5 hPa 0,0 l/m 13,9 km/h (3 Bft) SW 216 0 min 0,000 mm 1,0 UV-I 149 W/m 10,9 C 7,4 C 19,3 km/h (3 Bft) 96,55 %
13.05.2016 13:04 11,4 C 96 % 995,5 hPa 0,0 l/m 10,5 km/h (2 Bft) W-SW 241 0 min 0,000 mm 0,9 UV-I 139 W/m 10,8 C 8,9 C 17,7 km/h (3 Bft) 100,00 %
13.05.2016 13:05 11,5 C 96 % 995,5 hPa 0,2 l/m 11,6 km/h (2 Bft) S-SW 210 0 min 0,000 mm 0,8 UV-I 130 W/m 10,9 C 8,4 C 16,1 km/h (3 Bft) 90,91 %
13.05.2016 13:06 11,5 C 96 % 995,6 hPa 0,0 l/m 12,7 km/h (3 Bft) SW 227 0 min 0,000 mm 0,8 UV-I 123 W/m 10,9 C 7,9 C 16,1 km/h (3 Bft) 100,00 %
13.05.2016 13:07 11,5 C 96 % 995,5 hPa 0,0 l/m 16,5 km/h (3 Bft) SW 219 0 min 0,000 mm 0,8 UV-I 121 W/m 10,9 C 6,4 C 24,1 km/h (4 Bft) 92,31 %
13.05.2016 13:08 11,5 C 96 % 995,6 hPa 0,0 l/m 16,4 km/h (3 Bft) W 280 0 min 0,000 mm 0,7 UV-I 113 W/m 10,9 C 6,4 C 24,1 km/h (4 Bft) 100,00 %
13.05.2016 13:09 11,4 C 96 % 995,6 hPa 0,2 l/m 15,1 km/h (3 Bft) W-SW 250 0 min 0,000 mm 0,7 UV-I 110 W/m 10,8 C 6,8 C 25,7 km/h (4 Bft) 96,15 %
13.05.2016 13:10 11,4 C 96 % 995,6 hPa 0,0 l/m 17,1 km/h (3 Bft) W-SW 237 0 min 0,000 mm 0,7 UV-I 115 W/m 10,8 C 6,0 C 24,1 km/h (4 Bft) 96,30 %
13.05.2016 13:11 11,4 C 96 % 995,6 hPa 0,2 l/m 16,5 km/h (3 Bft) W-NW 284 0 min 0,000 mm 0,8 UV-I 125 W/m 10,8 C 6,3 C 20,9 km/h (4 Bft) 100,00 %
13.05.2016 13:12 11,4 C 96 % 995,6 hPa 0,0 l/m 11,7 km/h (2 Bft) SW 236 0 min 0,000 mm 0,8 UV-I 128 W/m 10,8 C 8,3 C 16,1 km/h (3 Bft) 93,33 %
13.05.2016 13:13 11,4 C 96 % 995,5 hPa 0,0 l/m 13,5 km/h (3 Bft) W-SW 250 0 min 0,000 mm 0,8 UV-I 125 W/m 10,8 C 7,4 C 17,7 km/h (3 Bft) 100,00 %
13.05.2016 13:14 11,5 C 96 % 995,5 hPa 0,2 l/m 11,5 km/h (2 Bft) SW 216 0 min 0,000 mm 0,8 UV-I 126 W/m 10,9 C 8,5 C 16,1 km/h (3 Bft) 93,33 %
13.05.2016 13:15 11,5 C 96 % 995,5 hPa 0,0 l/m 9,5 km/h (2 Bft) S-SW 199 0 min 0,000 mm 0,8 UV-I 124 W/m 10,9 C 9,5 C 14,5 km/h (3 Bft) 100,00 %
13.05.2016 13:16 11,5 C 96 % 995,5 hPa 0,2 l/m 11,7 km/h (2 Bft) W 268 0 min 0,000 mm 0,8 UV-I 122 W/m 10,9 C 8,4 C 16,1 km/h (3 Bft) 95,65 %
13.05.2016 13:17 11,5 C 96 % 995,6 hPa 0,0 l/m 11,1 km/h (2 Bft) S-SW 211 0 min 0,000 mm 0,8 UV-I 121 W/m 10,9 C 8,7 C 16,1 km/h (3 Bft) 96,15 %
13.05.2016 13:18 11,6 C 96 % 995,6 hPa 0,0 l/m 10,6 km/h (2 Bft) W-SW 245 0 min 0,000 mm 0,7 UV-I 120 W/m 11,0 C 9,0 C 16,1 km/h (3 Bft) 100,00 %
13.05.2016 13:19 11,6 C 96 % 995,6 hPa 0,2 l/m 10,4 km/h (2 Bft) W-SW 245 0 min 0,000 mm 0,7 UV-I 112 W/m 11,0 C 9,1 C 14,5 km/h (3 Bft) 96,15 %
13.05.2016 13:20 11,6 C 96 % 995,6 hPa 0,0 l/m 11,3 km/h (2 Bft) W 269 0 min 0,000 mm 0,6 UV-I 95 W/m 11,0 C 8,7 C 16,1 km/h (3 Bft) 100,00 %
13.05.2016 13:21 11,6 C 96 % 995,6 hPa 0,0 l/m 13,0 km/h (3 Bft) W-SW 252 0 min 0,000 mm 0,3 UV-I 74 W/m 11,0 C 7,9 C 19,3 km/h (3 Bft) 96,15 %
13.05.2016 13:22 11,6 C 96 % 995,7 hPa 0,2 l/m 16,4 km/h (3 Bft) W-SW 247 0 min 0,000 mm 0,0 UV-I 66 W/m 11,0 C 6,5 C 20,9 km/h (4 Bft) 100,00 %
13.05.2016 13:23 11,5 C 96 % 995,7 hPa 0,0 l/m 16,6 km/h (3 Bft) W 261 0 min 0,000 mm 0,0 UV-I 69 W/m 10,9 C 6,3 C 20,9 km/h (4 Bft) 88,89 %
13.05.2016 13:24 11,5 C 96 % 995,7 hPa 0,0 l/m 10,7 km/h (2 Bft) W-SW 254 0 min 0,000 mm 0,4 UV-I 78 W/m 10,9 C 8,9 C 17,7 km/h (3 Bft) 100,00 %
13.05.2016 13:25 11,5 C 96 % 995,7 hPa 0,2 l/m 14,4 km/h (3 Bft) SW 227 0 min 0,000 mm 0,6 UV-I 95 W/m 10,9 C 7,2 C 19,3 km/h (3 Bft) 100,00 %
13.05.2016 13:26 11,5 C 96 % 995,7 hPa 0,0 l/m 13,1 km/h (3 Bft) SW 236 0 min 0,000 mm 0,7 UV-I 115 W/m 10,9 C 7,7 C 17,7 km/h (3 Bft) 100,00 %
13.05.2016 13:27 11,5 C 96 % 995,7 hPa 0,0 l/m 12,1 km/h (2 Bft) SW 219 0 min 0,000 mm 0,8 UV-I 133 W/m 10,9 C 8,2 C 16,1 km/h (3 Bft) 100,00 %
13.05.2016 13:28 11,5 C 96 % 995,7 hPa 0,0 l/m 13,9 km/h (3 Bft) SW 220 0 min 0,000 mm 0,9 UV-I 144 W/m 10,9 C 7,4 C 20,9 km/h (4 Bft) 100,00 %
13.05.2016 13:29 11,5 C 96 % 995,7 hPa 0,0 l/m 16,4 km/h (3 Bft) SW 235 0 min 0,000 mm 1,0 UV-I 155 W/m 10,9 C 6,4 C 24,1 km/h (4 Bft) 100,00 %
13.05.2016 13:30 11,5 C 96 % 995,6 hPa 0,2 l/m 14,3 km/h (3 Bft) W-SW 246 0 min 0,000 mm 1,0 UV-I 155 W/m 10,9 C 7,2 C 17,7 km/h (3 Bft) 100,00 %
13.05.2016 13:31 11,5 C 96 % 995,6 hPa 0,0 l/m 13,5 km/h (3 Bft) W-SW 248 0 min 0,000 mm 0,9 UV-I 148 W/m 10,9 C 7,6 C 19,3 km/h (3 Bft) 100,00 %
13.05.2016 13:32 11,6 C 96 % 995,6 hPa 0,0 l/m 12,3 km/h (3 Bft) W-SW 238 0 min 0,000 mm 0,9 UV-I 145 W/m 11,0 C 8,2 C 17,7 km/h (3 Bft) 91,30 %
13.05.2016 13:33 11,6 C 96 % 995,7 hPa 0,0 l/m 15,4 km/h (3 Bft) SW 224 0 min 0,000 mm 0,9 UV-I 149 W/m 11,0 C 6,9 C 25,7 km/h (4 Bft) 100,00 %
13.05.2016 13:34 11,6 C 96 % 995,7 hPa 0,0 l/m 15,2 km/h (3 Bft) W-SW 248 0 min 0,000 mm 1,0 UV-I 162 W/m 11,0 C 7,0 C 20,9 km/h (4 Bft) 100,00 %
13.05.2016 13:35 11,6 C 96 % 995,6 hPa 0,2 l/m 19,2 km/h (3 Bft) W-SW 238 0 min 0,000 mm 1,0 UV-I 162 W/m 11,0 C 5,6 C 24,1 km/h (4 Bft) 100,00 %
13.05.2016 13:36 11,6 C 96 % 995,6 hPa 0,0 l/m 15,6 km/h (3 Bft) SW 228 0 min 0,000 mm 0,9 UV-I 143 W/m 11,0 C 6,8 C 19,3 km/h (3 Bft) 100,00 %
13.05.2016 13:37 11,6 C 96 % 995,7 hPa 0,0 l/m 15,8 km/h (3 Bft) W 261 0 min 0,000 mm 0,7 UV-I 112 W/m 11,0 C 6,8 C 20,9 km/h (4 Bft) 100,00 %
13.05.2016 13:38 11,6 C 96 % 995,7 hPa 0,0 l/m 14,6 km/h (3 Bft) W-SW 255 0 min 0,000 mm 0,5 UV-I 80 W/m 11,0 C 7,2 C 19,3 km/h (3 Bft) 93,10 %
13.05.2016 13:39 11,6 C 96 % 995,7 hPa 0,0 l/m 13,6 km/h (3 Bft) W-SW 243 0 min 0,000 mm 0,4 UV-I 71 W/m 11,0 C 7,6 C 16,1 km/h (3 Bft) 100,00 %
13.05.2016 13:40 11,6 C 96 % 995,8 hPa 0,2 l/m 13,4 km/h (3 Bft) SW 223 0 min 0,000 mm 0,0 UV-I 69 W/m 11,0 C 7,7 C 19,3 km/h (3 Bft) 100,00 %
13.05.2016 13:41 11,5 C 96 % 995,8 hPa 0,2 l/m 16,2 km/h (3 Bft) SW 229 0 min 0,000 mm 0,0 UV-I 64 W/m 10,9 C 6,5 C 20,9 km/h (4 Bft) 100,00 %
13.05.2016 13:42 11,5 C 96 % 995,8 hPa 0,2 l/m 10,1 km/h (2 Bft) W-SW 244 0 min 0,000 mm 0,0 UV-I 53 W/m 10,9 C 9,2 C 19,3 km/h (3 Bft) 96,30 %
13.05.2016 13:43 11,5 C 96 % 995,8 hPa 0,0 l/m 12,1 km/h (2 Bft) S-SW 205 0 min 0,000 mm 0,0 UV-I 45 W/m 10,9 C 8,2 C 17,7 km/h (3 Bft) 100,00 %
13.05.2016 13:44 11,4 C 96 % 995,8 hPa 0,0 l/m 11,7 km/h (2 Bft) S-SW 200 0 min 0,000 mm 0,0 UV-I 41 W/m 10,8 C 8,3 C 16,1 km/h (3 Bft) 100,00 %
13.05.2016 13:45 11,4 C 96 % 995,9 hPa 0,2 l/m 8,8 km/h (2 Bft) S-SO 158 0 min 0,000 mm 0,0 UV-I 39 W/m 10,8 C 9,8 C 14,5 km/h (3 Bft) 96,15 %
13.05.2016 13:46 11,4 C 96 % 995,9 hPa 0,0 l/m 11,3 km/h (2 Bft) S 181 0 min 0,000 mm 0,0 UV-I 39 W/m 10,8 C 8,5 C 16,1 km/h (3 Bft) 95,83 %
13.05.2016 13:47 11,4 C 96 % 996,0 hPa 0,0 l/m 11,7 km/h (2 Bft) S-SW 192 0 min 0,000 mm 0,0 UV-I 40 W/m 10,8 C 8,3 C 16,1 km/h (3 Bft) 100,00 %
13.05.2016 13:48 11,4 C 96 % 995,9 hPa 0,0 l/m 9,1 km/h (2 Bft) SW 217 0 min 0,000 mm 0,0 UV-I 45 W/m 10,8 C 9,6 C 16,1 km/h (3 Bft) 100,00 %
13.05.2016 13:49 11,4 C 96 % 996,0 hPa 0,2 l/m 7,1 km/h (2 Bft) SW 219 0 min 0,000 mm 0,0 UV-I 50 W/m 10,8 C 10,9 C 11,3 km/h (2 Bft) 97,73 %
13.05.2016 13:50 11,4 C 96 % 996,0 hPa 0,0 l/m 7,7 km/h (2 Bft) SO 146 0 min 0,000 mm 0,0 UV-I 53 W/m 10,8 C 10,5 C 9,7 km/h (2 Bft) 100,00 %
13.05.2016 13:51 11,4 C 96 % 996,0 hPa 0,0 l/m 9,2 km/h (2 Bft) S-SW 208 0 min 0,000 mm 0,0 UV-I 56 W/m 10,8 C 9,6 C 12,9 km/h (3 Bft) 96,15 %
13.05.2016 13:52 11,4 C 96 % 996,0 hPa 0,2 l/m 9,2 km/h (2 Bft) S 181 0 min 0,000 mm 0,0 UV-I 55 W/m 10,8 C 9,6 C 11,3 km/h (2 Bft) 100,00 %
13.05.2016 13:53 11,4 C 96 % 996,0 hPa 0,0 l/m 7,0 km/h (2 Bft) S-SW 196 0 min 0,000 mm 0,0 UV-I 53 W/m 10,8 C 11,0 C 11,3 km/h (2 Bft) 100,00 %
13.05.2016 13:54 11,4 C 96 % 996,0 hPa 0,2 l/m 9,7 km/h (2 Bft) S-SW 212 0 min 0,000 mm 0,0 UV-I 58 W/m 10,8 C 9,3 C 11,3 km/h (2 Bft) 100,00 %
13.05.2016 13:55 11,4 C 96 % 996,0 hPa 0,0 l/m 7,4 km/h (2 Bft) SW 230 0 min 0,000 mm 0,0 UV-I 65 W/m 10,8 C 10,7 C 11,3 km/h (2 Bft) 100,00 %
13.05.2016 13:56 11,5 C 96 % 996,0 hPa 0,0 l/m 6,6 km/h (2 Bft) SW 223 0 min 0,000 mm 0,2 UV-I 73 W/m 10,9 C 11,4 C 9,7 km/h (2 Bft) 100,00 %
13.05.2016 13:57 11,5 C 96 % 996,0 hPa 0,0 l/m 8,5 km/h (2 Bft) SW 216 0 min 0,000 mm 0,5 UV-I 82 W/m 10,9 C 10,1 C 12,9 km/h (3 Bft) 91,67 %
13.05.2016 13:58 11,4 C 96 % 995,9 hPa 0,2 l/m 7,5 km/h (2 Bft) S-SW 196 0 min 0,000 mm 0,6 UV-I 98 W/m 10,8 C 10,7 C 9,7 km/h (2 Bft) 100,00 %
13.05.2016 13:59 11,5 C 96 % 995,9 hPa 0,0 l/m 10,4 km/h (2 Bft) W-SW 248 0 min 0,000 mm 0,6 UV-I 107 W/m 10,9 C 9,0 C 14,5 km/h (3 Bft) 100,00 %
13.05.2016 14:00 11,5 C 96 % 995,9 hPa 0,0 l/m 9,7 km/h (2 Bft) SW 232 0 min 0,000 mm 0,6 UV-I 109 W/m 10,9 C 9,4 C 14,5 km/h (3 Bft) 100,00 %
13.05.2016 14:01 11,5 C 96 % 996,0 hPa 0,2 l/m 10,1 km/h (2 Bft) W-SW 250 0 min 0,051 mm 0,6 UV-I 105 W/m 10,9 C 9,2 C 20,9 km/h (4 Bft) 100,00 %
13.05.2016 14:02 11,5 C 96 % 996,0 hPa 0,0 l/m 7,4 km/h (2 Bft) S 184 0 min 0,000 mm 0,6 UV-I 97 W/m 10,9 C 10,8 C 12,9 km/h (3 Bft) 100,00 %
13.05.2016 14:03 11,6 C 96 % 996,0 hPa 0,0 l/m 11,3 km/h (2 Bft) SW 236 0 min 0,000 mm 0,5 UV-I 91 W/m 11,0 C 8,7 C 16,1 km/h (3 Bft) 100,00 %
13.05.2016 14:04 11,6 C 96 % 996,0 hPa 0,0 l/m 10,7 km/h (2 Bft) SW 220 0 min 0,000 mm 0,5 UV-I 88 W/m 11,0 C 9,0 C 16,1 km/h (3 Bft) 96,15 %
13.05.2016 14:05 11,6 C 96 % 996,0 hPa 0,0 l/m 9,6 km/h (2 Bft) SW 227 0 min 0,000 mm 0,5 UV-I 90 W/m 11,0 C 9,6 C 12,9 km/h (3 Bft) 100,00 %
13.05.2016 14:06 11,6 C 96 % 996,1 hPa 0,2 l/m 10,9 km/h (2 Bft) SW 227 0 min 0,000 mm 0,0 UV-I 81 W/m 11,0 C 8,9 C 14,5 km/h (3 Bft) 100,00 %
13.05.2016 14:07 11,6 C 96 % 996,0 hPa 0,0 l/m 11,2 km/h (2 Bft) SW 224 0 min 0,000 mm 0,0 UV-I 71 W/m 11,0 C 8,7 C 16,1 km/h (3 Bft) 100,00 %
13.05.2016 14:08 11,6 C 96 % 996,0 hPa 0,0 l/m 10,1 km/h (2 Bft) SW 228 0 min 0,000 mm 0,0 UV-I 70 W/m 11,0 C 9,3 C 14,5 km/h (3 Bft) 100,00 %
13.05.2016 14:09 11,6 C 96 % 996,0 hPa 0,0 l/m 10,8 km/h (2 Bft) SW 218 0 min 0,000 mm 0,0 UV-I 70 W/m 11,0 C 8,9 C 16,1 km/h (3 Bft) 100,00 %
13.05.2016 14:10 11,6 C 96 % 996,1 hPa 0,0 l/m 16,9 km/h (3 Bft) SW 231 0 min 0,000 mm 0,0 UV-I 70 W/m 11,0 C 6,4 C 20,9 km/h (4 Bft) 96,55 %
13.05.2016 14:11 11,6 C 96 % 996,0 hPa 0,0 l/m 10,3 km/h (2 Bft) S 186 0 min 0,000 mm 0,0 UV-I 74 W/m 11,0 C 9,2 C 14,5 km/h (3 Bft) 96,30 %
13.05.2016 14:12 11,6 C 96 % 996,0 hPa 0,0 l/m 11,9 km/h (2 Bft) S-SW 198 0 min 0,000 mm 0,0 UV-I 76 W/m 11,0 C 8,4 C 20,9 km/h (4 Bft) 100,00 %
13.05.2016 14:13 11,6 C 96 % 996,0 hPa 0,0 l/m 11,7 km/h (2 Bft) SW 233 0 min 0,000 mm 0,0 UV-I 68 W/m 11,0 C 8,5 C 17,7 km/h (3 Bft) 100,00 %
13.05.2016 14:14 11,6 C 96 % 996,0 hPa 0,0 l/m 12,1 km/h (2 Bft) S 172 0 min 0,000 mm 0,0 UV-I 54 W/m 11,0 C 8,3 C 16,1 km/h (3 Bft) 100,00 %
13.05.2016 14:15 11,6 C 96 % 996,0 hPa 0,2 l/m 8,6 km/h (2 Bft) S 182 0 min 0,000 mm 0,0 UV-I 46 W/m 11,0 C 10,2 C 12,9 km/h (3 Bft) 83,33 %
13.05.2016 14:16 11,6 C 96 % 996,0 hPa 0,0 l/m 9,9 km/h (2 Bft) S-SW 213 0 min 0,000 mm 0,0 UV-I 42 W/m 11,0 C 9,4 C 12,9 km/h (3 Bft) 100,00 %
13.05.2016 14:17 11,6 C 96 % 996,0 hPa 0,0 l/m 10,6 km/h (2 Bft) S-SO 164 0 min 0,000 mm 0,0 UV-I 42 W/m 11,0 C 9,0 C 16,1 km/h (3 Bft) 95,65 %
13.05.2016 14:18 11,6 C 96 % 996,0 hPa 0,0 l/m 11,2 km/h (2 Bft) SW 221 0 min 0,000 mm 0,0 UV-I 42 W/m 11,0 C 8,7 C 14,5 km/h (3 Bft) 100,00 %
13.05.2016 14:19 11,6 C 96 % 996,0 hPa 0,0 l/m 5,6 km/h (1 Bft) S-SW 211 0 min 0,000 mm 0,0 UV-I 44 W/m 11,0 C 11,6 C 9,7 km/h (2 Bft) 100,00 %
13.05.2016 14:20 11,5 C 96 % 996,0 hPa 0,2 l/m 10,9 km/h (2 Bft) SW 224 0 min 0,000 mm 0,0 UV-I 44 W/m 10,9 C 8,8 C 16,1 km/h (3 Bft) 100,00 %
13.05.2016 14:21 11,5 C 96 % 996,0 hPa 0,0 l/m 8,1 km/h (2 Bft) W-SW 238 0 min 0,000 mm 0,0 UV-I 40 W/m 10,9 C 10,4 C 11,3 km/h (2 Bft) 100,00 %
13.05.2016 14:22 11,6 C 96 % 996,0 hPa 0,2 l/m 9,8 km/h (2 Bft) SW 236 0 min 0,000 mm 0,0 UV-I 42 W/m 11,0 C 9,5 C 14,5 km/h (3 Bft) 100,00 %
13.05.2016 14:23 11,6 C 96 % 996,0 hPa 0,0 l/m 10,9 km/h (2 Bft) S-SW 208 0 min 0,000 mm 0,0 UV-I 47 W/m 11,0 C 8,9 C 12,9 km/h (3 Bft) 98,56 %
13.05.2016 14:24 11,5 C 96 % 996,0 hPa 0,4 l/m 12,5 km/h (3 Bft) SW 222 0 min 0,000 mm 0,0 UV-I 47 W/m 10,9 C 8,0 C 19,3 km/h (3 Bft) 100,00 %
13.05.2016 14:25 11,5 C 96 % 996,0 hPa 0,0 l/m 11,8 km/h (2 Bft) S-SW 212 0 min 0,000 mm 0,0 UV-I 46 W/m 10,9 C 8,3 C 16,1 km/h (3 Bft) 100,00 %
13.05.2016 14:26 11,5 C 96 % 996,0 hPa 0,2 l/m 9,9 km/h (2 Bft) S-SW 208 0 min 0,000 mm 0,0 UV-I 47 W/m 10,9 C 9,3 C 14,5 km/h (3 Bft) 100,00 %
13.05.2016 14:27 11,5 C 96 % 996,0 hPa 0,2 l/m 8,8 km/h (2 Bft) SW 228 0 min 0,000 mm 0,0 UV-I 46 W/m 10,9 C 9,9 C 12,9 km/h (3 Bft) 100,00 %
13.05.2016 14:28 11,5 C 96 % 996,0 hPa 0,0 l/m 7,7 km/h (2 Bft) S-SW 192 0 min 0,000 mm 0,0 UV-I 46 W/m 10,9 C 10,6 C 11,3 km/h (2 Bft) 100,00 %
13.05.2016 14:29 11,5 C 96 % 995,9 hPa 0,2 l/m 7,3 km/h (2 Bft) S-SW 205 0 min 0,000 mm 0,0 UV-I 47 W/m 10,9 C 10,9 C 11,3 km/h (2 Bft) 100,00 %
13.05.2016 14:30 11,5 C 96 % 995,9 hPa 0,0 l/m 9,2 km/h (2 Bft) W-SW 239 0 min 0,000 mm 0,0 UV-I 48 W/m 10,9 C 9,7 C 14,5 km/h (3 Bft) 100,00 %
13.05.2016 14:33 11,5 C 96 % 996,0 hPa 0,2 l/m 11,0 km/h (2 Bft) SW 236 0 min 0,000 mm 0,0 UV-I 62 W/m 10,9 C 8,7 C 17,7 km/h (3 Bft) 98,61 %
13.05.2016 14:34 11,6 C 96 % 996,0 hPa 0,0 l/m 8,3 km/h (2 Bft) S-SW 204 0 min 0,000 mm 0,0 UV-I 63 W/m 11,0 C 10,3 C 11,3 km/h (2 Bft) 100,00 %
13.05.2016 14:35 11,5 C 96 % 996,0 hPa 0,0 l/m 11,3 km/h (2 Bft) W 269 0 min 0,000 mm 0,0 UV-I 67 W/m 10,9 C 8,6 C 17,7 km/h (3 Bft) 96,15 %
13.05.2016 14:36 11,5 C 96 % 996,0 hPa 0,0 l/m 9,7 km/h (2 Bft) W-SW 250 0 min 0,000 mm 0,0 UV-I 69 W/m 10,9 C 9,4 C 14,5 km/h (3 Bft) 100,00 %
13.05.2016 14:37 11,6 C 96 % 996,0 hPa 0,0 l/m 8,8 km/h (2 Bft) W-SW 240 0 min 0,000 mm 0,0 UV-I 70 W/m 11,0 C 10,0 C 14,5 km/h (3 Bft) 100,00 %
13.05.2016 14:38 11,6 C 96 % 996,0 hPa 0,0 l/m 8,2 km/h (2 Bft) S-SW 211 0 min 0,000 mm 0,0 UV-I 69 W/m 11,0 C 10,4 C 14,5 km/h (3 Bft) 100,00 %
13.05.2016 14:39 11,6 C 96 % 996,0 hPa 0,0 l/m 12,0 km/h (2 Bft) S-SW 204 0 min 0,000 mm 0,0 UV-I 67 W/m 11,0 C 8,4 C 20,9 km/h (4 Bft) 96,30 %
13.05.2016 14:40 11,6 C 96 % 996,0 hPa 0,2 l/m 14,9 km/h (3 Bft) SW 231 0 min 0,000 mm 0,0 UV-I 63 W/m 11,0 C 7,1 C 19,3 km/h (3 Bft) 100,00 %
13.05.2016 14:41 11,6 C 96 % 996,0 hPa 0,0 l/m 10,8 km/h (2 Bft) S-SW 196 0 min 0,000 mm 0,0 UV-I 62 W/m 11,0 C 8,9 C 16,1 km/h (3 Bft) 100,00 %
13.05.2016 14:42 11,6 C 96 % 996,1 hPa 0,0 l/m 10,5 km/h (2 Bft) W-SW 248 0 min 0,000 mm 0,0 UV-I 65 W/m 11,0 C 9,1 C 16,1 km/h (3 Bft) 96,55 %
13.05.2016 14:43 11,6 C 96 % 996,0 hPa 0,0 l/m 13,7 km/h (3 Bft) SW 226 0 min 0,000 mm 0,0 UV-I 71 W/m 11,0 C 7,6 C 20,9 km/h (4 Bft) 100,00 %
13.05.2016 14:44 11,6 C 96 % 996,0 hPa 0,0 l/m 8,9 km/h (2 Bft) S-SW 210 0 min 0,000 mm 0,0 UV-I 76 W/m 11,0 C 10,0 C 12,9 km/h (3 Bft) 97,14 %
13.05.2016 14:45 11,7 C 96 % 996,0 hPa 0,0 l/m 9,2 km/h (2 Bft) SW 225 0 min 0,000 mm 0,0 UV-I 73 W/m 11,1 C 9,9 C 12,9 km/h (3 Bft) 100,00 %
13.05.2016 14:46 11,7 C 96 % 996,0 hPa 0,0 l/m 13,3 km/h (3 Bft) W-SW 250 0 min 0,000 mm 0,0 UV-I 74 W/m 11,1 C 7,9 C 20,9 km/h (4 Bft) 100,00 %
13.05.2016 14:47 11,7 C 96 % 996,0 hPa 0,2 l/m 13,1 km/h (3 Bft) S-SW 194 0 min 0,000 mm 0,0 UV-I 73 W/m 11,1 C 8,0 C 19,3 km/h (3 Bft) 96,30 %
13.05.2016 14:48 11,7 C 96 % 996,0 hPa 0,0 l/m 9,7 km/h (2 Bft) SW 229 0 min 0,000 mm 0,0 UV-I 74 W/m 11,1 C 9,6 C 11,3 km/h (2 Bft) 100,00 %
13.05.2016 14:49 11,7 C 97 % 996,0 hPa 0,0 l/m 12,2 km/h (2 Bft) S 185 0 min 0,000 mm 0,0 UV-I 73 W/m 11,2 C 8,4 C 19,3 km/h (3 Bft) 91,67 %
13.05.2016 14:50 11,7 C 97 % 996,0 hPa 0,0 l/m 14,2 km/h (3 Bft) SW 223 0 min 0,000 mm 0,0 UV-I 78 W/m 11,2 C 7,5 C 19,3 km/h (3 Bft) 96,88 %
13.05.2016 14:51 11,7 C 97 % 996,0 hPa 0,0 l/m 14,5 km/h (3 Bft) SW 236 0 min 0,000 mm 0,0 UV-I 83 W/m 11,2 C 7,4 C 24,1 km/h (4 Bft) 92,59 %
13.05.2016 14:52 11,7 C 97 % 995,9 hPa 0,0 l/m 12,6 km/h (3 Bft) SW 226 0 min 0,000 mm 0,0 UV-I 83 W/m 11,2 C 8,2 C 20,9 km/h (4 Bft) 95,65 %
13.05.2016 14:53 11,7 C 96 % 995,9 hPa 0,0 l/m 14,1 km/h (3 Bft) W-SW 252 0 min 0,000 mm 0,1 UV-I 84 W/m 11,1 C 7,6 C 19,3 km/h (3 Bft) 100,00 %
13.05.2016 14:54 11,7 C 96 % 996,0 hPa 0,0 l/m 16,1 km/h (3 Bft) SW 227 0 min 0,000 mm 0,5 UV-I 87 W/m 11,1 C 6,8 C 25,7 km/h (4 Bft) 96,15 %
13.05.2016 14:55 11,7 C 96 % 996,0 hPa 0,0 l/m 14,2 km/h (3 Bft) SW 217 0 min 0,000 mm 0,5 UV-I 90 W/m 11,1 C 7,5 C 20,9 km/h (4 Bft) 100,00 %
13.05.2016 14:56 11,7 C 96 % 996,0 hPa 0,0 l/m 14,8 km/h (3 Bft) W-SW 238 0 min 0,000 mm 0,5 UV-I 94 W/m 11,1 C 7,3 C 20,9 km/h (4 Bft) 95,65 %
13.05.2016 14:57 11,7 C 96 % 995,9 hPa 0,0 l/m 12,6 km/h (3 Bft) W-SW 248 0 min 0,000 mm 0,5 UV-I 93 W/m 11,1 C 8,2 C 22,5 km/h (4 Bft) 91,67 %
13.05.2016 14:58 11,8 C 96 % 996,0 hPa 0,2 l/m 10,9 km/h (2 Bft) S-SO 153 0 min 0,000 mm 0,5 UV-I 90 W/m 11,2 C 9,1 C 16,1 km/h (3 Bft) 100,00 %
13.05.2016 14:59 11,8 C 96 % 995,9 hPa 0,0 l/m 13,1 km/h (3 Bft) S 180 0 min 0,000 mm 0,1 UV-I 84 W/m 11,2 C 8,1 C 20,9 km/h (4 Bft) 100,00 %
13.05.2016 15:00 11,8 C 96 % 996,0 hPa 0,0 l/m 14,6 km/h (3 Bft) S-SO 167 0 min 0,026 mm 0,5 UV-I 85 W/m 11,2 C 7,5 C 19,3 km/h (3 Bft) 95,83 %
13.05.2016 15:01 11,8 C 96 % 995,9 hPa 0,0 l/m 12,4 km/h (3 Bft) SW 232 0 min 0,000 mm 0,3 UV-I 84 W/m 11,2 C 8,4 C 17,7 km/h (3 Bft) 96,15 %
13.05.2016 15:02 11,8 C 96 % 995,9 hPa 0,0 l/m 11,7 km/h (2 Bft) S 184 0 min 0,000 mm 0,0 UV-I 80 W/m 11,2 C 8,7 C 17,7 km/h (3 Bft) 100,00 %
13.05.2016 15:03 11,8 C 96 % 996,0 hPa 0,0 l/m 13,9 km/h (3 Bft) SW 214 0 min 0,000 mm 0,0 UV-I 76 W/m 11,2 C 7,8 C 20,9 km/h (4 Bft) 95,65 %
13.05.2016 15:04 11,8 C 96 % 996,0 hPa 0,0 l/m 12,4 km/h (3 Bft) SW 227 0 min 0,000 mm 0,0 UV-I 71 W/m 11,2 C 8,4 C 19,3 km/h (3 Bft) 100,00 %
13.05.2016 15:05 11,8 C 96 % 996,0 hPa 0,0 l/m 10,0 km/h (2 Bft) S-SW 194 0 min 0,000 mm 0,0 UV-I 68 W/m 11,2 C 9,6 C 16,1 km/h (3 Bft) 92,86 %
13.05.2016 15:06 11,8 C 96 % 996,0 hPa 0,0 l/m 12,5 km/h (3 Bft) S 179 0 min 0,000 mm 0,0 UV-I 64 W/m 11,2 C 8,4 C 19,3 km/h (3 Bft) 100,00 %
13.05.2016 15:07 11,8 C 96 % 996,0 hPa 0,2 l/m 11,3 km/h (2 Bft) W-SW 242 0 min 0,000 mm 0,0 UV-I 66 W/m 11,2 C 8,9 C 17,7 km/h (3 Bft) 92,31 %
13.05.2016 15:08 11,8 C 96 % 996,0 hPa 0,0 l/m 10,5 km/h (2 Bft) S 182 0 min 0,000 mm 0,0 UV-I 71 W/m 11,2 C 9,3 C 16,1 km/h (3 Bft) 95,83 %
13.05.2016 15:09 11,8 C 96 % 995,9 hPa 0,0 l/m 13,1 km/h (3 Bft) SW 215 0 min 0,000 mm 0,0 UV-I 79 W/m 11,2 C 8,1 C 17,7 km/h (3 Bft) 100,00 %
13.05.2016 15:10 11,8 C 96 % 995,9 hPa 0,0 l/m 14,6 km/h (3 Bft) SO 144 0 min 0,000 mm 0,0 UV-I 83 W/m 11,2 C 7,5 C 22,5 km/h (4 Bft) 96,30 %
13.05.2016 15:11 11,8 C 96 % 996,0 hPa 0,0 l/m 9,7 km/h (2 Bft) SW 216 0 min 0,000 mm 0,1 UV-I 85 W/m 11,2 C 9,7 C 12,9 km/h (3 Bft) 96,55 %
13.05.2016 15:12 11,8 C 96 % 996,0 hPa 0,0 l/m 14,9 km/h (3 Bft) W-SW 239 0 min 0,000 mm 0,5 UV-I 91 W/m 11,2 C 7,4 C 20,9 km/h (4 Bft) 93,33 %
13.05.2016 15:13 11,8 C 96 % 995,9 hPa 0,0 l/m 11,7 km/h (2 Bft) S 191 0 min 0,000 mm 0,5 UV-I 96 W/m 11,2 C 8,7 C 14,5 km/h (3 Bft) 100,00 %
13.05.2016 15:14 11,8 C 96 % 995,9 hPa 0,0 l/m 12,3 km/h (3 Bft) S 181 0 min 0,000 mm 0,6 UV-I 102 W/m 11,2 C 8,4 C 17,7 km/h (3 Bft) 95,83 %
13.05.2016 15:15 11,9 C 96 % 996,0 hPa 0,0 l/m 11,6 km/h (2 Bft) S-SW 200 0 min 0,000 mm 0,1 UV-I 42 W/m 11,3 C 8,9 C 17,7 km/h (3 Bft) 100,00 %
13.05.2016 15:16 11,9 C 96 % 996,0 hPa 0,0 l/m 13,0 km/h (3 Bft) S 188 0 min 0,000 mm 0,5 UV-I 103 W/m 11,3 C 8,3 C 22,5 km/h (4 Bft) 96,15 %
13.05.2016 15:17 11,9 C 96 % 996,0 hPa 0,0 l/m 15,7 km/h (3 Bft) S-SW 205 0 min 0,000 mm 0,5 UV-I 100 W/m 11,3 C 7,2 C 27,4 km/h (4 Bft) 100,00 %
13.05.2016 15:18 11,9 C 96 % 996,0 hPa 0,0 l/m 13,0 km/h (3 Bft) W-SW 239 0 min 0,000 mm 0,6 UV-I 101 W/m 11,3 C 8,3 C 17,7 km/h (3 Bft) 96,15 %
13.05.2016 15:19 11,9 C 96 % 996,0 hPa 0,2 l/m 11,6 km/h (2 Bft) W-SW 244 0 min 0,000 mm 0,6 UV-I 104 W/m 11,3 C 8,9 C 16,1 km/h (3 Bft) 96,67 %
13.05.2016 15:20 11,9 C 96 % 996,0 hPa 0,0 l/m 14,0 km/h (3 Bft) S 174 0 min 0,000 mm 0,6 UV-I 108 W/m 11,3 C 7,8 C 19,3 km/h (3 Bft) 92,86 %
13.05.2016 15:21 11,9 C 96 % 995,9 hPa 0,0 l/m 12,8 km/h (3 Bft) S-SW 207 0 min 0,000 mm 0,6 UV-I 117 W/m 11,3 C 8,3 C 17,7 km/h (3 Bft) 100,00 %
13.05.2016 15:22 11,9 C 96 % 996,0 hPa 0,0 l/m 13,1 km/h (3 Bft) S-SW 205 0 min 0,000 mm 0,7 UV-I 120 W/m 11,3 C 8,2 C 17,7 km/h (3 Bft) 95,45 %
13.05.2016 15:23 11,9 C 96 % 995,9 hPa 0,0 l/m 10,5 km/h (2 Bft) SW 231 0 min 0,000 mm 0,7 UV-I 125 W/m 11,3 C 9,4 C 14,5 km/h (3 Bft) 100,00 %
13.05.2016 15:24 12,0 C 96 % 996,0 hPa 0,0 l/m 12,6 km/h (3 Bft) W-SW 240 0 min 0,000 mm 0,7 UV-I 125 W/m 11,4 C 8,5 C 20,9 km/h (4 Bft) 100,00 %
13.05.2016 15:25 12,0 C 96 % 996,0 hPa 0,0 l/m 15,6 km/h (3 Bft) SW 217 0 min 0,000 mm 0,7 UV-I 126 W/m 11,4 C 7,3 C 24,1 km/h (4 Bft) 100,00 %
13.05.2016 15:26 12,0 C 96 % 996,0 hPa 0,0 l/m 14,1 km/h (3 Bft) SW 220 0 min 0,000 mm 0,7 UV-I 128 W/m 11,4 C 7,9 C 17,7 km/h (3 Bft) 100,00 %
13.05.2016 15:27 12,1 C 96 % 996,0 hPa 0,0 l/m 14,7 km/h (3 Bft) SW 214 0 min 0,000 mm 0,7 UV-I 125 W/m 11,5 C 7,8 C 20,9 km/h (4 Bft) 100,00 %
13.05.2016 15:28 12,1 C 96 % 996,0 hPa 0,0 l/m 12,4 km/h (3 Bft) SW 221 0 min 0,000 mm 0,6 UV-I 120 W/m 11,5 C 8,8 C 19,3 km/h (3 Bft) 95,65 %
13.05.2016 15:29 12,1 C 96 % 996,0 hPa 0,2 l/m 14,0 km/h (3 Bft) SW 231 0 min 0,000 mm 0,6 UV-I 113 W/m 11,5 C 8,1 C 24,1 km/h (4 Bft) 100,00 %
13.05.2016 15:30 12,1 C 96 % 996,0 hPa 0,0 l/m 14,6 km/h (3 Bft) SW 231 0 min 0,000 mm 0,6 UV-I 109 W/m 11,5 C 7,8 C 20,9 km/h (4 Bft) 100,00 %
13.05.2016 15:31 12,1 C 96 % 996,0 hPa 0,0 l/m 11,3 km/h (2 Bft) SW 217 0 min 0,000 mm 0,6 UV-I 111 W/m 11,5 C 9,3 C 16,1 km/h (3 Bft) 100,00 %
13.05.2016 15:32 12,1 C 96 % 996,0 hPa 0,0 l/m 13,7 km/h (3 Bft) S-SW 212 0 min 0,000 mm 0,6 UV-I 119 W/m 11,5 C 8,2 C 17,7 km/h (3 Bft) 100,00 %
13.05.2016 15:33 12,1 C 96 % 995,9 hPa 0,0 l/m 14,9 km/h (3 Bft) SW 231 0 min 0,000 mm 0,7 UV-I 122 W/m 11,5 C 7,7 C 20,9 km/h (4 Bft) 96,30 %
13.05.2016 15:34 12,1 C 96 % 995,9 hPa 0,0 l/m 14,4 km/h (3 Bft) SW 215 0 min 0,000 mm 0,7 UV-I 128 W/m 11,5 C 7,9 C 25,7 km/h (4 Bft) 100,00 %
13.05.2016 15:35 12,1 C 96 % 996,0 hPa 0,0 l/m 14,6 km/h (3 Bft) S 171 0 min 0,000 mm 0,7 UV-I 127 W/m 11,5 C 7,8 C 20,9 km/h (4 Bft) 100,00 %
13.05.2016 15:36 12,1 C 95 % 995,9 hPa 0,0 l/m 16,3 km/h (3 Bft) SW 225 0 min 0,000 mm 0,7 UV-I 127 W/m 11,3 C 7,2 C 20,9 km/h (4 Bft) 100,00 %
13.05.2016 15:37 12,2 C 96 % 996,0 hPa 0,0 l/m 8,7 km/h (2 Bft) S-SW 212 0 min 0,000 mm 0,6 UV-I 122 W/m 11,6 C 10,7 C 17,7 km/h (3 Bft) 100,00 %
13.05.2016 15:38 12,2 C 96 % 996,0 hPa 0,0 l/m 9,2 km/h (2 Bft) S 182 0 min 0,000 mm 0,6 UV-I 123 W/m 11,6 C 10,5 C 16,1 km/h (3 Bft) 100,00 %
13.05.2016 15:39 12,2 C 96 % 996,0 hPa 0,0 l/m 13,7 km/h (3 Bft) S 186 0 min 0,000 mm 0,7 UV-I 128 W/m 11,6 C 8,3 C 20,9 km/h (4 Bft) 100,00 %
13.05.2016 15:40 12,2 C 96 % 995,9 hPa 0,2 l/m 15,6 km/h (3 Bft) S-SW 197 0 min 0,000 mm 0,6 UV-I 128 W/m 11,6 C 7,6 C 22,5 km/h (4 Bft) 100,00 %
13.05.2016 15:41 12,2 C 95 % 995,9 hPa 0,0 l/m 14,7 km/h (3 Bft) S-SO 164 0 min 0,000 mm 0,6 UV-I 127 W/m 11,4 C 7,9 C 24,1 km/h (4 Bft) 100,00 %
13.05.2016 15:42 12,2 C 96 % 995,9 hPa 0,0 l/m 11,8 km/h (2 Bft) W-SW 242 0 min 0,000 mm 0,6 UV-I 127 W/m 11,6 C 9,1 C 19,3 km/h (3 Bft) 100,00 %
13.05.2016 15:43 12,2 C 96 % 995,9 hPa 0,0 l/m 16,3 km/h (3 Bft) W-SW 248 0 min 0,000 mm 0,6 UV-I 127 W/m 11,6 C 7,3 C 22,5 km/h (4 Bft) 100,00 %
13.05.2016 15:44 12,2 C 96 % 995,9 hPa 0,0 l/m 14,6 km/h (3 Bft) S-SW 203 0 min 0,000 mm 0,6 UV-I 125 W/m 11,6 C 8,0 C 19,3 km/h (3 Bft) 100,00 %
13.05.2016 15:45 12,3 C 96 % 995,9 hPa 0,0 l/m 15,2 km/h (3 Bft) W-SW 246 0 min 0,000 mm 0,6 UV-I 121 W/m 11,7 C 7,8 C 20,9 km/h (4 Bft) 98,52 %
13.05.2016 15:46 12,3 C 96 % 995,9 hPa 0,0 l/m 15,0 km/h (3 Bft) W-SW 240 0 min 0,000 mm 0,6 UV-I 117 W/m 11,7 C 7,9 C 22,5 km/h (4 Bft) 100,00 %
13.05.2016 15:47 12,2 C 96 % 995,9 hPa 0,0 l/m 15,8 km/h (3 Bft) S 177 0 min 0,000 mm 0,6 UV-I 112 W/m 11,6 C 7,5 C 24,1 km/h (4 Bft) 96,15 %
13.05.2016 15:48 12,2 C 95 % 995,9 hPa 0,2 l/m 16,4 km/h (3 Bft) S-SW 203 0 min 0,000 mm 0,5 UV-I 108 W/m 11,4 C 7,3 C 24,1 km/h (4 Bft) 96,67 %
13.05.2016 15:49 12,2 C 95 % 995,9 hPa 0,0 l/m 13,2 km/h (3 Bft) SW 215 0 min 0,000 mm 0,5 UV-I 104 W/m 11,4 C 8,5 C 22,5 km/h (4 Bft) 100,00 %
13.05.2016 15:50 12,3 C 95 % 995,9 hPa 0,0 l/m 11,5 km/h (2 Bft) S-SW 196 0 min 0,000 mm 0,5 UV-I 98 W/m 11,5 C 9,4 C 17,7 km/h (3 Bft) 100,00 %
13.05.2016 15:51 12,3 C 95 % 996,0 hPa 0,0 l/m 9,9 km/h (2 Bft) SW 219 0 min 0,000 mm 0,5 UV-I 98 W/m 11,5 C 10,2 C 17,7 km/h (3 Bft) 100,00 %
13.05.2016 15:52 12,3 C 96 % 995,9 hPa 0,0 l/m 9,8 km/h (2 Bft) S-SW 199 0 min 0,000 mm 0,4 UV-I 95 W/m 11,7 C 10,2 C 14,5 km/h (3 Bft) 100,00 %
13.05.2016 15:53 12,3 C 96 % 995,9 hPa 0,0 l/m 13,9 km/h (3 Bft) SW 230 0 min 0,000 mm 0,0 UV-I 86 W/m 11,7 C 8,4 C 20,9 km/h (4 Bft) 100,00 %
13.05.2016 15:54 12,3 C 95 % 995,9 hPa 0,0 l/m 13,6 km/h (3 Bft) SW 214 0 min 0,000 mm 0,0 UV-I 86 W/m 11,5 C 8,5 C 19,3 km/h (3 Bft) 100,00 %
13.05.2016 15:55 12,3 C 95 % 996,0 hPa 0,0 l/m 15,3 km/h (3 Bft) SW 236 0 min 0,000 mm 0,0 UV-I 88 W/m 11,5 C 7,8 C 30,6 km/h (5 Bft) 100,00 %
13.05.2016 15:56 12,3 C 95 % 995,9 hPa 0,0 l/m 17,7 km/h (3 Bft) SW 220 0 min 0,000 mm 0,0 UV-I 88 W/m 11,5 C 7,0 C 27,4 km/h (4 Bft) 100,00 %
13.05.2016 15:57 12,3 C 95 % 995,9 hPa 0,0 l/m 14,3 km/h (3 Bft) S 178 0 min 0,000 mm 0,0 UV-I 86 W/m 11,5 C 8,2 C 22,5 km/h (4 Bft) 100,00 %
13.05.2016 15:58 12,3 C 95 % 995,9 hPa 0,0 l/m 14,4 km/h (3 Bft) S 170 0 min 0,000 mm 0,0 UV-I 87 W/m 11,5 C 8,2 C 24,1 km/h (4 Bft) 100,00 %
13.05.2016 15:59 12,3 C 95 % 995,9 hPa 0,0 l/m 14,3 km/h (3 Bft) S-SW 198 0 min 0,000 mm 0,0 UV-I 86 W/m 11,5 C 8,2 C 22,5 km/h (4 Bft) 100,00 %
13.05.2016 16:00 12,3 C 95 % 995,9 hPa 0,0 l/m 15,5 km/h (3 Bft) S-SW 200 0 min 0,050 mm 0,0 UV-I 86 W/m 11,5 C 7,7 C 22,5 km/h (4 Bft) 100,00 %
13.05.2016 16:01 12,2 C 95 % 995,9 hPa 0,0 l/m 13,4 km/h (3 Bft) SW 219 0 min 0,000 mm 0,0 UV-I 85 W/m 11,4 C 8,4 C 19,3 km/h (3 Bft) 100,00 %
13.05.2016 16:02 12,3 C 95 % 995,9 hPa 0,0 l/m 17,2 km/h (3 Bft) S 186 0 min 0,000 mm 0,0 UV-I 84 W/m 11,5 C 7,1 C 24,1 km/h (4 Bft) 100,00 %
13.05.2016 16:03 12,3 C 95 % 995,9 hPa 0,0 l/m 14,1 km/h (3 Bft) SW 214 0 min 0,000 mm 0,0 UV-I 82 W/m 11,5 C 8,3 C 20,9 km/h (4 Bft) 100,00 %
13.05.2016 16:04 12,3 C 95 % 995,9 hPa 0,0 l/m 8,3 km/h (2 Bft) S 184 0 min 0,000 mm 0,0 UV-I 80 W/m 11,5 C 11,1 C 14,5 km/h (3 Bft) 100,00 %
13.05.2016 16:05 12,3 C 95 % 995,9 hPa 0,0 l/m 14,1 km/h (3 Bft) SW 215 0 min 0,000 mm 0,0 UV-I 76 W/m 11,5 C 8,3 C 24,1 km/h (4 Bft) 96,30 %
13.05.2016 16:06 12,3 C 95 % 995,9 hPa 0,0 l/m 14,7 km/h (3 Bft) S-SW 196 0 min 0,000 mm 0,0 UV-I 74 W/m 11,5 C 8,0 C 19,3 km/h (3 Bft) 96,15 %
13.05.2016 16:07 12,3 C 95 % 995,9 hPa 0,0 l/m 13,2 km/h (3 Bft) SW 221 0 min 0,000 mm 0,0 UV-I 72 W/m 11,5 C 8,6 C 22,5 km/h (4 Bft) 100,00 %
13.05.2016 16:08 12,3 C 95 % 995,9 hPa 0,0 l/m 15,2 km/h (3 Bft) SW 216 0 min 0,000 mm 0,0 UV-I 70 W/m 11,5 C 7,8 C 20,9 km/h (4 Bft) 100,00 %
13.05.2016 16:09 12,3 C 95 % 995,9 hPa 0,0 l/m 13,8 km/h (3 Bft) S-SW 205 0 min 0,000 mm 0,0 UV-I 70 W/m 11,5 C 8,4 C 25,7 km/h (4 Bft) 100,00 %
13.05.2016 16:10 12,3 C 95 % 996,0 hPa 0,0 l/m 16,2 km/h (3 Bft) S-SW 196 0 min 0,000 mm 0,0 UV-I 68 W/m 11,5 C 7,5 C 24,1 km/h (4 Bft) 100,00 %
13.05.2016 16:11 12,3 C 95 % 995,9 hPa 0,0 l/m 17,4 km/h (3 Bft) SW 216 0 min 0,000 mm 0,0 UV-I 65 W/m 11,5 C 7,1 C 24,1 km/h (4 Bft) 100,00 %
13.05.2016 16:12 12,3 C 95 % 995,9 hPa 0,2 l/m 15,1 km/h (3 Bft) S-SW 201 0 min 0,000 mm 0,0 UV-I 61 W/m 11,5 C 7,9 C 25,7 km/h (4 Bft) 100,00 %
13.05.2016 16:13 12,3 C 95 % 996,0 hPa 0,0 l/m 13,5 km/h (3 Bft) S-SW 196 0 min 0,000 mm 0,0 UV-I 58 W/m 11,5 C 8,5 C 22,5 km/h (4 Bft) 100,00 %
13.05.2016 16:14 12,3 C 95 % 996,1 hPa 0,0 l/m 13,6 km/h (3 Bft) S-SW 205 0 min 0,000 mm 0,0 UV-I 58 W/m 11,5 C 8,5 C 19,3 km/h (3 Bft) 100,00 %
13.05.2016 16:15 12,3 C 95 % 996,0 hPa 0,0 l/m 12,9 km/h (3 Bft) W-SW 248 0 min 0,000 mm 0,0 UV-I 60 W/m 11,5 C 8,8 C 19,3 km/h (3 Bft) 100,00 %
13.05.2016 16:16 12,3 C 95 % 996,0 hPa 0,0 l/m 15,4 km/h (3 Bft) SW 230 0 min 0,000 mm 0,0 UV-I 66 W/m 11,5 C 7,8 C 25,7 km/h (4 Bft) 96,30 %
13.05.2016 16:17 12,3 C 95 % 996,0 hPa 0,0 l/m 15,8 km/h (3 Bft) S-SW 204 0 min 0,000 mm 0,0 UV-I 70 W/m 11,5 C 7,6 C 24,1 km/h (4 Bft) 100,00 %
13.05.2016 16:18 12,3 C 95 % 996,0 hPa 0,0 l/m 15,5 km/h (3 Bft) S-SW 199 0 min 0,000 mm 0,0 UV-I 73 W/m 11,5 C 7,7 C 20,9 km/h (4 Bft) 100,00 %
13.05.2016 16:19 12,3 C 95 % 996,0 hPa 0,0 l/m 12,0 km/h (2 Bft) S-SW 205 0 min 0,000 mm 0,0 UV-I 74 W/m 11,5 C 9,2 C 19,3 km/h (3 Bft) 100,00 %
13.05.2016 16:20 12,3 C 95 % 996,0 hPa 0,0 l/m 13,8 km/h (3 Bft) W-SW 245 0 min 0,000 mm 0,0 UV-I 76 W/m 11,5 C 8,4 C 20,9 km/h (4 Bft) 100,00 %
13.05.2016 16:21 12,3 C 95 % 996,0 hPa 0,0 l/m 17,6 km/h (3 Bft) SW 228 0 min 0,000 mm 0,0 UV-I 78 W/m 11,5 C 7,0 C 27,4 km/h (4 Bft) 100,00 %
13.05.2016 16:22 12,3 C 95 % 996,0 hPa 0,0 l/m 17,3 km/h (3 Bft) S 188 0 min 0,000 mm 0,0 UV-I 80 W/m 11,5 C 7,1 C 25,7 km/h (4 Bft) 100,00 %
13.05.2016 16:23 12,3 C 95 % 996,1 hPa 0,0 l/m 13,0 km/h (3 Bft) S-SO 167 0 min 0,000 mm 0,0 UV-I 82 W/m 11,5 C 8,7 C 17,7 km/h (3 Bft) 100,00 %
13.05.2016 16:24 12,3 C 95 % 996,1 hPa 0,0 l/m 17,0 km/h (3 Bft) S 190 0 min 0,000 mm 0,0 UV-I 86 W/m 11,5 C 7,2 C 25,7 km/h (4 Bft) 100,00 %
13.05.2016 16:25 12,3 C 95 % 996,1 hPa 0,0 l/m 16,2 km/h (3 Bft) SW 228 0 min 0,000 mm 0,0 UV-I 90 W/m 11,5 C 7,5 C 22,5 km/h (4 Bft) 100,00 %
13.05.2016 16:26 12,3 C 95 % 996,0 hPa 0,0 l/m 17,4 km/h (3 Bft) S 188 0 min 0,000 mm 0,0 UV-I 91 W/m 11,5 C 7,1 C 27,4 km/h (4 Bft) 100,00 %
13.05.2016 16:27 12,3 C 95 % 996,0 hPa 0,0 l/m 16,4 km/h (3 Bft) W-SW 241 0 min 0,000 mm 0,0 UV-I 91 W/m 11,5 C 7,4 C 20,9 km/h (4 Bft) 100,00 %
13.05.2016 16:28 12,3 C 95 % 996,0 hPa 0,0 l/m 14,8 km/h (3 Bft) SW 229 0 min 0,000 mm 0,0 UV-I 91 W/m 11,5 C 8,0 C 19,3 km/h (3 Bft) 100,00 %
13.05.2016 16:29 12,3 C 95 % 996,1 hPa 0,0 l/m 15,1 km/h (3 Bft) W-SW 238 0 min 0,000 mm 0,0 UV-I 90 W/m 11,5 C 7,9 C 22,5 km/h (4 Bft) 100,00 %
13.05.2016 16:30 12,3 C 95 % 996,1 hPa 0,2 l/m 19,1 km/h (3 Bft) S-SW 211 0 min 0,000 mm 0,0 UV-I 89 W/m 11,5 C 6,5 C 29,0 km/h (5 Bft) 100,00 %
13.05.2016 16:31 12,3 C 95 % 996,1 hPa 0,0 l/m 18,4 km/h (3 Bft) SW 235 0 min 0,000 mm 0,0 UV-I 86 W/m 11,5 C 6,7 C 24,1 km/h (4 Bft) 100,00 %
13.05.2016 16:32 12,3 C 95 % 996,0 hPa 0,0 l/m 14,6 km/h (3 Bft) S 191 0 min 0,000 mm 0,0 UV-I 83 W/m 11,5 C 8,1 C 20,9 km/h (4 Bft) 100,00 %
13.05.2016 16:33 12,3 C 95 % 996,1 hPa 0,0 l/m 13,3 km/h (3 Bft) S-SW 212 0 min 0,000 mm 0,0 UV-I 80 W/m 11,5 C 8,6 C 20,9 km/h (4 Bft) 100,00 %
13.05.2016 16:34 12,3 C 95 % 996,0 hPa 0,0 l/m 11,4 km/h (2 Bft) S 186 0 min 0,000 mm 0,0 UV-I 75 W/m 11,5 C 9,4 C 22,5 km/h (4 Bft) 100,00 %
13.05.2016 16:35 12,3 C 95 % 996,0 hPa 0,0 l/m 14,2 km/h (3 Bft) SW 217 0 min 0,000 mm 0,0 UV-I 70 W/m 11,5 C 8,2 C 17,7 km/h (3 Bft) 100,00 %
13.05.2016 16:36 12,3 C 95 % 996,1 hPa 0,0 l/m 11,6 km/h (2 Bft) W 271 0 min 0,000 mm 0,0 UV-I 69 W/m 11,5 C 9,3 C 16,1 km/h (3 Bft) 96,15 %
13.05.2016 16:37 12,3 C 95 % 996,1 hPa 0,0 l/m 15,6 km/h (3 Bft) SW 225 0 min 0,000 mm 0,0 UV-I 65 W/m 11,5 C 7,7 C 24,1 km/h (4 Bft) 100,00 %
13.05.2016 16:38 12,3 C 95 % 996,1 hPa 0,0 l/m 14,6 km/h (3 Bft) SW 217 0 min 0,000 mm 0,0 UV-I 63 W/m 11,5 C 8,1 C 20,9 km/h (4 Bft) 100,00 %
13.05.2016 16:39 12,3 C 95 % 996,1 hPa 0,0 l/m 13,8 km/h (3 Bft) S-SW 213 0 min 0,000 mm 0,0 UV-I 62 W/m 11,5 C 8,4 C 20,9 km/h (4 Bft) 95,83 %
13.05.2016 16:40 12,3 C 95 % 996,1 hPa 0,0 l/m 14,8 km/h (3 Bft) W-SW 238 0 min 0,000 mm 0,0 UV-I 62 W/m 11,5 C 8,0 C 20,9 km/h (4 Bft) 100,00 %
13.05.2016 16:41 12,3 C 95 % 996,1 hPa 0,0 l/m 14,5 km/h (3 Bft) S-SW 213 0 min 0,000 mm 0,0 UV-I 62 W/m 11,5 C 8,1 C 24,1 km/h (4 Bft) 100,00 %
13.05.2016 16:42 12,3 C 95 % 996,1 hPa 0,0 l/m 16,3 km/h (3 Bft) S-SW 197 0 min 0,000 mm 0,0 UV-I 62 W/m 11,5 C 7,4 C 24,1 km/h (4 Bft) 100,00 %
13.05.2016 16:43 12,3 C 95 % 996,1 hPa 0,0 l/m 17,6 km/h (3 Bft) W-SW 249 0 min 0,000 mm 0,0 UV-I 62 W/m 11,5 C 7,0 C 24,1 km/h (4 Bft) 100,00 %
13.05.2016 16:44 12,3 C 95 % 996,1 hPa 0,0 l/m 16,2 km/h (3 Bft) W-SW 246 0 min 0,000 mm 0,0 UV-I 63 W/m 11,5 C 7,5 C 17,7 km/h (3 Bft) 100,00 %
13.05.2016 16:45 12,3 C 95 % 996,1 hPa 0,0 l/m 10,1 km/h (2 Bft) S-SW 204 0 min 0,000 mm 0,0 UV-I 65 W/m 11,5 C 10,1 C 17,7 km/h (3 Bft) 100,00 %
13.05.2016 16:46 12,3 C 95 % 996,1 hPa 0,0 l/m 17,4 km/h (3 Bft) W-SW 242 0 min 0,000 mm 0,0 UV-I 66 W/m 11,5 C 7,1 C 25,7 km/h (4 Bft) 98,60 %
13.05.2016 16:47 12,3 C 95 % 996,1 hPa 0,0 l/m 14,2 km/h (3 Bft) SW 232 0 min 0,000 mm 0,0 UV-I 68 W/m 11,5 C 8,2 C 20,9 km/h (4 Bft) 95,45 %
13.05.2016 16:48 12,3 C 95 % 996,2 hPa 0,0 l/m 11,9 km/h (2 Bft) S-SW 210 0 min 0,000 mm 0,0 UV-I 70 W/m 11,5 C 9,2 C 17,7 km/h (3 Bft) 100,00 %
13.05.2016 16:49 12,3 C 95 % 996,2 hPa 0,0 l/m 17,8 km/h (3 Bft) SW 229 0 min 0,000 mm 0,0 UV-I 70 W/m 11,5 C 6,9 C 27,4 km/h (4 Bft) 96,67 %
13.05.2016 16:50 12,3 C 95 % 996,2 hPa 0,0 l/m 15,4 km/h (3 Bft) SW 232 0 min 0,000 mm 0,0 UV-I 70 W/m 11,5 C 7,8 C 22,5 km/h (4 Bft) 100,00 %
13.05.2016 16:51 12,3 C 95 % 996,2 hPa 0,0 l/m 16,5 km/h (3 Bft) SW 225 0 min 0,000 mm 0,0 UV-I 72 W/m 11,5 C 7,4 C 20,9 km/h (4 Bft) 93,75 %
13.05.2016 16:52 12,3 C 95 % 996,2 hPa 0,0 l/m 17,4 km/h (3 Bft) S-SW 210 0 min 0,000 mm 0,0 UV-I 72 W/m 11,5 C 7,1 C 25,7 km/h (4 Bft) 95,65 %
13.05.2016 16:53 12,3 C 95 % 996,2 hPa 0,0 l/m 16,0 km/h (3 Bft) S 176 0 min 0,000 mm 0,0 UV-I 73 W/m 11,5 C 7,6 C 27,4 km/h (4 Bft) 100,00 %
13.05.2016 16:54 12,3 C 95 % 996,2 hPa 0,0 l/m 18,4 km/h (3 Bft) S 184 0 min 0,000 mm 0,0 UV-I 74 W/m 11,5 C 6,7 C 30,6 km/h (5 Bft) 95,65 %
13.05.2016 16:55 12,3 C 95 % 996,2 hPa 0,2 l/m 18,5 km/h (3 Bft) W-SW 239 0 min 0,000 mm 0,0 UV-I 76 W/m 11,5 C 6,7 C 24,1 km/h (4 Bft) 100,00 %
13.05.2016 16:56 12,3 C 95 % 996,3 hPa 0,0 l/m 11,9 km/h (2 Bft) SW 214 0 min 0,000 mm 0,0 UV-I 76 W/m 11,5 C 9,2 C 14,5 km/h (3 Bft) 91,67 %
13.05.2016 16:57 12,3 C 95 % 996,3 hPa 0,0 l/m 11,4 km/h (2 Bft) S-SW 212 0 min 0,000 mm 0,0 UV-I 77 W/m 11,5 C 9,4 C 22,5 km/h (4 Bft) 100,00 %
13.05.2016 16:58 12,3 C 95 % 996,3 hPa 0,0 l/m 14,2 km/h (3 Bft) W-SW 244 0 min 0,000 mm 0,0 UV-I 77 W/m 11,5 C 8,2 C 22,5 km/h (4 Bft) 96,30 %
13.05.2016 16:59 12,3 C 95 % 996,3 hPa 0,0 l/m 17,5 km/h (3 Bft) SW 231 0 min 0,000 mm 0,0 UV-I 78 W/m 11,5 C 7,0 C 22,5 km/h (4 Bft) 96,15 %
13.05.2016 17:00 12,3 C 95 % 996,3 hPa 0,0 l/m 15,2 km/h (3 Bft) SW 226 0 min 0,000 mm 0,0 UV-I 81 W/m 11,5 C 7,8 C 19,3 km/h (3 Bft) 100,00 %
13.05.2016 17:01 12,3 C 95 % 996,3 hPa 0,0 l/m 15,2 km/h (3 Bft) W-SW 242 0 min 0,051 mm 0,0 UV-I 81 W/m 11,5 C 7,8 C 22,5 km/h (4 Bft) 96,15 %
13.05.2016 17:02 12,3 C 95 % 996,3 hPa 0,0 l/m 10,0 km/h (2 Bft) S-SW 205 0 min 0,000 mm 0,0 UV-I 81 W/m 11,5 C 10,1 C 16,1 km/h (3 Bft) 100,00 %
13.05.2016 17:03 12,3 C 95 % 996,3 hPa 0,0 l/m 13,1 km/h (3 Bft) SW 227 0 min 0,000 mm 0,0 UV-I 81 W/m 11,5 C 8,7 C 17,7 km/h (3 Bft) 94,12 %
13.05.2016 17:04 12,3 C 95 % 996,3 hPa 0,2 l/m 17,2 km/h (3 Bft) SW 227 0 min 0,000 mm 0,0 UV-I 81 W/m 11,5 C 7,1 C 22,5 km/h (4 Bft) 100,00 %
13.05.2016 17:05 12,3 C 95 % 996,3 hPa 0,0 l/m 16,6 km/h (3 Bft) W-SW 239 0 min 0,000 mm 0,0 UV-I 79 W/m 11,5 C 7,3 C 24,1 km/h (4 Bft) 92,86 %
13.05.2016 17:06 12,3 C 95 % 996,2 hPa 0,0 l/m 13,3 km/h (3 Bft) W-SW 250 0 min 0,000 mm 0,0 UV-I 77 W/m 11,5 C 8,6 C 22,5 km/h (4 Bft) 100,00 %
13.05.2016 17:07 12,3 C 95 % 996,3 hPa 0,0 l/m 14,3 km/h (3 Bft) SW 228 0 min 0,000 mm 0,0 UV-I 76 W/m 11,5 C 8,2 C 22,5 km/h (4 Bft) 95,65 %
13.05.2016 17:08 12,3 C 95 % 996,2 hPa 0,0 l/m 19,8 km/h (3 Bft) S 186 0 min 0,000 mm 0,0 UV-I 76 W/m 11,5 C 6,3 C 32,2 km/h (5 Bft) 100,00 %
13.05.2016 17:09 12,3 C 95 % 996,2 hPa 0,0 l/m 16,2 km/h (3 Bft) SW 227 0 min 0,000 mm 0,0 UV-I 76 W/m 11,5 C 7,5 C 29,0 km/h (5 Bft) 95,65 %
13.05.2016 17:10 12,3 C 95 % 996,2 hPa 0,0 l/m 14,6 km/h (3 Bft) SW 215 0 min 0,000 mm 0,0 UV-I 77 W/m 11,5 C 8,1 C 20,9 km/h (4 Bft) 96,30 %
13.05.2016 17:11 12,3 C 95 % 996,2 hPa 0,0 l/m 15,3 km/h (3 Bft) S-SO 161 0 min 0,000 mm 0,0 UV-I 77 W/m 11,5 C 7,8 C 22,5 km/h (4 Bft) 100,00 %
13.05.2016 17:12 12,3 C 95 % 996,2 hPa 0,0 l/m 20,9 km/h (4 Bft) W-SW 252 0 min 0,000 mm 0,0 UV-I 77 W/m 11,5 C 6,0 C 29,0 km/h (5 Bft) 93,33 %
13.05.2016 17:13 12,3 C 95 % 996,1 hPa 0,0 l/m 17,0 km/h (3 Bft) W-SW 248 0 min 0,000 mm 0,0 UV-I 77 W/m 11,5 C 7,2 C 25,7 km/h (4 Bft) 100,00 %
13.05.2016 17:14 12,3 C 95 % 996,2 hPa 0,0 l/m 14,7 km/h (3 Bft) S-SW 192 0 min 0,000 mm 0,0 UV-I 77 W/m 11,5 C 8,0 C 17,7 km/h (3 Bft) 96,15 %
13.05.2016 17:15 12,3 C 95 % 996,1 hPa 0,2 l/m 15,2 km/h (3 Bft) SW 224 0 min 0,000 mm 0,0 UV-I 76 W/m 11,5 C 7,8 C 24,1 km/h (4 Bft) 100,00 %
13.05.2016 17:16 12,3 C 95 % 996,2 hPa 0,0 l/m 16,7 km/h (3 Bft) W-SW 253 0 min 0,000 mm 0,0 UV-I 75 W/m 11,5 C 7,3 C 20,9 km/h (4 Bft) 91,67 %
13.05.2016 17:17 12,3 C 95 % 996,2 hPa 0,0 l/m 14,6 km/h (3 Bft) SW 236 0 min 0,000 mm 0,0 UV-I 73 W/m 11,5 C 8,1 C 20,9 km/h (4 Bft) 96,30 %
13.05.2016 17:18 12,3 C 95 % 996,2 hPa 0,0 l/m 18,9 km/h (3 Bft) SW 220 0 min 0,000 mm 0,0 UV-I 69 W/m 11,5 C 6,6 C 27,4 km/h (4 Bft) 96,15 %
13.05.2016 17:19 12,3 C 95 % 996,2 hPa 0,0 l/m 13,8 km/h (3 Bft) S-SW 200 0 min 0,000 mm 0,0 UV-I 67 W/m 11,5 C 8,4 C 20,9 km/h (4 Bft) 92,59 %
13.05.2016 17:20 12,3 C 95 % 996,2 hPa 0,0 l/m 17,1 km/h (3 Bft) W-SW 252 0 min 0,000 mm 0,0 UV-I 64 W/m 11,5 C 7,2 C 20,9 km/h (4 Bft) 96,55 %
13.05.2016 17:21 12,3 C 95 % 996,2 hPa 0,2 l/m 15,3 km/h (3 Bft) SW 229 0 min 0,000 mm 0,0 UV-I 61 W/m 11,5 C 7,8 C 22,5 km/h (4 Bft) 91,67 %
13.05.2016 17:22 12,3 C 95 % 996,2 hPa 0,0 l/m 12,7 km/h (3 Bft) S-SW 203 0 min 0,000 mm 0,0 UV-I 60 W/m 11,5 C 8,9 C 19,3 km/h (3 Bft) 100,00 %
13.05.2016 17:23 12,3 C 95 % 996,3 hPa 0,0 l/m 19,4 km/h (3 Bft) SW 224 0 min 0,000 mm 0,0 UV-I 60 W/m 11,5 C 6,4 C 25,7 km/h (4 Bft) 95,83 %
13.05.2016 17:24 12,3 C 95 % 996,2 hPa 0,0 l/m 18,2 km/h (3 Bft) S-SW 196 0 min 0,000 mm 0,0 UV-I 60 W/m 11,5 C 6,8 C 25,7 km/h (4 Bft) 100,00 %
13.05.2016 17:25 12,3 C 95 % 996,3 hPa 0,0 l/m 12,9 km/h (3 Bft) S 182 0 min 0,000 mm 0,0 UV-I 57 W/m 11,5 C 8,8 C 19,3 km/h (3 Bft) 91,67 %
13.05.2016 17:26 12,3 C 95 % 996,3 hPa 0,0 l/m 15,0 km/h (3 Bft) W-SW 237 0 min 0,000 mm 0,0 UV-I 52 W/m 11,5 C 7,9 C 22,5 km/h (4 Bft) 100,00 %
13.05.2016 17:27 12,3 C 95 % 996,3 hPa 0,0 l/m 19,7 km/h (3 Bft) W-SW 257 0 min 0,000 mm 0,0 UV-I 48 W/m 11,5 C 6,3 C 29,0 km/h (5 Bft) 100,00 %
13.05.2016 17:28 12,3 C 95 % 996,3 hPa 0,0 l/m 16,6 km/h (3 Bft) SW 215 0 min 0,000 mm 0,0 UV-I 47 W/m 11,5 C 7,3 C 22,5 km/h (4 Bft) 100,00 %
13.05.2016 17:29 12,3 C 95 % 996,3 hPa 0,0 l/m 20,0 km/h (4 Bft) S 188 0 min 0,000 mm 0,0 UV-I 50 W/m 11,5 C 6,3 C 25,7 km/h (4 Bft) 100,00 %
13.05.2016 17:30 12,3 C 95 % 996,3 hPa 0,0 l/m 12,8 km/h (3 Bft) W-SW 241 0 min 0,000 mm 0,0 UV-I 56 W/m 11,5 C 8,8 C 17,7 km/h (3 Bft) 100,00 %
13.05.2016 17:31 12,3 C 95 % 996,3 hPa 0,0 l/m 17,6 km/h (3 Bft) W-SW 256 0 min 0,000 mm 0,0 UV-I 63 W/m 11,5 C 7,0 C 25,7 km/h (4 Bft) 100,00 %
13.05.2016 17:32 12,3 C 95 % 996,2 hPa 0,2 l/m 16,3 km/h (3 Bft) S-SW 210 0 min 0,000 mm 0,0 UV-I 66 W/m 11,5 C 7,4 C 24,1 km/h (4 Bft) 100,00 %
13.05.2016 17:33 12,3 C 95 % 996,3 hPa 0,0 l/m 14,3 km/h (3 Bft) SW 219 0 min 0,000 mm 0,0 UV-I 69 W/m 11,5 C 8,2 C 22,5 km/h (4 Bft) 100,00 %
13.05.2016 17:34 12,3 C 95 % 996,2 hPa 0,0 l/m 15,4 km/h (3 Bft) S-SW 199 0 min 0,000 mm 0,0 UV-I 70 W/m 11,5 C 7,8 C 22,5 km/h (4 Bft) 96,15 %
13.05.2016 17:35 12,3 C 95 % 996,2 hPa 0,0 l/m 21,4 km/h (4 Bft) SW 226 0 min 0,000 mm 0,0 UV-I 72 W/m 11,5 C 5,9 C 30,6 km/h (5 Bft) 100,00 %
13.05.2016 17:36 12,3 C 95 % 996,2 hPa 0,0 l/m 17,6 km/h (3 Bft) SW 220 0 min 0,000 mm 0,0 UV-I 73 W/m 11,5 C 7,0 C 29,0 km/h (5 Bft) 100,00 %
13.05.2016 17:37 12,3 C 95 % 996,2 hPa 0,0 l/m 14,2 km/h (3 Bft) SW 221 0 min 0,000 mm 0,0 UV-I 69 W/m 11,5 C 8,2 C 19,3 km/h (3 Bft) 100,00 %
13.05.2016 17:38 12,3 C 95 % 996,2 hPa 0,0 l/m 14,8 km/h (3 Bft) SW 215 0 min 0,000 mm 0,0 UV-I 64 W/m 11,5 C 8,0 C 24,1 km/h (4 Bft) 100,00 %
13.05.2016 17:39 12,3 C 95 % 996,2 hPa 0,2 l/m 14,1 km/h (3 Bft) W-SW 255 0 min 0,000 mm 0,0 UV-I 57 W/m 11,5 C 8,3 C 22,5 km/h (4 Bft) 100,00 %
13.05.2016 17:40 12,3 C 95 % 996,1 hPa 0,0 l/m 14,9 km/h (3 Bft) S 169 0 min 0,000 mm 0,0 UV-I 51 W/m 11,5 C 8,0 C 20,9 km/h (4 Bft) 100,00 %
13.05.2016 17:41 12,3 C 95 % 996,2 hPa 0,0 l/m 15,1 km/h (3 Bft) SW 226 0 min 0,000 mm 0,0 UV-I 49 W/m 11,5 C 7,9 C 22,5 km/h (4 Bft) 100,00 %
13.05.2016 17:42 12,3 C 95 % 996,2 hPa 0,0 l/m 14,6 km/h (3 Bft) S 185 0 min 0,000 mm 0,0 UV-I 41 W/m 11,5 C 8,1 C 25,7 km/h (4 Bft) 100,00 %
13.05.2016 17:43 12,3 C 95 % 996,2 hPa 0,0 l/m 15,8 km/h (3 Bft) SW 236 0 min 0,000 mm 0,0 UV-I 36 W/m 11,5 C 7,6 C 20,9 km/h (4 Bft) 100,00 %
13.05.2016 17:44 12,3 C 95 % 996,2 hPa 0,0 l/m 16,8 km/h (3 Bft) W-SW 244 0 min 0,000 mm 0,0 UV-I 33 W/m 11,5 C 7,3 C 29,0 km/h (5 Bft) 100,00 %
13.05.2016 17:45 12,3 C 95 % 996,2 hPa 0,2 l/m 20,6 km/h (4 Bft) SW 229 0 min 0,000 mm 0,0 UV-I 34 W/m 11,5 C 6,1 C 25,7 km/h (4 Bft) 100,00 %
13.05.2016 17:46 12,3 C 95 % 996,2 hPa 0,0 l/m 16,5 km/h (3 Bft) S-SW 200 0 min 0,000 mm 0,0 UV-I 35 W/m 11,5 C 7,4 C 25,7 km/h (4 Bft) 100,00 %
13.05.2016 17:47 12,3 C 95 % 996,2 hPa 0,0 l/m 14,0 km/h (3 Bft) S-SW 202 0 min 0,000 mm 0,0 UV-I 33 W/m 11,5 C 8,3 C 20,9 km/h (4 Bft) 100,00 %
13.05.2016 17:48 12,3 C 95 % 996,2 hPa 0,0 l/m 15,8 km/h (3 Bft) W 267 0 min 0,000 mm 0,0 UV-I 32 W/m 11,5 C 7,6 C 20,9 km/h (4 Bft) 100,00 %
13.05.2016 17:49 12,3 C 95 % 996,2 hPa 0,2 l/m 16,7 km/h (3 Bft) S-SW 207 0 min 0,000 mm 0,0 UV-I 34 W/m 11,5 C 7,3 C 22,5 km/h (4 Bft) 96,55 %
13.05.2016 17:50 12,3 C 95 % 996,2 hPa 0,0 l/m 16,0 km/h (3 Bft) S-SW 196 0 min 0,000 mm 0,0 UV-I 39 W/m 11,5 C 7,6 C 22,5 km/h (4 Bft) 100,00 %
13.05.2016 17:51 12,3 C 95 % 996,2 hPa 0,0 l/m 22,9 km/h (4 Bft) S-SW 201 0 min 0,000 mm 0,0 UV-I 45 W/m 11,5 C 5,5 C 32,2 km/h (5 Bft) 100,00 %
13.05.2016 17:52 12,2 C 95 % 996,2 hPa 0,0 l/m 16,6 km/h (3 Bft) SW 233 0 min 0,000 mm 0,0 UV-I 46 W/m 11,4 C 7,2 C 27,4 km/h (4 Bft) 100,00 %
13.05.2016 17:53 12,2 C 95 % 996,3 hPa 0,0 l/m 14,5 km/h (3 Bft) S-SO 157 0 min 0,000 mm 0,0 UV-I 40 W/m 11,4 C 8,0 C 20,9 km/h (4 Bft) 100,00 %
13.05.2016 17:54 12,3 C 95 % 996,2 hPa 0,0 l/m 14,6 km/h (3 Bft) SW 220 0 min 0,000 mm 0,0 UV-I 39 W/m 11,5 C 8,1 C 20,9 km/h (4 Bft) 100,00 %
13.05.2016 17:55 12,3 C 95 % 996,3 hPa 0,0 l/m 25,1 km/h (4 Bft) S-SW 195 0 min 0,000 mm 0,0 UV-I 36 W/m 11,5 C 4,9 C 35,4 km/h (5 Bft) 100,00 %
13.05.2016 17:56 12,3 C 95 % 996,3 hPa 0,0 l/m 16,9 km/h (3 Bft) S-SW 193 0 min 0,000 mm 0,0 UV-I 34 W/m 11,5 C 7,2 C 24,1 km/h (4 Bft) 100,00 %
13.05.2016 17:57 12,3 C 95 % 996,3 hPa 0,2 l/m 15,3 km/h (3 Bft) SW 225 0 min 0,000 mm 0,0 UV-I 32 W/m 11,5 C 7,8 C 19,3 km/h (3 Bft) 100,00 %
13.05.2016 17:58 12,3 C 95 % 996,3 hPa 0,0 l/m 9,7 km/h (2 Bft) W-SW 246 0 min 0,000 mm 0,0 UV-I 29 W/m 11,5 C 10,3 C 14,5 km/h (3 Bft) 100,00 %
13.05.2016 17:59 12,3 C 95 % 996,3 hPa 0,0 l/m 12,7 km/h (3 Bft) SW 220 0 min 0,000 mm 0,0 UV-I 28 W/m 11,5 C 8,9 C 20,9 km/h (4 Bft) 100,00 %
13.05.2016 18:00 12,3 C 95 % 996,4 hPa 0,0 l/m 18,5 km/h (3 Bft) W-SW 245 0 min 0,000 mm 0,0 UV-I 28 W/m 11,5 C 6,7 C 29,0 km/h (5 Bft) 100,00 %
13.05.2016 18:02 12,3 C 95 % 996,4 hPa 0,2 l/m 13,5 km/h (3 Bft) SW 214 0 min 0,026 mm 0,0 UV-I 26 W/m 11,5 C 8,5 C 24,1 km/h (4 Bft) 100,00 %
13.05.2016 18:03 12,2 C 95 % 996,4 hPa 0,0 l/m 17,3 km/h (3 Bft) W 265 0 min 0,000 mm 0,0 UV-I 22 W/m 11,4 C 7,0 C 22,5 km/h (4 Bft) 100,00 %
13.05.2016 18:04 12,3 C 95 % 996,5 hPa 0,2 l/m 15,0 km/h (3 Bft) W-SW 246 0 min 0,000 mm 0,0 UV-I 19 W/m 11,5 C 7,9 C 17,7 km/h (3 Bft) 100,00 %
13.05.2016 18:05 12,3 C 95 % 996,6 hPa 0,0 l/m 12,4 km/h (3 Bft) SW 225 0 min 0,000 mm 0,0 UV-I 16 W/m 11,5 C 9,0 C 17,7 km/h (3 Bft) 96,30 %
13.05.2016 18:06 12,2 C 95 % 996,7 hPa 0,0 l/m 9,9 km/h (2 Bft) W 279 0 min 0,000 mm 0,0 UV-I 14 W/m 11,4 C 10,1 C 17,7 km/h (3 Bft) 100,00 %
13.05.2016 18:07 12,2 C 95 % 996,7 hPa 0,2 l/m 4,8 km/h (1 Bft) W-NW 292 0 min 0,000 mm 0,0 UV-I 12 W/m 11,4 C 12,2 C 11,3 km/h (2 Bft) 100,00 %
13.05.2016 18:08 12,2 C 95 % 996,9 hPa 0,0 l/m 7,1 km/h (2 Bft) W 272 0 min 0,000 mm 0,0 UV-I 11 W/m 11,4 C 11,7 C 12,9 km/h (3 Bft) 100,00 %
13.05.2016 18:09 12,2 C 95 % 996,9 hPa 0,0 l/m 2,4 km/h (1 Bft) W-NW 289 0 min 0,000 mm 0,0 UV-I 11 W/m 11,4 C 12,2 C 3,2 km/h (1 Bft) 100,00 %
13.05.2016 18:10 12,2 C 95 % 996,9 hPa 0,0 l/m 2,8 km/h (1 Bft) NW 324 0 min 0,000 mm 0,0 UV-I 9 W/m 11,4 C 12,2 C 6,4 km/h (2 Bft) 100,00 %
13.05.2016 18:11 12,2 C 95 % 996,9 hPa 0,2 l/m 7,5 km/h (2 Bft) W-SW 247 0 min 0,000 mm 0,0 UV-I 7 W/m 11,4 C 11,5 C 11,3 km/h (2 Bft) 100,00 %
13.05.2016 18:12 12,2 C 95 % 996,9 hPa 0,0 l/m 3,5 km/h (1 Bft) W-NW 284 0 min 0,000 mm 0,0 UV-I 6 W/m 11,4 C 12,2 C 11,3 km/h (2 Bft) 100,00 %
13.05.2016 18:13 12,2 C 95 % 996,9 hPa 0,2 l/m 8,8 km/h (2 Bft) W 272 0 min 0,000 mm 0,0 UV-I 5 W/m 11,4 C 10,7 C 16,1 km/h (3 Bft) 100,00 %
13.05.2016 18:14 12,2 C 95 % 996,9 hPa 0,0 l/m 4,3 km/h (1 Bft) W 275 0 min 0,000 mm 0,0 UV-I 5 W/m 11,4 C 12,2 C 6,4 km/h (2 Bft) 100,00 %
13.05.2016 18:15 12,2 C 95 % 996,9 hPa 0,2 l/m 2,0 km/h (1 Bft) NW 304 0 min 0,000 mm 0,0 UV-I 5 W/m 11,4 C 12,2 C 4,8 km/h (1 Bft) 100,00 %
13.05.2016 18:16 12,2 C 96 % 996,9 hPa 0,6 l/m 4,4 km/h (1 Bft) SW 217 0 min 0,000 mm 0,0 UV-I 8 W/m 11,6 C 12,2 C 8,0 km/h (2 Bft) 100,00 %
13.05.2016 18:17 12,2 C 96 % 996,9 hPa 0,0 l/m 7,8 km/h (2 Bft) S-SW 202 0 min 0,000 mm 0,0 UV-I 12 W/m 11,6 C 11,3 C 11,3 km/h (2 Bft) 100,00 %
13.05.2016 18:18 12,2 C 95 % 996,7 hPa 0,2 l/m 10,6 km/h (2 Bft) S-SW 198 0 min 0,000 mm 0,0 UV-I 18 W/m 11,4 C 9,7 C 12,9 km/h (3 Bft) 100,00 %
13.05.2016 18:19 12,2 C 95 % 996,7 hPa 0,0 l/m 8,7 km/h (2 Bft) S-SW 200 0 min 0,000 mm 0,0 UV-I 18 W/m 11,4 C 10,7 C 9,7 km/h (2 Bft) 100,00 %
13.05.2016 18:20 12,2 C 96 % 996,7 hPa 0,0 l/m 10,1 km/h (2 Bft) SW 219 0 min 0,000 mm 0,0 UV-I 17 W/m 11,6 C 10,0 C 14,5 km/h (3 Bft) 100,00 %
13.05.2016 18:21 12,2 C 96 % 996,7 hPa 0,0 l/m 7,2 km/h (2 Bft) SW 236 0 min 0,000 mm 0,0 UV-I 14 W/m 11,6 C 11,7 C 11,3 km/h (2 Bft) 100,00 %
13.05.2016 18:22 12,2 C 96 % 996,7 hPa 0,0 l/m 12,9 km/h (3 Bft) W-SW 250 0 min 0,000 mm 0,0 UV-I 12 W/m 11,6 C 8,6 C 24,1 km/h (4 Bft) 100,00 %
13.05.2016 18:23 12,2 C 96 % 996,7 hPa 0,2 l/m 25,8 km/h (4 Bft) W 269 0 min 0,000 mm 0,0 UV-I 11 W/m 11,6 C 4,6 C 37,0 km/h (5 Bft) 100,00 %
13.05.2016 18:24 12,2 C 95 % 996,9 hPa 0,0 l/m 16,0 km/h (3 Bft) SW 234 0 min 0,000 mm 0,0 UV-I 11 W/m 11,4 C 7,4 C 25,7 km/h (4 Bft) 100,00 %
13.05.2016 18:25 12,2 C 95 % 996,8 hPa 0,0 l/m 17,4 km/h (3 Bft) W-SW 246 0 min 0,000 mm 0,0 UV-I 11 W/m 11,4 C 6,9 C 20,9 km/h (4 Bft) 100,00 %
13.05.2016 18:26 12,2 C 95 % 996,9 hPa 0,0 l/m 13,8 km/h (3 Bft) W 271 0 min 0,000 mm 0,0 UV-I 10 W/m 11,4 C 8,3 C 17,7 km/h (3 Bft) 100,00 %
13.05.2016 18:27 12,2 C 95 % 996,7 hPa 0,0 l/m 11,2 km/h (2 Bft) S-SW 213 0 min 0,000 mm 0,0 UV-I 9 W/m 11,4 C 9,4 C 14,5 km/h (3 Bft) 100,00 %
13.05.2016 18:28 12,3 C 94 % 996,6 hPa 0,0 l/m 13,7 km/h (3 Bft) SW 214 0 min 0,000 mm 0,0 UV-I 9 W/m 11,4 C 8,4 C 17,7 km/h (3 Bft) 100,00 %
13.05.2016 18:29 12,3 C 94 % 996,6 hPa 0,0 l/m 16,6 km/h (3 Bft) S-SW 207 0 min 0,000 mm 0,0 UV-I 9 W/m 11,4 C 7,3 C 24,1 km/h (4 Bft) 100,00 %
13.05.2016 18:30 12,3 C 94 % 996,5 hPa 0,2 l/m 18,4 km/h (3 Bft) S 190 0 min 0,000 mm 0,0 UV-I 9 W/m 11,4 C 6,7 C 29,0 km/h (5 Bft) 100,00 %
13.05.2016 18:31 12,3 C 94 % 996,5 hPa 0,0 l/m 19,0 km/h (3 Bft) SW 232 0 min 0,000 mm 0,0 UV-I 9 W/m 11,4 C 6,6 C 24,1 km/h (4 Bft) 100,00 %
13.05.2016 18:32 12,3 C 94 % 996,5 hPa 0,0 l/m 16,9 km/h (3 Bft) W 265 0 min 0,000 mm 0,0 UV-I 9 W/m 11,4 C 7,2 C 25,7 km/h (4 Bft) 98,62 %
13.05.2016 18:33 12,3 C 94 % 996,5 hPa 0,2 l/m 15,4 km/h (3 Bft) SW 227 0 min 0,000 mm 0,0 UV-I 10 W/m 11,4 C 7,8 C 22,5 km/h (4 Bft) 97,62 %
13.05.2016 18:34 12,3 C 95 % 996,6 hPa 0,0 l/m 12,4 km/h (3 Bft) W-SW 238 0 min 0,000 mm 0,0 UV-I 11 W/m 11,5 C 9,0 C 16,1 km/h (3 Bft) 96,15 %
13.05.2016 18:35 12,3 C 95 % 996,6 hPa 0,0 l/m 13,1 km/h (3 Bft) SW 231 0 min 0,000 mm 0,0 UV-I 11 W/m 11,5 C 8,7 C 19,3 km/h (3 Bft) 98,62 %
13.05.2016 18:36 12,3 C 94 % 996,7 hPa 0,0 l/m 14,3 km/h (3 Bft) W-SW 247 0 min 0,000 mm 0,0 UV-I 11 W/m 11,4 C 8,2 C 19,3 km/h (3 Bft) 100,00 %
13.05.2016 18:37 12,3 C 95 % 996,7 hPa 0,0 l/m 12,2 km/h (2 Bft) W-SW 244 0 min 0,000 mm 0,0 UV-I 12 W/m 11,5 C 9,1 C 14,5 km/h (3 Bft) 100,00 %
13.05.2016 18:38 12,3 C 95 % 996,7 hPa 0,0 l/m 15,6 km/h (3 Bft) SW 215 0 min 0,000 mm 0,0 UV-I 13 W/m 11,5 C 7,7 C 24,1 km/h (4 Bft) 100,00 %
13.05.2016 18:39 12,3 C 94 % 996,7 hPa 0,0 l/m 16,7 km/h (3 Bft) W-SW 242 0 min 0,000 mm 0,0 UV-I 14 W/m 11,4 C 7,3 C 22,5 km/h (4 Bft) 100,00 %
13.05.2016 18:40 12,3 C 94 % 996,7 hPa 0,0 l/m 17,0 km/h (3 Bft) SW 234 0 min 0,000 mm 0,0 UV-I 14 W/m 11,4 C 7,2 C 24,1 km/h (4 Bft) 95,65 %
13.05.2016 18:41 12,3 C 94 % 996,7 hPa 0,0 l/m 18,9 km/h (3 Bft) S-SW 205 0 min 0,000 mm 0,0 UV-I 15 W/m 11,4 C 6,6 C 25,7 km/h (4 Bft) 100,00 %
13.05.2016 18:42 12,3 C 94 % 996,7 hPa 0,0 l/m 19,2 km/h (3 Bft) W-SW 237 0 min 0,000 mm 0,0 UV-I 18 W/m 11,4 C 6,5 C 24,1 km/h (4 Bft) 100,00 %
13.05.2016 18:43 12,3 C 94 % 996,7 hPa 0,0 l/m 17,5 km/h (3 Bft) W-SW 244 0 min 0,000 mm 0,0 UV-I 19 W/m 11,4 C 7,0 C 25,7 km/h (4 Bft) 100,00 %
13.05.2016 18:44 12,3 C 94 % 996,7 hPa 0,2 l/m 16,9 km/h (3 Bft) W-SW 240 0 min 0,000 mm 0,0 UV-I 20 W/m 11,4 C 7,2 C 20,9 km/h (4 Bft) 92,31 %
13.05.2016 18:45 12,3 C 94 % 996,7 hPa 0,0 l/m 15,9 km/h (3 Bft) W-SW 243 0 min 0,000 mm 0,0 UV-I 23 W/m 11,4 C 7,6 C 22,5 km/h (4 Bft) 100,00 %
13.05.2016 18:46 12,3 C 94 % 996,7 hPa 0,0 l/m 16,5 km/h (3 Bft) W-SW 256 0 min 0,000 mm 0,0 UV-I 23 W/m 11,4 C 7,4 C 20,9 km/h (4 Bft) 100,00 %
13.05.2016 18:47 12,3 C 94 % 996,7 hPa 0,0 l/m 15,2 km/h (3 Bft) W-SW 242 0 min 0,000 mm 0,0 UV-I 25 W/m 11,4 C 7,8 C 20,9 km/h (4 Bft) 93,10 %
13.05.2016 18:48 12,3 C 94 % 996,7 hPa 0,0 l/m 18,5 km/h (3 Bft) W-SW 252 0 min 0,000 mm 0,0 UV-I 22 W/m 11,4 C 6,7 C 24,1 km/h (4 Bft) 96,15 %
13.05.2016 18:49 12,3 C 94 % 996,8 hPa 0,0 l/m 13,7 km/h (3 Bft) SW 224 0 min 0,000 mm 0,0 UV-I 22 W/m 11,4 C 8,4 C 20,9 km/h (4 Bft) 93,33 %
13.05.2016 18:50 12,3 C 94 % 996,9 hPa 0,0 l/m 14,8 km/h (3 Bft) W-SW 254 0 min 0,000 mm 0,0 UV-I 24 W/m 11,4 C 8,0 C 19,3 km/h (3 Bft) 100,00 %
13.05.2016 18:51 12,2 C 95 % 996,9 hPa 0,2 l/m 21,5 km/h (4 Bft) W-SW 241 0 min 0,000 mm 0,0 UV-I 26 W/m 11,4 C 5,7 C 30,6 km/h (5 Bft) 94,44 %
13.05.2016 18:52 12,2 C 95 % 996,8 hPa 0,0 l/m 20,9 km/h (4 Bft) S 190 0 min 0,000 mm 0,0 UV-I 28 W/m 11,4 C 5,9 C 24,1 km/h (4 Bft) 95,83 %
13.05.2016 18:53 12,2 C 95 % 996,8 hPa 0,0 l/m 20,0 km/h (4 Bft) W-SW 255 0 min 0,000 mm 0,0 UV-I 28 W/m 11,4 C 6,1 C 25,7 km/h (4 Bft) 95,65 %
13.05.2016 18:54 12,2 C 95 % 996,8 hPa 0,0 l/m 15,7 km/h (3 Bft) W-SW 250 0 min 0,000 mm 0,0 UV-I 28 W/m 11,4 C 7,5 C 19,3 km/h (3 Bft) 92,59 %
13.05.2016 18:55 12,2 C 95 % 996,8 hPa 0,0 l/m 13,7 km/h (3 Bft) SW 227 0 min 0,000 mm 0,0 UV-I 29 W/m 11,4 C 8,3 C 25,7 km/h (4 Bft) 100,00 %
13.05.2016 18:56 12,2 C 95 % 996,8 hPa 0,2 l/m 23,5 km/h (4 Bft) SW 214 0 min 0,000 mm 0,0 UV-I 31 W/m 11,4 C 5,2 C 29,0 km/h (5 Bft) 95,83 %
13.05.2016 18:57 12,2 C 95 % 996,7 hPa 0,0 l/m 15,9 km/h (3 Bft) SW 236 0 min 0,000 mm 0,0 UV-I 32 W/m 11,4 C 7,5 C 20,9 km/h (4 Bft) 100,00 %
13.05.2016 18:58 12,2 C 95 % 996,8 hPa 0,0 l/m 17,7 km/h (3 Bft) SW 232 0 min 0,000 mm 0,0 UV-I 28 W/m 11,4 C 6,8 C 25,7 km/h (4 Bft) 96,30 %
13.05.2016 18:59 12,2 C 95 % 996,8 hPa 0,0 l/m 20,4 km/h (4 Bft) W-SW 243 0 min 0,000 mm 0,0 UV-I 26 W/m 11,4 C 6,0 C 29,0 km/h (5 Bft) 100,00 %
13.05.2016 19:00 12,2 C 95 % 996,8 hPa 0,0 l/m 21,9 km/h (4 Bft) SW 225 0 min 0,000 mm 0,0 UV-I 26 W/m 11,4 C 5,6 C 27,4 km/h (4 Bft) 96,30 %
13.05.2016 19:02 12,1 C 95 % 996,8 hPa 0,2 l/m 17,1 km/h (3 Bft) W-SW 242 0 min 0,025 mm 0,0 UV-I 24 W/m 11,3 C 6,9 C 22,5 km/h (4 Bft) 97,56 %
13.05.2016 19:03 12,1 C 95 % 996,9 hPa 0,0 l/m 16,5 km/h (3 Bft) W-SW 247 0 min 0,000 mm 0,0 UV-I 21 W/m 11,3 C 7,1 C 22,5 km/h (4 Bft) 86,96 %
13.05.2016 19:04 12,1 C 95 % 996,8 hPa 0,2 l/m 16,4 km/h (3 Bft) W-SW 238 0 min 0,000 mm 0,0 UV-I 18 W/m 11,3 C 7,2 C 20,9 km/h (4 Bft) 100,00 %
13.05.2016 19:05 12,1 C 95 % 996,8 hPa 0,0 l/m 14,6 km/h (3 Bft) S-SW 204 0 min 0,000 mm 0,0 UV-I 16 W/m 11,3 C 7,8 C 19,3 km/h (3 Bft) 95,65 %
13.05.2016 19:06 12,1 C 95 % 996,7 hPa 0,0 l/m 15,2 km/h (3 Bft) SW 223 0 min 0,000 mm 0,0 UV-I 15 W/m 11,3 C 7,6 C 20,9 km/h (4 Bft) 100,00 %
13.05.2016 19:07 12,1 C 95 % 996,7 hPa 0,2 l/m 13,9 km/h (3 Bft) W-SW 240 0 min 0,000 mm 0,0 UV-I 18 W/m 11,3 C 8,1 C 19,3 km/h (3 Bft) 95,65 %
13.05.2016 19:08 12,1 C 95 % 996,7 hPa 0,0 l/m 13,4 km/h (3 Bft) W-SW 243 0 min 0,000 mm 0,0 UV-I 23 W/m 11,3 C 8,3 C 19,3 km/h (3 Bft) 100,00 %
13.05.2016 19:09 12,1 C 95 % 996,7 hPa 0,0 l/m 16,4 km/h (3 Bft) W 263 0 min 0,000 mm 0,0 UV-I 31 W/m 11,3 C 7,2 C 22,5 km/h (4 Bft) 91,30 %
13.05.2016 19:10 12,1 C 95 % 996,8 hPa 0,0 l/m 13,4 km/h (3 Bft) SW 231 0 min 0,000 mm 0,0 UV-I 35 W/m 11,3 C 8,3 C 17,7 km/h (3 Bft) 95,83 %
13.05.2016 19:11 12,1 C 95 % 996,8 hPa 0,0 l/m 12,3 km/h (3 Bft) S-SW 212 0 min 0,000 mm 0,0 UV-I 33 W/m 11,3 C 8,8 C 16,1 km/h (3 Bft) 96,15 %
13.05.2016 19:12 12,1 C 95 % 996,8 hPa 0,0 l/m 12,7 km/h (3 Bft) W-SW 248 0 min 0,000 mm 0,0 UV-I 33 W/m 11,3 C 8,6 C 20,9 km/h (4 Bft) 100,00 %
13.05.2016 19:13 12,1 C 95 % 996,7 hPa 0,2 l/m 13,7 km/h (3 Bft) W-SW 237 0 min 0,000 mm 0,0 UV-I 32 W/m 11,3 C 8,2 C 17,7 km/h (3 Bft) 96,30 %
13.05.2016 19:14 12,1 C 95 % 996,8 hPa 0,0 l/m 15,5 km/h (3 Bft) W 266 0 min 0,000 mm 0,0 UV-I 32 W/m 11,3 C 7,5 C 22,5 km/h (4 Bft) 96,15 %
13.05.2016 19:15 12,1 C 95 % 996,8 hPa 0,0 l/m 15,6 km/h (3 Bft) SW 221 0 min 0,000 mm 0,0 UV-I 33 W/m 11,3 C 7,5 C 17,7 km/h (3 Bft) 96,30 %
13.05.2016 19:16 12,1 C 95 % 996,8 hPa 0,0 l/m 21,6 km/h (4 Bft) SW 225 0 min 0,000 mm 0,0 UV-I 33 W/m 11,3 C 5,5 C 29,0 km/h (5 Bft) 86,96 %
13.05.2016 19:17 12,0 C 95 % 996,8 hPa 0,0 l/m 24,0 km/h (4 Bft) S-SW 203 0 min 0,000 mm 0,0 UV-I 32 W/m 11,2 C 4,8 C 35,4 km/h (5 Bft) 100,00 %
13.05.2016 19:18 12,0 C 95 % 996,8 hPa 0,0 l/m 19,3 km/h (3 Bft) W-SW 243 0 min 0,000 mm 0,0 UV-I 29 W/m 11,2 C 6,1 C 24,1 km/h (4 Bft) 96,55 %
13.05.2016 19:19 12,0 C 95 % 996,8 hPa 0,0 l/m 14,1 km/h (3 Bft) SW 227 0 min 0,000 mm 0,0 UV-I 27 W/m 11,2 C 7,9 C 20,9 km/h (4 Bft) 96,30 %
13.05.2016 19:20 12,1 C 95 % 996,8 hPa 0,0 l/m 20,2 km/h (4 Bft) SW 235 0 min 0,000 mm 0,0 UV-I 25 W/m 11,3 C 5,9 C 32,2 km/h (5 Bft) 100,00 %
13.05.2016 19:21 12,0 C 95 % 996,8 hPa 0,0 l/m 22,7 km/h (4 Bft) W-SW 257 0 min 0,000 mm 0,0 UV-I 23 W/m 11,2 C 5,1 C 32,2 km/h (5 Bft) 95,83 %
13.05.2016 19:22 12,0 C 95 % 996,9 hPa 0,0 l/m 15,7 km/h (3 Bft) W 261 0 min 0,000 mm 0,0 UV-I 23 W/m 11,2 C 7,3 C 24,1 km/h (4 Bft) 100,00 %
13.05.2016 19:23 12,0 C 95 % 996,9 hPa 0,0 l/m 16,7 km/h (3 Bft) W-SW 246 0 min 0,000 mm 0,0 UV-I 23 W/m 11,2 C 6,9 C 24,1 km/h (4 Bft) 95,83 %
13.05.2016 19:24 12,0 C 95 % 996,9 hPa 0,0 l/m 15,8 km/h (3 Bft) W 273 0 min 0,000 mm 0,0 UV-I 23 W/m 11,2 C 7,3 C 19,3 km/h (3 Bft) 98,53 %
13.05.2016 19:25 12,0 C 95 % 996,9 hPa 0,0 l/m 13,4 km/h (3 Bft) W 262 0 min 0,000 mm 0,0 UV-I 22 W/m 11,2 C 8,2 C 17,7 km/h (3 Bft) 97,56 %
13.05.2016 19:26 12,0 C 95 % 996,9 hPa 0,0 l/m 15,1 km/h (3 Bft) SW 232 0 min 0,000 mm 0,0 UV-I 19 W/m 11,2 C 7,5 C 17,7 km/h (3 Bft) 100,00 %
13.05.2016 19:27 12,0 C 95 % 996,9 hPa 0,0 l/m 16,9 km/h (3 Bft) W-SW 237 0 min 0,000 mm 0,0 UV-I 18 W/m 11,2 C 6,9 C 22,5 km/h (4 Bft) 100,00 %
13.05.2016 19:28 12,0 C 95 % 996,9 hPa 0,0 l/m 14,9 km/h (3 Bft) SW 235 0 min 0,000 mm 0,0 UV-I 18 W/m 11,2 C 7,6 C 22,5 km/h (4 Bft) 100,00 %
13.05.2016 19:29 11,9 C 95 % 996,9 hPa 0,0 l/m 18,3 km/h (3 Bft) W 275 0 min 0,000 mm 0,0 UV-I 18 W/m 11,1 C 6,3 C 24,1 km/h (4 Bft) 100,00 %
13.05.2016 19:30 11,9 C 95 % 996,9 hPa 0,0 l/m 12,5 km/h (3 Bft) S-SW 200 0 min 0,000 mm 0,0 UV-I 18 W/m 11,1 C 8,5 C 16,1 km/h (3 Bft) 96,55 %
13.05.2016 19:31 11,9 C 95 % 997,0 hPa 0,0 l/m 13,6 km/h (3 Bft) W-SW 254 0 min 0,000 mm 0,0 UV-I 18 W/m 11,1 C 8,0 C 16,1 km/h (3 Bft) 96,30 %
13.05.2016 19:32 11,9 C 95 % 997,0 hPa 0,0 l/m 13,6 km/h (3 Bft) W 267 0 min 0,000 mm 0,0 UV-I 20 W/m 11,1 C 8,0 C 20,9 km/h (4 Bft) 100,00 %
13.05.2016 19:33 11,9 C 95 % 997,0 hPa 0,0 l/m 16,1 km/h (3 Bft) SW 236 0 min 0,000 mm 0,0 UV-I 21 W/m 11,1 C 7,0 C 20,9 km/h (4 Bft) 98,53 %
13.05.2016 19:34 11,9 C 95 % 997,0 hPa 0,0 l/m 16,1 km/h (3 Bft) W 263 0 min 0,000 mm 0,0 UV-I 19 W/m 11,1 C 7,0 C 19,3 km/h (3 Bft) 100,00 %
13.05.2016 19:35 11,9 C 95 % 997,0 hPa 0,0 l/m 20,8 km/h (4 Bft) SW 222 0 min 0,000 mm 0,0 UV-I 20 W/m 11,1 C 5,5 C 32,2 km/h (5 Bft) 95,65 %
13.05.2016 19:36 11,9 C 95 % 997,0 hPa 0,0 l/m 15,9 km/h (3 Bft) SW 218 0 min 0,000 mm 0,0 UV-I 21 W/m 11,1 C 7,1 C 22,5 km/h (4 Bft) 100,00 %
13.05.2016 19:37 11,9 C 95 % 997,0 hPa 0,0 l/m 16,0 km/h (3 Bft) W-SW 237 0 min 0,000 mm 0,0 UV-I 21 W/m 11,1 C 7,1 C 22,5 km/h (4 Bft) 100,00 %
13.05.2016 19:38 11,9 C 95 % 997,0 hPa 0,0 l/m 18,0 km/h (3 Bft) W-SW 255 0 min 0,000 mm 0,0 UV-I 21 W/m 11,1 C 6,4 C 25,7 km/h (4 Bft) 100,00 %
13.05.2016 19:39 11,9 C 95 % 997,0 hPa 0,0 l/m 17,3 km/h (3 Bft) W-SW 255 0 min 0,000 mm 0,0 UV-I 21 W/m 11,1 C 6,6 C 20,9 km/h (4 Bft) 100,00 %
13.05.2016 19:40 11,9 C 95 % 997,0 hPa 0,0 l/m 17,2 km/h (3 Bft) SW 234 0 min 0,000 mm 0,0 UV-I 19 W/m 11,1 C 6,6 C 27,4 km/h (4 Bft) 100,00 %
13.05.2016 19:41 11,9 C 95 % 997,1 hPa 0,0 l/m 16,0 km/h (3 Bft) W 260 0 min 0,000 mm 0,0 UV-I 19 W/m 11,1 C 7,1 C 22,5 km/h (4 Bft) 95,65 %
13.05.2016 19:42 11,9 C 95 % 997,1 hPa 0,0 l/m 18,1 km/h (3 Bft) S-SW 209 0 min 0,000 mm 0,0 UV-I 18 W/m 11,1 C 6,3 C 24,1 km/h (4 Bft) 100,00 %
13.05.2016 19:43 11,9 C 95 % 997,1 hPa 0,2 l/m 14,9 km/h (3 Bft) W-SW 239 0 min 0,000 mm 0,0 UV-I 18 W/m 11,1 C 7,5 C 22,5 km/h (4 Bft) 100,00 %
13.05.2016 19:44 11,8 C 95 % 997,1 hPa 0,0 l/m 13,9 km/h (3 Bft) W-SW 238 0 min 0,000 mm 0,0 UV-I 18 W/m 11,0 C 7,8 C 17,7 km/h (3 Bft) 94,44 %
13.05.2016 19:45 11,8 C 95 % 997,0 hPa 0,0 l/m 18,3 km/h (3 Bft) W 271 0 min 0,000 mm 0,0 UV-I 18 W/m 11,0 C 6,1 C 24,1 km/h (4 Bft) 100,00 %
13.05.2016 19:46 11,8 C 95 % 997,1 hPa 0,0 l/m 14,2 km/h (3 Bft) W-SW 254 0 min 0,000 mm 0,0 UV-I 17 W/m 11,0 C 7,6 C 22,5 km/h (4 Bft) 100,00 %
13.05.2016 19:47 11,8 C 95 % 997,1 hPa 0,0 l/m 10,1 km/h (2 Bft) W-SW 251 0 min 0,000 mm 0,0 UV-I 16 W/m 11,0 C 9,5 C 16,1 km/h (3 Bft) 92,86 %
13.05.2016 19:48 11,8 C 95 % 997,1 hPa 0,0 l/m 14,8 km/h (3 Bft) W-SW 252 0 min 0,000 mm 0,0 UV-I 16 W/m 11,0 C 7,4 C 20,9 km/h (4 Bft) 100,00 %
13.05.2016 19:49 11,8 C 95 % 997,1 hPa 0,0 l/m 18,3 km/h (3 Bft) W-SW 241 0 min 0,000 mm 0,0 UV-I 16 W/m 11,0 C 6,1 C 22,5 km/h (4 Bft) 100,00 %
13.05.2016 19:50 11,8 C 95 % 997,1 hPa 0,0 l/m 13,1 km/h (3 Bft) W-SW 240 0 min 0,000 mm 0,0 UV-I 14 W/m 11,0 C 8,1 C 17,7 km/h (3 Bft) 100,00 %
13.05.2016 19:51 11,8 C 95 % 997,2 hPa 0,0 l/m 17,8 km/h (3 Bft) W-SW 248 0 min 0,000 mm 0,0 UV-I 14 W/m 11,0 C 6,3 C 22,5 km/h (4 Bft) 100,00 %
13.05.2016 19:52 11,8 C 95 % 997,1 hPa 0,0 l/m 16,0 km/h (3 Bft) W-SW 254 0 min 0,000 mm 0,0 UV-I 12 W/m 11,0 C 6,9 C 20,9 km/h (4 Bft) 100,00 %
13.05.2016 19:53 11,8 C 95 % 997,1 hPa 0,0 l/m 16,6 km/h (3 Bft) SW 219 0 min 0,000 mm 0,0 UV-I 11 W/m 11,0 C 6,7 C 22,5 km/h (4 Bft) 100,00 %
13.05.2016 19:54 11,8 C 95 % 997,2 hPa 0,0 l/m 14,9 km/h (3 Bft) SW 229 0 min 0,000 mm 0,0 UV-I 11 W/m 11,0 C 7,4 C 22,5 km/h (4 Bft) 100,00 %
13.05.2016 19:55 11,8 C 95 % 997,2 hPa 0,0 l/m 12,7 km/h (3 Bft) S-SW 211 0 min 0,000 mm 0,0 UV-I 11 W/m 11,0 C 8,3 C 17,7 km/h (3 Bft) 100,00 %
13.05.2016 19:56 11,8 C 95 % 997,1 hPa 0,0 l/m 16,4 km/h (3 Bft) W 262 0 min 0,000 mm 0,0 UV-I 11 W/m 11,0 C 6,8 C 20,9 km/h (4 Bft) 100,00 %
13.05.2016 19:57 11,8 C 95 % 997,1 hPa 0,0 l/m 17,5 km/h (3 Bft) S-SW 206 0 min 0,000 mm 0,0 UV-I 10 W/m 11,0 C 6,4 C 24,1 km/h (4 Bft) 100,00 %
13.05.2016 19:58 11,8 C 95 % 997,1 hPa 0,0 l/m 15,2 km/h (3 Bft) S-SW 212 0 min 0,000 mm 0,0 UV-I 11 W/m 11,0 C 7,2 C 19,3 km/h (3 Bft) 90,91 %
13.05.2016 19:59 11,8 C 95 % 997,2 hPa 0,0 l/m 18,2 km/h (3 Bft) W-SW 241 0 min 0,000 mm 0,0 UV-I 11 W/m 11,0 C 6,2 C 22,5 km/h (4 Bft) 93,33 %
13.05.2016 20:00 11,8 C 95 % 997,2 hPa 0,0 l/m 16,6 km/h (3 Bft) SW 225 0 min 0,000 mm 0,0 UV-I 11 W/m 11,0 C 6,7 C 20,9 km/h (4 Bft) 97,56 %
13.05.2016 20:01 11,8 C 95 % 997,2 hPa 0,0 l/m 22,0 km/h (4 Bft) W-SW 245 0 min 0,025 mm 0,0 UV-I 11 W/m 11,0 C 5,0 C 32,2 km/h (5 Bft) 100,00 %
13.05.2016 20:02 11,8 C 95 % 997,1 hPa 0,0 l/m 17,3 km/h (3 Bft) SW 234 0 min 0,000 mm 0,0 UV-I 11 W/m 11,0 C 6,5 C 22,5 km/h (4 Bft) 100,00 %
13.05.2016 20:03 11,8 C 95 % 997,2 hPa 0,0 l/m 15,5 km/h (3 Bft) W-SW 239 0 min 0,000 mm 0,0 UV-I 11 W/m 11,0 C 7,1 C 19,3 km/h (3 Bft) 100,00 %
13.05.2016 20:04 11,8 C 95 % 997,2 hPa 0,0 l/m 19,0 km/h (3 Bft) SW 226 0 min 0,000 mm 0,0 UV-I 11 W/m 11,0 C 5,9 C 25,7 km/h (4 Bft) 95,65 %
13.05.2016 20:05 11,8 C 95 % 997,2 hPa 0,0 l/m 15,9 km/h (3 Bft) SW 218 0 min 0,000 mm 0,0 UV-I 11 W/m 11,0 C 7,0 C 22,5 km/h (4 Bft) 100,00 %
13.05.2016 20:06 11,8 C 95 % 997,2 hPa 0,0 l/m 18,4 km/h (3 Bft) W-SW 252 0 min 0,000 mm 0,0 UV-I 11 W/m 11,0 C 6,1 C 24,1 km/h (4 Bft) 100,00 %
13.05.2016 20:07 11,8 C 95 % 997,2 hPa 0,0 l/m 17,1 km/h (3 Bft) SW 234 0 min 0,000 mm 0,0 UV-I 11 W/m 11,0 C 6,5 C 22,5 km/h (4 Bft) 100,00 %
13.05.2016 20:08 11,8 C 95 % 997,2 hPa 0,0 l/m 13,7 km/h (3 Bft) SW 228 0 min 0,000 mm 0,0 UV-I 11 W/m 11,0 C 7,8 C 17,7 km/h (3 Bft) 100,00 %
13.05.2016 20:09 11,7 C 95 % 997,2 hPa 0,0 l/m 16,5 km/h (3 Bft) W 261 0 min 0,000 mm 0,0 UV-I 11 W/m 10,9 C 6,6 C 27,4 km/h (4 Bft) 100,00 %
13.05.2016 20:10 11,7 C 95 % 997,2 hPa 0,0 l/m 17,5 km/h (3 Bft) W-SW 241 0 min 0,000 mm 0,0 UV-I 10 W/m 10,9 C 6,3 C 22,5 km/h (4 Bft) 100,00 %
13.05.2016 20:11 11,7 C 95 % 997,3 hPa 0,0 l/m 18,7 km/h (3 Bft) SW 233 0 min 0,000 mm 0,0 UV-I 9 W/m 10,9 C 5,9 C 24,1 km/h (4 Bft) 100,00 %
13.05.2016 20:12 11,7 C 95 % 997,3 hPa 0,0 l/m 14,1 km/h (3 Bft) SW 234 0 min 0,000 mm 0,0 UV-I 9 W/m 10,9 C 7,6 C 20,9 km/h (4 Bft) 100,00 %
13.05.2016 20:13 11,7 C 95 % 997,3 hPa 0,0 l/m 15,9 km/h (3 Bft) W-SW 241 0 min 0,000 mm 0,0 UV-I 9 W/m 10,9 C 6,9 C 25,7 km/h (4 Bft) 100,00 %
13.05.2016 20:14 11,7 C 95 % 997,3 hPa 0,0 l/m 12,2 km/h (2 Bft) W-SW 250 0 min 0,000 mm 0,0 UV-I 9 W/m 10,9 C 8,4 C 22,5 km/h (4 Bft) 100,00 %
13.05.2016 20:15 11,7 C 95 % 997,4 hPa 0,0 l/m 11,7 km/h (2 Bft) W-SW 240 0 min 0,000 mm 0,0 UV-I 8 W/m 10,9 C 8,6 C 16,1 km/h (3 Bft) 100,00 %
13.05.2016 20:16 11,7 C 95 % 997,4 hPa 0,0 l/m 14,6 km/h (3 Bft) W-SW 249 0 min 0,000 mm 0,0 UV-I 7 W/m 10,9 C 7,4 C 22,5 km/h (4 Bft) 95,83 %
13.05.2016 20:17 11,7 C 95 % 997,3 hPa 0,0 l/m 15,1 km/h (3 Bft) SW 215 0 min 0,000 mm 0,0 UV-I 7 W/m 10,9 C 7,2 C 20,9 km/h (4 Bft) 95,65 %
13.05.2016 20:18 11,7 C 95 % 997,4 hPa 0,0 l/m 18,3 km/h (3 Bft) SW 232 0 min 0,000 mm 0,0 UV-I 7 W/m 10,9 C 6,0 C 25,7 km/h (4 Bft) 100,00 %
13.05.2016 20:19 11,7 C 95 % 997,4 hPa 0,0 l/m 11,9 km/h (2 Bft) W-SW 244 0 min 0,000 mm 0,0 UV-I 7 W/m 10,9 C 8,5 C 17,7 km/h (3 Bft) 100,00 %
13.05.2016 20:20 11,7 C 95 % 997,3 hPa 0,0 l/m 12,9 km/h (3 Bft) W-SW 242 0 min 0,000 mm 0,0 UV-I 5 W/m 10,9 C 8,1 C 19,3 km/h (3 Bft) 100,00 %
13.05.2016 20:21 11,7 C 95 % 997,4 hPa 0,0 l/m 17,1 km/h (3 Bft) W-SW 246 0 min 0,000 mm 0,0 UV-I 5 W/m 10,9 C 6,4 C 27,4 km/h (4 Bft) 100,00 %
13.05.2016 20:22 11,7 C 95 % 997,4 hPa 0,0 l/m 16,8 km/h (3 Bft) W 260 0 min 0,000 mm 0,0 UV-I 5 W/m 10,9 C 6,5 C 22,5 km/h (4 Bft) 100,00 %
13.05.2016 20:23 11,7 C 95 % 997,5 hPa 0,0 l/m 12,3 km/h (3 Bft) W-SW 245 0 min 0,000 mm 0,0 UV-I 5 W/m 10,9 C 8,3 C 19,3 km/h (3 Bft) 100,00 %
13.05.2016 20:24 11,7 C 95 % 997,4 hPa 0,0 l/m 11,6 km/h (2 Bft) W-SW 238 0 min 0,000 mm 0,0 UV-I 5 W/m 10,9 C 8,7 C 16,1 km/h (3 Bft) 100,00 %
13.05.2016 20:25 11,7 C 95 % 997,5 hPa 0,0 l/m 13,6 km/h (3 Bft) SW 227 0 min 0,000 mm 0,0 UV-I 5 W/m 10,9 C 7,8 C 17,7 km/h (3 Bft) 96,55 %
13.05.2016 20:26 11,7 C 95 % 997,5 hPa 0,0 l/m 11,7 km/h (2 Bft) W-SW 255 0 min 0,000 mm 0,0 UV-I 5 W/m 10,9 C 8,6 C 16,1 km/h (3 Bft) 100,00 %
13.05.2016 20:27 11,7 C 95 % 997,5 hPa 0,0 l/m 14,1 km/h (3 Bft) SW 217 0 min 0,000 mm 0,0 UV-I 5 W/m 10,9 C 7,6 C 19,3 km/h (3 Bft) 100,00 %
13.05.2016 20:28 11,6 C 95 % 997,5 hPa 0,0 l/m 11,4 km/h (2 Bft) SW 229 0 min 0,000 mm 0,0 UV-I 3 W/m 10,8 C 8,6 C 14,5 km/h (3 Bft) 100,00 %
13.05.2016 20:29 11,6 C 95 % 997,5 hPa 0,0 l/m 12,8 km/h (3 Bft) W 259 0 min 0,000 mm 0,0 UV-I 0 W/m 10,8 C 8,0 C 16,1 km/h (3 Bft) 100,00 %
13.05.2016 20:30 11,6 C 95 % 997,5 hPa 0,0 l/m 8,7 km/h (2 Bft) W-SW 252 0 min 0,000 mm 0,0 UV-I 0 W/m 10,8 C 10,1 C 11,3 km/h (2 Bft) 100,00 %
13.05.2016 20:31 11,6 C 95 % 997,5 hPa 0,0 l/m 10,2 km/h (2 Bft) SW 234 0 min 0,000 mm 0,0 UV-I 0 W/m 10,8 C 9,3 C 14,5 km/h (3 Bft) 96,67 %
13.05.2016 20:32 11,6 C 95 % 997,5 hPa 0,0 l/m 12,3 km/h (3 Bft) W-SW 248 0 min 0,000 mm 0,0 UV-I 0 W/m 10,8 C 8,2 C 17,7 km/h (3 Bft) 100,00 %
13.05.2016 20:33 11,6 C 95 % 997,6 hPa 0,0 l/m 13,1 km/h (3 Bft) SW 229 0 min 0,000 mm 0,0 UV-I 0 W/m 10,8 C 7,9 C 17,7 km/h (3 Bft) 100,00 %
13.05.2016 20:34 11,6 C 95 % 997,6 hPa 0,0 l/m 13,9 km/h (3 Bft) SW 229 0 min 0,000 mm 0,0 UV-I 0 W/m 10,8 C 7,5 C 24,1 km/h (4 Bft) 100,00 %
13.05.2016 20:35 11,6 C 95 % 997,6 hPa 0,0 l/m 17,2 km/h (3 Bft) W 270 0 min 0,000 mm 0,0 UV-I 0 W/m 10,8 C 6,3 C 24,1 km/h (4 Bft) 100,00 %
13.05.2016 20:36 11,6 C 95 % 997,7 hPa 0,0 l/m 11,5 km/h (2 Bft) W-SW 249 0 min 0,000 mm 0,0 UV-I 0 W/m 10,8 C 8,6 C 16,1 km/h (3 Bft) 100,00 %
13.05.2016 20:37 11,6 C 95 % 997,7 hPa 0,0 l/m 13,8 km/h (3 Bft) W-SW 243 0 min 0,000 mm 0,0 UV-I 0 W/m 10,8 C 7,6 C 17,7 km/h (3 Bft) 100,00 %
13.05.2016 20:38 11,6 C 95 % 997,7 hPa 0,0 l/m 13,2 km/h (3 Bft) SW 230 0 min 0,000 mm 0,0 UV-I 0 W/m 10,8 C 7,8 C 17,7 km/h (3 Bft) 100,00 %
13.05.2016 20:39 11,6 C 95 % 997,7 hPa 0,0 l/m 14,1 km/h (3 Bft) W 259 0 min 0,000 mm 0,0 UV-I 0 W/m 10,8 C 7,4 C 17,7 km/h (3 Bft) 93,33 %
13.05.2016 20:40 11,6 C 95 % 997,7 hPa 0,0 l/m 12,7 km/h (3 Bft) W-SW 251 0 min 0,000 mm 0,0 UV-I 0 W/m 10,8 C 8,0 C 19,3 km/h (3 Bft) 100,00 %
13.05.2016 20:41 11,6 C 95 % 997,7 hPa 0,0 l/m 12,2 km/h (2 Bft) W 264 0 min 0,000 mm 0,0 UV-I 0 W/m 10,8 C 8,3 C 16,1 km/h (3 Bft) 100,00 %
13.05.2016 20:42 11,6 C 95 % 997,7 hPa 0,0 l/m 14,7 km/h (3 Bft) W 259 0 min 0,000 mm 0,0 UV-I 0 W/m 10,8 C 7,2 C 19,3 km/h (3 Bft) 100,00 %
13.05.2016 20:43 11,6 C 95 % 997,7 hPa 0,0 l/m 15,5 km/h (3 Bft) W-SW 249 0 min 0,000 mm 0,0 UV-I 0 W/m 10,8 C 6,9 C 20,9 km/h (4 Bft) 100,00 %
13.05.2016 20:44 11,6 C 95 % 997,8 hPa 0,0 l/m 14,7 km/h (3 Bft) W-SW 240 0 min 0,000 mm 0,0 UV-I 0 W/m 10,8 C 7,2 C 22,5 km/h (4 Bft) 100,00 %
13.05.2016 20:45 11,6 C 95 % 997,8 hPa 0,0 l/m 12,4 km/h (3 Bft) SW 235 0 min 0,000 mm 0,0 UV-I 0 W/m 10,8 C 8,2 C 20,9 km/h (4 Bft) 100,00 %
13.05.2016 20:46 11,6 C 95 % 997,8 hPa 0,0 l/m 15,0 km/h (3 Bft) SW 232 0 min 0,000 mm 0,0 UV-I 0 W/m 10,8 C 7,1 C 19,3 km/h (3 Bft) 100,00 %
13.05.2016 20:47 11,6 C 95 % 997,8 hPa 0,0 l/m 12,2 km/h (2 Bft) W-SW 252 0 min 0,000 mm 0,0 UV-I 0 W/m 10,8 C 8,3 C 17,7 km/h (3 Bft) 96,30 %
13.05.2016 20:48 11,6 C 95 % 997,9 hPa 0,0 l/m 12,3 km/h (3 Bft) W 277 0 min 0,000 mm 0,0 UV-I 0 W/m 10,8 C 8,2 C 20,9 km/h (4 Bft) 100,00 %
13.05.2016 20:49 11,6 C 95 % 997,9 hPa 0,0 l/m 14,6 km/h (3 Bft) W-SW 238 0 min 0,000 mm 0,0 UV-I 0 W/m 10,8 C 7,2 C 20,9 km/h (4 Bft) 100,00 %
13.05.2016 20:50 11,6 C 95 % 997,9 hPa 0,0 l/m 12,8 km/h (3 Bft) SW 229 0 min 0,000 mm 0,0 UV-I 0 W/m 10,8 C 8,0 C 19,3 km/h (3 Bft) 100,00 %
13.05.2016 20:51 11,6 C 95 % 998,0 hPa 0,0 l/m 9,1 km/h (2 Bft) W 274 0 min 0,000 mm 0,0 UV-I 0 W/m 10,8 C 9,9 C 12,9 km/h (3 Bft) 100,00 %
13.05.2016 20:52 11,6 C 95 % 998,0 hPa 0,0 l/m 11,5 km/h (2 Bft) W 260 0 min 0,000 mm 0,0 UV-I 0 W/m 10,8 C 8,6 C 16,1 km/h (3 Bft) 100,00 %
13.05.2016 20:53 11,5 C 95 % 998,0 hPa 0,0 l/m 13,6 km/h (3 Bft) W-SW 241 0 min 0,000 mm 0,0 UV-I 0 W/m 10,7 C 7,5 C 17,7 km/h (3 Bft) 95,65 %
13.05.2016 20:54 11,5 C 95 % 998,1 hPa 0,0 l/m 13,3 km/h (3 Bft) W-SW 258 0 min 0,000 mm 0,0 UV-I 0 W/m 10,7 C 7,7 C 16,1 km/h (3 Bft) 100,00 %
13.05.2016 20:55 11,5 C 95 % 998,1 hPa 0,0 l/m 10,7 km/h (2 Bft) W 261 0 min 0,000 mm 0,0 UV-I 0 W/m 10,7 C 8,9 C 17,7 km/h (3 Bft) 96,55 %
13.05.2016 20:56 11,5 C 95 % 998,1 hPa 0,0 l/m 6,8 km/h (2 Bft) W 265 0 min 0,000 mm 0,0 UV-I 0 W/m 10,7 C 11,2 C 9,7 km/h (2 Bft) 100,00 %
13.05.2016 20:57 11,5 C 95 % 998,2 hPa 0,0 l/m 9,4 km/h (2 Bft) W-SW 252 0 min 0,000 mm 0,0 UV-I 0 W/m 10,7 C 9,6 C 12,9 km/h (3 Bft) 96,55 %
13.05.2016 20:58 11,5 C 95 % 998,2 hPa 0,0 l/m 14,8 km/h (3 Bft) W 261 0 min 0,000 mm 0,0 UV-I 0 W/m 10,7 C 7,0 C 22,5 km/h (4 Bft) 96,67 %
13.05.2016 20:59 11,5 C 95 % 998,2 hPa 0,0 l/m 12,1 km/h (2 Bft) W-NW 283 0 min 0,000 mm 0,0 UV-I 0 W/m 10,7 C 8,2 C 16,1 km/h (3 Bft) 100,00 %
13.05.2016 21:00 11,5 C 95 % 998,2 hPa 0,0 l/m 11,2 km/h (2 Bft) W-NW 295 0 min 0,000 mm 0,0 UV-I 0 W/m 10,7 C 8,6 C 17,7 km/h (3 Bft) 96,30 %
13.05.2016 21:02 11,5 C 95 % 998,3 hPa 0,0 l/m 11,7 km/h (2 Bft) W 265 0 min 0,000 mm 0,0 UV-I 0 W/m 10,7 C 8,4 C 16,1 km/h (3 Bft) 94,34 %
13.05.2016 21:03 11,5 C 95 % 998,3 hPa 0,0 l/m 12,5 km/h (3 Bft) W 267 0 min 0,000 mm 0,0 UV-I 0 W/m 10,7 C 8,0 C 14,5 km/h (3 Bft) 96,15 %
13.05.2016 21:04 11,5 C 95 % 998,4 hPa 0,0 l/m 9,4 km/h (2 Bft) W-SW 257 0 min 0,000 mm 0,0 UV-I 0 W/m 10,7 C 9,6 C 16,1 km/h (3 Bft) 100,00 %
13.05.2016 21:05 11,5 C 95 % 998,3 hPa 0,0 l/m 12,2 km/h (2 Bft) W-SW 242 0 min 0,000 mm 0,0 UV-I 0 W/m 10,7 C 8,1 C 16,1 km/h (3 Bft) 92,86 %
13.05.2016 21:06 11,5 C 95 % 998,3 hPa 0,0 l/m 11,4 km/h (2 Bft) W-SW 250 0 min 0,000 mm 0,0 UV-I 0 W/m 10,7 C 8,5 C 14,5 km/h (3 Bft) 100,00 %
13.05.2016 21:07 11,5 C 95 % 998,4 hPa 0,0 l/m 12,2 km/h (2 Bft) W-SW 255 0 min 0,000 mm 0,0 UV-I 0 W/m 10,7 C 8,1 C 17,7 km/h (3 Bft) 92,31 %
13.05.2016 21:08 11,5 C 95 % 998,4 hPa 0,0 l/m 11,7 km/h (2 Bft) W-SW 250 0 min 0,000 mm 0,0 UV-I 0 W/m 10,7 C 8,4 C 14,5 km/h (3 Bft) 91,67 %
13.05.2016 21:09 11,5 C 95 % 998,4 hPa 0,0 l/m 15,3 km/h (3 Bft) W 270 0 min 0,000 mm 0,0 UV-I 0 W/m 10,7 C 6,8 C 17,7 km/h (3 Bft) 100,00 %
13.05.2016 21:10 11,5 C 95 % 998,4 hPa 0,0 l/m 13,8 km/h (3 Bft) W-SW 254 0 min 0,000 mm 0,0 UV-I 0 W/m 10,7 C 7,4 C 22,5 km/h (4 Bft) 93,18 %
13.05.2016 21:11 11,5 C 95 % 998,4 hPa 0,0 l/m 11,2 km/h (2 Bft) SW 232 0 min 0,000 mm 0,0 UV-I 0 W/m 10,7 C 8,6 C 14,5 km/h (3 Bft) 100,00 %
13.05.2016 21:12 11,5 C 95 % 998,4 hPa 0,0 l/m 8,5 km/h (2 Bft) W-SW 252 0 min 0,000 mm 0,0 UV-I 0 W/m 10,7 C 10,1 C 14,5 km/h (3 Bft) 96,15 %
13.05.2016 21:13 11,5 C 95 % 998,5 hPa 0,0 l/m 11,3 km/h (2 Bft) W 260 0 min 0,000 mm 0,0 UV-I 0 W/m 10,7 C 8,6 C 16,1 km/h (3 Bft) 100,00 %
13.05.2016 21:14 11,5 C 95 % 998,5 hPa 0,0 l/m 12,3 km/h (3 Bft) W-SW 240 0 min 0,000 mm 0,0 UV-I 0 W/m 10,7 C 8,1 C 17,7 km/h (3 Bft) 94,12 %
13.05.2016 21:15 11,5 C 95 % 998,5 hPa 0,0 l/m 14,0 km/h (3 Bft) W 267 0 min 0,000 mm 0,0 UV-I 0 W/m 10,7 C 7,4 C 17,7 km/h (3 Bft) 100,00 %
13.05.2016 21:16 11,5 C 95 % 998,5 hPa 0,0 l/m 11,1 km/h (2 Bft) W 259 0 min 0,000 mm 0,0 UV-I 0 W/m 10,7 C 8,7 C 14,5 km/h (3 Bft) 96,15 %
13.05.2016 21:17 11,5 C 95 % 998,5 hPa 0,0 l/m 13,4 km/h (3 Bft) W-SW 247 0 min 0,000 mm 0,0 UV-I 0 W/m 10,7 C 7,6 C 16,1 km/h (3 Bft) 100,00 %
13.05.2016 21:18 11,5 C 95 % 998,5 hPa 0,0 l/m 13,5 km/h (3 Bft) SW 230 0 min 0,000 mm 0,0 UV-I 0 W/m 10,7 C 7,6 C 16,1 km/h (3 Bft) 90,91 %
13.05.2016 21:19 11,5 C 95 % 998,5 hPa 0,0 l/m 11,7 km/h (2 Bft) SW 234 0 min 0,000 mm 0,0 UV-I 0 W/m 10,7 C 8,4 C 16,1 km/h (3 Bft) 100,00 %
13.05.2016 21:20 11,5 C 95 % 998,5 hPa 0,0 l/m 10,9 km/h (2 Bft) SW 234 0 min 0,000 mm 0,0 UV-I 0 W/m 10,7 C 8,8 C 12,9 km/h (3 Bft) 92,31 %
13.05.2016 21:21 11,5 C 95 % 998,4 hPa 0,0 l/m 9,6 km/h (2 Bft) SW 236 0 min 0,000 mm 0,0 UV-I 0 W/m 10,7 C 9,5 C 16,1 km/h (3 Bft) 91,67 %
13.05.2016 21:22 11,5 C 96 % 998,5 hPa 0,0 l/m 11,3 km/h (2 Bft) SW 236 0 min 0,000 mm 0,0 UV-I 0 W/m 10,9 C 8,6 C 14,5 km/h (3 Bft) 100,00 %
13.05.2016 21:23 11,5 C 95 % 998,5 hPa 0,0 l/m 11,3 km/h (2 Bft) W 265 0 min 0,000 mm 0,0 UV-I 0 W/m 10,7 C 8,6 C 16,1 km/h (3 Bft) 96,30 %
13.05.2016 21:24 11,5 C 96 % 998,5 hPa 0,0 l/m 15,5 km/h (3 Bft) W-SW 242 0 min 0,000 mm 0,0 UV-I 0 W/m 10,9 C 6,8 C 19,3 km/h (3 Bft) 100,00 %
13.05.2016 21:25 11,5 C 96 % 998,5 hPa 0,0 l/m 10,9 km/h (2 Bft) W 269 0 min 0,000 mm 0,0 UV-I 0 W/m 10,9 C 8,8 C 16,1 km/h (3 Bft) 86,67 %
13.05.2016 21:26 11,5 C 96 % 998,5 hPa 0,0 l/m 14,0 km/h (3 Bft) W-SW 258 0 min 0,000 mm 0,0 UV-I 0 W/m 10,9 C 7,4 C 19,3 km/h (3 Bft) 100,00 %
13.05.2016 21:27 11,5 C 96 % 998,5 hPa 0,0 l/m 15,2 km/h (3 Bft) W 276 0 min 0,000 mm 0,0 UV-I 0 W/m 10,9 C 6,9 C 17,7 km/h (3 Bft) 92,31 %
13.05.2016 21:28 11,5 C 95 % 998,5 hPa 0,0 l/m 16,2 km/h (3 Bft) W-SW 250 0 min 0,000 mm 0,0 UV-I 0 W/m 10,7 C 6,5 C 19,3 km/h (3 Bft) 100,00 %
13.05.2016 21:29 11,5 C 95 % 998,6 hPa 0,0 l/m 14,0 km/h (3 Bft) W 263 0 min 0,000 mm 0,0 UV-I 0 W/m 10,7 C 7,4 C 19,3 km/h (3 Bft) 100,00 %
13.05.2016 21:30 11,5 C 95 % 998,5 hPa 0,0 l/m 13,0 km/h (3 Bft) W-SW 240 0 min 0,000 mm 0,0 UV-I 0 W/m 10,7 C 7,8 C 16,1 km/h (3 Bft) 100,00 %
13.05.2016 21:31 11,5 C 96 % 998,6 hPa 0,0 l/m 13,6 km/h (3 Bft) W-SW 238 0 min 0,000 mm 0,0 UV-I 0 W/m 10,9 C 7,5 C 17,7 km/h (3 Bft) 96,15 %
13.05.2016 21:32 11,5 C 96 % 998,6 hPa 0,0 l/m 11,9 km/h (2 Bft) W-SW 254 0 min 0,000 mm 0,0 UV-I 0 W/m 10,9 C 8,3 C 14,5 km/h (3 Bft) 96,30 %
13.05.2016 21:33 11,5 C 96 % 998,6 hPa 0,0 l/m 11,2 km/h (2 Bft) W-SW 251 0 min 0,000 mm 0,0 UV-I 0 W/m 10,9 C 8,6 C 19,3 km/h (3 Bft) 100,00 %
13.05.2016 21:34 11,5 C 96 % 998,6 hPa 0,0 l/m 14,0 km/h (3 Bft) W 264 0 min 0,000 mm 0,0 UV-I 0 W/m 10,9 C 7,4 C 17,7 km/h (3 Bft) 100,00 %
13.05.2016 21:35 11,5 C 95 % 998,6 hPa 0,0 l/m 15,2 km/h (3 Bft) W-SW 250 0 min 0,000 mm 0,0 UV-I 0 W/m 10,7 C 6,9 C 22,5 km/h (4 Bft) 93,10 %
13.05.2016 21:36 11,5 C 96 % 998,6 hPa 0,0 l/m 13,4 km/h (3 Bft) W-SW 240 0 min 0,000 mm 0,0 UV-I 0 W/m 10,9 C 7,6 C 17,7 km/h (3 Bft) 96,30 %
13.05.2016 21:37 11,5 C 96 % 998,6 hPa 0,0 l/m 16,9 km/h (3 Bft) S-SW 213 0 min 0,000 mm 0,0 UV-I 0 W/m 10,9 C 6,2 C 24,1 km/h (4 Bft) 100,00 %
13.05.2016 21:38 11,5 C 96 % 998,6 hPa 0,0 l/m 16,7 km/h (3 Bft) W-SW 244 0 min 0,000 mm 0,0 UV-I 0 W/m 10,9 C 6,3 C 24,1 km/h (4 Bft) 93,33 %
13.05.2016 21:39 11,5 C 96 % 998,6 hPa 0,0 l/m 15,6 km/h (3 Bft) SW 229 0 min 0,000 mm 0,0 UV-I 0 W/m 10,9 C 6,7 C 19,3 km/h (3 Bft) 100,00 %
13.05.2016 21:40 11,5 C 96 % 998,6 hPa 0,0 l/m 16,6 km/h (3 Bft) SW 232 0 min 0,000 mm 0,0 UV-I 0 W/m 10,9 C 6,3 C 20,9 km/h (4 Bft) 100,00 %
13.05.2016 21:41 11,5 C 96 % 998,5 hPa 0,0 l/m 16,4 km/h (3 Bft) SW 228 0 min 0,000 mm 0,0 UV-I 0 W/m 10,9 C 6,4 C 24,1 km/h (4 Bft) 100,00 %
13.05.2016 21:42 11,5 C 96 % 998,6 hPa 0,0 l/m 15,5 km/h (3 Bft) W-SW 243 0 min 0,000 mm 0,0 UV-I 0 W/m 10,9 C 6,8 C 22,5 km/h (4 Bft) 100,00 %
13.05.2016 21:43 11,5 C 96 % 998,6 hPa 0,0 l/m 15,0 km/h (3 Bft) W-SW 257 0 min 0,000 mm 0,0 UV-I 0 W/m 10,9 C 7,0 C 22,5 km/h (4 Bft) 92,31 %
13.05.2016 21:44 11,5 C 96 % 998,6 hPa 0,0 l/m 17,8 km/h (3 Bft) W-SW 249 0 min 0,000 mm 0,0 UV-I 0 W/m 10,9 C 5,9 C 22,5 km/h (4 Bft) 100,00 %
13.05.2016 21:45 11,5 C 96 % 998,5 hPa 0,0 l/m 16,0 km/h (3 Bft) W-SW 242 0 min 0,000 mm 0,0 UV-I 0 W/m 10,9 C 6,6 C 24,1 km/h (4 Bft) 100,00 %
13.05.2016 21:46 11,5 C 96 % 998,5 hPa 0,0 l/m 15,2 km/h (3 Bft) W-SW 246 0 min 0,000 mm 0,0 UV-I 0 W/m 10,9 C 6,9 C 19,3 km/h (3 Bft) 93,33 %
13.05.2016 21:47 11,5 C 96 % 998,5 hPa 0,0 l/m 13,7 km/h (3 Bft) W 269 0 min 0,000 mm 0,0 UV-I 0 W/m 10,9 C 7,5 C 19,3 km/h (3 Bft) 100,00 %
13.05.2016 21:48 11,5 C 96 % 998,5 hPa 0,0 l/m 15,4 km/h (3 Bft) W-SW 244 0 min 0,000 mm 0,0 UV-I 0 W/m 10,9 C 6,8 C 20,9 km/h (4 Bft) 100,00 %
13.05.2016 21:49 11,6 C 96 % 998,5 hPa 0,0 l/m 13,3 km/h (3 Bft) W-SW 257 0 min 0,000 mm 0,0 UV-I 0 W/m 11,0 C 7,8 C 17,7 km/h (3 Bft) 100,00 %
13.05.2016 21:50 11,6 C 96 % 998,6 hPa 0,0 l/m 13,9 km/h (3 Bft) W-SW 244 0 min 0,000 mm 0,0 UV-I 0 W/m 11,0 C 7,5 C 17,7 km/h (3 Bft) 100,00 %
13.05.2016 21:51 11,6 C 96 % 998,5 hPa 0,0 l/m 13,0 km/h (3 Bft) W-SW 255 0 min 0,000 mm 0,0 UV-I 0 W/m 11,0 C 7,9 C 17,7 km/h (3 Bft) 100,00 %
13.05.2016 21:52 11,5 C 96 % 998,6 hPa 0,0 l/m 13,1 km/h (3 Bft) SW 229 0 min 0,000 mm 0,0 UV-I 0 W/m 10,9 C 7,7 C 19,3 km/h (3 Bft) 100,00 %
13.05.2016 21:53 11,5 C 96 % 998,6 hPa 0,0 l/m 11,9 km/h (2 Bft) W-SW 252 0 min 0,000 mm 0,0 UV-I 0 W/m 10,9 C 8,3 C 16,1 km/h (3 Bft) 100,00 %
13.05.2016 21:54 11,5 C 96 % 998,6 hPa 0,0 l/m 13,4 km/h (3 Bft) W 259 0 min 0,000 mm 0,0 UV-I 0 W/m 10,9 C 7,6 C 19,3 km/h (3 Bft) 100,00 %
13.05.2016 21:55 11,5 C 96 % 998,6 hPa 0,0 l/m 13,3 km/h (3 Bft) W-SW 244 0 min 0,000 mm 0,0 UV-I 0 W/m 10,9 C 7,7 C 20,9 km/h (4 Bft) 96,67 %
13.05.2016 21:56 11,5 C 96 % 998,6 hPa 0,0 l/m 17,2 km/h (3 Bft) W 261 0 min 0,000 mm 0,0 UV-I 0 W/m 10,9 C 6,1 C 22,5 km/h (4 Bft) 100,00 %
13.05.2016 21:57 11,5 C 96 % 998,6 hPa 0,0 l/m 13,8 km/h (3 Bft) W-SW 249 0 min 0,000 mm 0,0 UV-I 0 W/m 10,9 C 7,4 C 20,9 km/h (4 Bft) 100,00 %
13.05.2016 21:58 11,5 C 96 % 998,5 hPa 0,0 l/m 13,0 km/h (3 Bft) W-SW 240 0 min 0,000 mm 0,0 UV-I 0 W/m 10,9 C 7,8 C 19,3 km/h (3 Bft) 100,00 %
13.05.2016 21:59 11,5 C 96 % 998,5 hPa 0,0 l/m 16,1 km/h (3 Bft) SW 220 0 min 0,000 mm 0,0 UV-I 0 W/m 10,9 C 6,5 C 22,5 km/h (4 Bft) 100,00 %
13.05.2016 22:00 11,5 C 96 % 998,5 hPa 0,0 l/m 14,6 km/h (3 Bft) S-SW 211 0 min 0,000 mm 0,0 UV-I 0 W/m 10,9 C 7,1 C 19,3 km/h (3 Bft) 100,00 %
13.05.2016 22:01 11,5 C 96 % 998,6 hPa 0,0 l/m 13,7 km/h (3 Bft) S-SW 209 0 min 0,000 mm 0,0 UV-I 0 W/m 10,9 C 7,5 C 17,7 km/h (3 Bft) 100,00 %
13.05.2016 22:02 11,5 C 96 % 998,6 hPa 0,0 l/m 11,9 km/h (2 Bft) SW 214 0 min 0,000 mm 0,0 UV-I 0 W/m 10,9 C 8,3 C 17,7 km/h (3 Bft) 100,00 %
13.05.2016 22:03 11,5 C 96 % 998,7 hPa 0,0 l/m 12,9 km/h (3 Bft) SW 230 0 min 0,000 mm 0,0 UV-I 0 W/m 10,9 C 7,8 C 16,1 km/h (3 Bft) 100,00 %
13.05.2016 22:04 11,5 C 96 % 998,7 hPa 0,0 l/m 15,4 km/h (3 Bft) S-SW 209 0 min 0,000 mm 0,0 UV-I 0 W/m 10,9 C 6,8 C 20,9 km/h (4 Bft) 100,00 %
13.05.2016 22:05 11,5 C 96 % 998,7 hPa 0,0 l/m 13,9 km/h (3 Bft) W-SW 242 0 min 0,000 mm 0,0 UV-I 0 W/m 10,9 C 7,4 C 19,3 km/h (3 Bft) 100,00 %
13.05.2016 22:06 11,5 C 96 % 998,7 hPa 0,0 l/m 13,1 km/h (3 Bft) SW 232 0 min 0,000 mm 0,0 UV-I 0 W/m 10,9 C 7,7 C 17,7 km/h (3 Bft) 100,00 %
13.05.2016 22:07 11,5 C 96 % 998,7 hPa 0,0 l/m 14,4 km/h (3 Bft) SW 227 0 min 0,000 mm 0,0 UV-I 0 W/m 10,9 C 7,2 C 20,9 km/h (4 Bft) 100,00 %
13.05.2016 22:08 11,5 C 96 % 998,7 hPa 0,0 l/m 12,3 km/h (3 Bft) SW 228 0 min 0,000 mm 0,0 UV-I 0 W/m 10,9 C 8,1 C 16,1 km/h (3 Bft) 100,00 %
13.05.2016 22:09 11,5 C 96 % 998,8 hPa 0,0 l/m 11,7 km/h (2 Bft) SW 219 0 min 0,000 mm 0,0 UV-I 0 W/m 10,9 C 8,4 C 17,7 km/h (3 Bft) 96,30 %
13.05.2016 22:10 11,5 C 96 % 998,8 hPa 0,0 l/m 12,2 km/h (2 Bft) W-SW 237 0 min 0,000 mm 0,0 UV-I 0 W/m 10,9 C 8,1 C 19,3 km/h (3 Bft) 100,00 %
13.05.2016 22:11 11,5 C 96 % 998,8 hPa 0,0 l/m 12,6 km/h (3 Bft) SW 232 0 min 0,000 mm 0,0 UV-I 0 W/m 10,9 C 8,0 C 17,7 km/h (3 Bft) 100,00 %
13.05.2016 22:12 11,5 C 96 % 998,8 hPa 0,0 l/m 13,4 km/h (3 Bft) W-SW 244 0 min 0,000 mm 0,0 UV-I 0 W/m 10,9 C 7,6 C 16,1 km/h (3 Bft) 100,00 %
13.05.2016 22:13 11,5 C 96 % 998,8 hPa 0,0 l/m 11,9 km/h (2 Bft) S-SW 196 0 min 0,000 mm 0,0 UV-I 0 W/m 10,9 C 8,3 C 16,1 km/h (3 Bft) 100,00 %
13.05.2016 22:14 11,5 C 96 % 998,8 hPa 0,0 l/m 10,0 km/h (2 Bft) SW 215 0 min 0,000 mm 0,0 UV-I 0 W/m 10,9 C 9,3 C 14,5 km/h (3 Bft) 100,00 %
13.05.2016 22:15 11,5 C 96 % 998,8 hPa 0,0 l/m 11,7 km/h (2 Bft) SW 216 0 min 0,000 mm 0,0 UV-I 0 W/m 10,9 C 8,4 C 16,1 km/h (3 Bft) 100,00 %
13.05.2016 22:16 11,5 C 96 % 998,9 hPa 0,0 l/m 12,9 km/h (3 Bft) W-SW 252 0 min 0,000 mm 0,0 UV-I 0 W/m 10,9 C 7,8 C 19,3 km/h (3 Bft) 100,00 %
13.05.2016 22:17 11,5 C 96 % 998,8 hPa 0,0 l/m 14,2 km/h (3 Bft) SW 217 0 min 0,000 mm 0,0 UV-I 0 W/m 10,9 C 7,3 C 20,9 km/h (4 Bft) 100,00 %
13.05.2016 22:18 11,5 C 96 % 998,8 hPa 0,0 l/m 15,1 km/h (3 Bft) SW 234 0 min 0,000 mm 0,0 UV-I 0 W/m 10,9 C 6,9 C 20,9 km/h (4 Bft) 95,83 %
13.05.2016 22:19 11,5 C 96 % 998,8 hPa 0,0 l/m 13,1 km/h (3 Bft) W-SW 254 0 min 0,000 mm 0,0 UV-I 0 W/m 10,9 C 7,7 C 17,7 km/h (3 Bft) 100,00 %
13.05.2016 22:20 11,5 C 96 % 998,8 hPa 0,0 l/m 13,1 km/h (3 Bft) W-SW 254 0 min 0,000 mm 0,0 UV-I 0 W/m 10,9 C 7,7 C 16,1 km/h (3 Bft) 96,30 %
13.05.2016 22:21 11,5 C 96 % 998,8 hPa 0,0 l/m 13,0 km/h (3 Bft) W-SW 240 0 min 0,000 mm 0,0 UV-I 0 W/m 10,9 C 7,8 C 17,7 km/h (3 Bft) 100,00 %
13.05.2016 22:22 11,5 C 96 % 998,8 hPa 0,0 l/m 12,8 km/h (3 Bft) S-SW 213 0 min 0,000 mm 0,0 UV-I 0 W/m 10,9 C 7,9 C 16,1 km/h (3 Bft) 100,00 %
13.05.2016 22:23 11,5 C 96 % 998,8 hPa 0,0 l/m 13,7 km/h (3 Bft) W-SW 244 0 min 0,000 mm 0,0 UV-I 0 W/m 10,9 C 7,5 C 17,7 km/h (3 Bft) 100,00 %
13.05.2016 22:24 11,5 C 96 % 998,8 hPa 0,2 l/m 11,8 km/h (2 Bft) SW 224 0 min 0,000 mm 0,0 UV-I 0 W/m 10,9 C 8,3 C 14,5 km/h (3 Bft) 100,00 %
13.05.2016 22:25 11,5 C 96 % 998,8 hPa 0,0 l/m 16,3 km/h (3 Bft) SW 224 0 min 0,000 mm 0,0 UV-I 0 W/m 10,9 C 6,5 C 20,9 km/h (4 Bft) 100,00 %
13.05.2016 22:26 11,5 C 96 % 998,7 hPa 0,0 l/m 13,3 km/h (3 Bft) W-SW 238 0 min 0,000 mm 0,0 UV-I 0 W/m 10,9 C 7,7 C 17,7 km/h (3 Bft) 100,00 %
13.05.2016 22:27 11,5 C 96 % 998,8 hPa 0,0 l/m 17,7 km/h (3 Bft) W 265 0 min 0,000 mm 0,0 UV-I 0 W/m 10,9 C 6,0 C 22,5 km/h (4 Bft) 100,00 %
13.05.2016 22:28 11,5 C 96 % 998,9 hPa 0,0 l/m 12,8 km/h (3 Bft) SW 232 0 min 0,000 mm 0,0 UV-I 0 W/m 10,9 C 7,9 C 17,7 km/h (3 Bft) 100,00 %
13.05.2016 22:29 11,5 C 96 % 998,9 hPa 0,0 l/m 12,4 km/h (3 Bft) W 259 0 min 0,000 mm 0,0 UV-I 0 W/m 10,9 C 8,1 C 17,7 km/h (3 Bft) 100,00 %
13.05.2016 22:30 11,5 C 96 % 998,9 hPa 0,0 l/m 13,8 km/h (3 Bft) S-SW 212 0 min 0,000 mm 0,0 UV-I 0 W/m 10,9 C 7,4 C 17,7 km/h (3 Bft) 96,55 %
13.05.2016 22:31 11,5 C 96 % 998,9 hPa 0,0 l/m 17,0 km/h (3 Bft) SW 217 0 min 0,000 mm 0,0 UV-I 0 W/m 10,9 C 6,2 C 22,5 km/h (4 Bft) 100,00 %
13.05.2016 22:32 11,5 C 96 % 998,9 hPa 0,0 l/m 12,2 km/h (2 Bft) W-SW 242 0 min 0,000 mm 0,0 UV-I 0 W/m 10,9 C 8,1 C 16,1 km/h (3 Bft) 95,65 %
13.05.2016 22:33 11,5 C 96 % 999,0 hPa 0,0 l/m 10,6 km/h (2 Bft) W-SW 237 0 min 0,000 mm 0,0 UV-I 0 W/m 10,9 C 8,9 C 16,1 km/h (3 Bft) 100,00 %
13.05.2016 22:34 11,5 C 96 % 999,0 hPa 0,0 l/m 15,7 km/h (3 Bft) W-SW 243 0 min 0,000 mm 0,0 UV-I 0 W/m 10,9 C 6,7 C 19,3 km/h (3 Bft) 100,00 %
13.05.2016 22:35 11,5 C 96 % 999,0 hPa 0,0 l/m 12,2 km/h (2 Bft) SW 231 0 min 0,000 mm 0,0 UV-I 0 W/m 10,9 C 8,1 C 17,7 km/h (3 Bft) 100,00 %
13.05.2016 22:36 11,5 C 96 % 999,0 hPa 0,0 l/m 12,7 km/h (3 Bft) SW 219 0 min 0,000 mm 0,0 UV-I 0 W/m 10,9 C 7,9 C 19,3 km/h (3 Bft) 100,00 %
13.05.2016 22:37 11,5 C 96 % 998,9 hPa 0,0 l/m 14,8 km/h (3 Bft) W 266 0 min 0,000 mm 0,0 UV-I 0 W/m 10,9 C 7,0 C 17,7 km/h (3 Bft) 100,00 %
13.05.2016 22:38 11,5 C 96 % 999,0 hPa 0,0 l/m 12,7 km/h (3 Bft) W-SW 246 0 min 0,000 mm 0,0 UV-I 0 W/m 10,9 C 7,9 C 16,1 km/h (3 Bft) 100,00 %
13.05.2016 22:39 11,5 C 96 % 999,0 hPa 0,0 l/m 14,2 km/h (3 Bft) W-SW 254 0 min 0,000 mm 0,0 UV-I 0 W/m 10,9 C 7,3 C 19,3 km/h (3 Bft) 100,00 %
13.05.2016 22:40 11,5 C 96 % 999,0 hPa 0,0 l/m 13,7 km/h (3 Bft) SW 224 0 min 0,000 mm 0,0 UV-I 0 W/m 10,9 C 7,5 C 19,3 km/h (3 Bft) 100,00 %
13.05.2016 22:41 11,5 C 96 % 999,0 hPa 0,0 l/m 10,1 km/h (2 Bft) SW 223 0 min 0,000 mm 0,0 UV-I 0 W/m 10,9 C 9,2 C 12,9 km/h (3 Bft) 100,00 %
13.05.2016 22:42 11,5 C 96 % 999,1 hPa 0,0 l/m 12,6 km/h (3 Bft) W-SW 242 0 min 0,000 mm 0,0 UV-I 0 W/m 10,9 C 8,0 C 17,7 km/h (3 Bft) 100,00 %
13.05.2016 22:43 11,5 C 96 % 999,1 hPa 0,0 l/m 11,5 km/h (2 Bft) W-SW 250 0 min 0,000 mm 0,0 UV-I 0 W/m 10,9 C 8,5 C 16,1 km/h (3 Bft) 100,00 %
13.05.2016 22:44 11,5 C 96 % 999,1 hPa 0,0 l/m 11,7 km/h (2 Bft) W-SW 241 0 min 0,000 mm 0,0 UV-I 0 W/m 10,9 C 8,4 C 19,3 km/h (3 Bft) 100,00 %
13.05.2016 22:45 11,5 C 96 % 999,1 hPa 0,0 l/m 9,0 km/h (2 Bft) W-SW 248 0 min 0,000 mm 0,0 UV-I 0 W/m 10,9 C 9,8 C 14,5 km/h (3 Bft) 100,00 %
13.05.2016 22:46 11,5 C 96 % 999,1 hPa 0,0 l/m 13,2 km/h (3 Bft) SW 235 0 min 0,000 mm 0,0 UV-I 0 W/m 10,9 C 7,7 C 17,7 km/h (3 Bft) 100,00 %
13.05.2016 22:47 11,5 C 96 % 999,1 hPa 0,0 l/m 11,4 km/h (2 Bft) W 263 0 min 0,000 mm 0,0 UV-I 0 W/m 10,9 C 8,5 C 14,5 km/h (3 Bft) 96,55 %
13.05.2016 22:48 11,5 C 96 % 999,1 hPa 0,0 l/m 9,5 km/h (2 Bft) W-SW 240 0 min 0,000 mm 0,0 UV-I 0 W/m 10,9 C 9,5 C 12,9 km/h (3 Bft) 100,00 %
13.05.2016 22:49 11,5 C 96 % 999,2 hPa 0,0 l/m 8,8 km/h (2 Bft) SW 226 0 min 0,000 mm 0,0 UV-I 0 W/m 10,9 C 9,9 C 12,9 km/h (3 Bft) 100,00 %
13.05.2016 22:50 11,5 C 96 % 999,2 hPa 0,0 l/m 11,5 km/h (2 Bft) W 267 0 min 0,000 mm 0,0 UV-I 0 W/m 10,9 C 8,5 C 16,1 km/h (3 Bft) 95,83 %
13.05.2016 22:51 11,5 C 96 % 999,2 hPa 0,0 l/m 13,1 km/h (3 Bft) W-SW 241 0 min 0,000 mm 0,0 UV-I 0 W/m 10,9 C 7,7 C 19,3 km/h (3 Bft) 100,00 %
13.05.2016 22:52 11,5 C 96 % 999,2 hPa 0,2 l/m 11,5 km/h (2 Bft) SW 230 0 min 0,000 mm 0,0 UV-I 0 W/m 10,9 C 8,5 C 16,1 km/h (3 Bft) 100,00 %
13.05.2016 22:53 11,5 C 96 % 999,2 hPa 0,0 l/m 11,8 km/h (2 Bft) W-SW 257 0 min 0,000 mm 0,0 UV-I 0 W/m 10,9 C 8,3 C 16,1 km/h (3 Bft) 100,00 %
13.05.2016 22:54 11,5 C 96 % 999,2 hPa 0,0 l/m 13,1 km/h (3 Bft) SW 221 0 min 0,000 mm 0,0 UV-I 0 W/m 10,9 C 7,7 C 20,9 km/h (4 Bft) 100,00 %
13.05.2016 22:55 11,5 C 96 % 999,2 hPa 0,0 l/m 12,0 km/h (2 Bft) W-SW 250 0 min 0,000 mm 0,0 UV-I 0 W/m 10,9 C 8,2 C 16,1 km/h (3 Bft) 100,00 %
13.05.2016 22:56 11,5 C 96 % 999,2 hPa 0,0 l/m 14,4 km/h (3 Bft) SW 229 0 min 0,000 mm 0,0 UV-I 0 W/m 10,9 C 7,2 C 19,3 km/h (3 Bft) 100,00 %
13.05.2016 22:57 11,4 C 96 % 999,2 hPa 0,0 l/m 13,3 km/h (3 Bft) W-SW 246 0 min 0,000 mm 0,0 UV-I 0 W/m 10,8 C 7,5 C 17,7 km/h (3 Bft) 96,15 %
13.05.2016 22:58 11,5 C 96 % 999,2 hPa 0,0 l/m 14,9 km/h (3 Bft) W-SW 246 0 min 0,000 mm 0,0 UV-I 0 W/m 10,9 C 7,0 C 20,9 km/h (4 Bft) 100,00 %
13.05.2016 22:59 11,4 C 96 % 999,2 hPa 0,0 l/m 11,5 km/h (2 Bft) W-SW 244 0 min 0,000 mm 0,0 UV-I 0 W/m 10,8 C 8,4 C 14,5 km/h (3 Bft) 96,55 %
13.05.2016 23:00 11,4 C 96 % 999,2 hPa 0,0 l/m 11,5 km/h (2 Bft) W-SW 244 0 min 0,000 mm 0,0 UV-I 0 W/m 10,8 C 8,4 C 16,1 km/h (3 Bft) 96,30 %
13.05.2016 23:02 11,4 C 96 % 999,2 hPa 0,0 l/m 12,3 km/h (3 Bft) SW 226 0 min 0,000 mm 0,0 UV-I 0 W/m 10,8 C 8,0 C 16,1 km/h (3 Bft) 97,56 %
13.05.2016 23:03 11,4 C 96 % 999,3 hPa 0,0 l/m 12,8 km/h (3 Bft) SW 234 0 min 0,000 mm 0,0 UV-I 0 W/m 10,8 C 7,8 C 17,7 km/h (3 Bft) 100,00 %
13.05.2016 23:04 11,4 C 96 % 999,2 hPa 0,0 l/m 12,5 km/h (3 Bft) SW 226 0 min 0,000 mm 0,0 UV-I 0 W/m 10,8 C 7,9 C 16,1 km/h (3 Bft) 97,56 %
13.05.2016 23:05 11,4 C 96 % 999,3 hPa 0,0 l/m 10,2 km/h (2 Bft) W 268 0 min 0,000 mm 0,0 UV-I 0 W/m 10,8 C 9,0 C 14,5 km/h (3 Bft) 95,65 %
13.05.2016 23:06 11,4 C 96 % 999,2 hPa 0,0 l/m 11,1 km/h (2 Bft) W-SW 252 0 min 0,000 mm 0,0 UV-I 0 W/m 10,8 C 8,6 C 14,5 km/h (3 Bft) 100,00 %
13.05.2016 23:07 11,4 C 96 % 999,3 hPa 0,0 l/m 10,5 km/h (2 Bft) W-SW 248 0 min 0,000 mm 0,0 UV-I 0 W/m 10,8 C 8,9 C 12,9 km/h (3 Bft) 91,67 %
13.05.2016 23:08 11,4 C 96 % 999,3 hPa 0,0 l/m 12,3 km/h (3 Bft) W-SW 254 0 min 0,000 mm 0,0 UV-I 0 W/m 10,8 C 8,0 C 19,3 km/h (3 Bft) 100,00 %
13.05.2016 23:09 11,4 C 96 % 999,3 hPa 0,0 l/m 16,4 km/h (3 Bft) W-SW 250 0 min 0,000 mm 0,0 UV-I 0 W/m 10,8 C 6,3 C 19,3 km/h (3 Bft) 96,55 %
13.05.2016 23:10 11,4 C 96 % 999,3 hPa 0,0 l/m 11,1 km/h (2 Bft) W-SW 246 0 min 0,000 mm 0,0 UV-I 0 W/m 10,8 C 8,6 C 16,1 km/h (3 Bft) 98,55 %
13.05.2016 23:11 11,4 C 96 % 999,3 hPa 0,2 l/m 13,9 km/h (3 Bft) W 259 0 min 0,000 mm 0,0 UV-I 0 W/m 10,8 C 7,3 C 17,7 km/h (3 Bft) 97,62 %
13.05.2016 23:12 11,4 C 96 % 999,3 hPa 0,0 l/m 12,9 km/h (3 Bft) W-SW 251 0 min 0,000 mm 0,0 UV-I 0 W/m 10,8 C 7,7 C 20,9 km/h (4 Bft) 93,10 %
13.05.2016 23:13 11,4 C 96 % 999,3 hPa 0,0 l/m 16,4 km/h (3 Bft) W-SW 252 0 min 0,000 mm 0,0 UV-I 0 W/m 10,8 C 6,3 C 20,9 km/h (4 Bft) 100,00 %
13.05.2016 23:14 11,4 C 96 % 999,3 hPa 0,0 l/m 12,6 km/h (3 Bft) W 270 0 min 0,000 mm 0,0 UV-I 0 W/m 10,8 C 7,8 C 19,3 km/h (3 Bft) 96,15 %
13.05.2016 23:15 11,4 C 96 % 999,3 hPa 0,0 l/m 10,4 km/h (2 Bft) W-SW 253 0 min 0,000 mm 0,0 UV-I 0 W/m 10,8 C 8,9 C 14,5 km/h (3 Bft) 100,00 %
13.05.2016 23:16 11,4 C 96 % 999,3 hPa 0,0 l/m 12,7 km/h (3 Bft) W-SW 249 0 min 0,000 mm 0,0 UV-I 0 W/m 10,8 C 7,8 C 16,1 km/h (3 Bft) 96,15 %
13.05.2016 23:17 11,4 C 96 % 999,3 hPa 0,0 l/m 12,5 km/h (3 Bft) SW 224 0 min 0,000 mm 0,0 UV-I 0 W/m 10,8 C 7,9 C 14,5 km/h (3 Bft) 100,00 %
13.05.2016 23:18 11,4 C 96 % 999,3 hPa 0,0 l/m 16,0 km/h (3 Bft) W 262 0 min 0,000 mm 0,0 UV-I 0 W/m 10,8 C 6,4 C 19,3 km/h (3 Bft) 95,65 %
13.05.2016 23:19 11,4 C 96 % 999,3 hPa 0,0 l/m 12,8 km/h (3 Bft) W-SW 253 0 min 0,000 mm 0,0 UV-I 0 W/m 10,8 C 7,8 C 17,7 km/h (3 Bft) 100,00 %
13.05.2016 23:20 11,3 C 96 % 999,4 hPa 0,0 l/m 9,2 km/h (2 Bft) W-SW 248 0 min 0,000 mm 0,0 UV-I 0 W/m 10,7 C 9,5 C 12,9 km/h (3 Bft) 95,65 %
13.05.2016 23:21 11,3 C 97 % 999,4 hPa 0,0 l/m 12,8 km/h (3 Bft) W 275 0 min 0,000 mm 0,0 UV-I 0 W/m 10,8 C 7,6 C 16,1 km/h (3 Bft) 100,00 %
13.05.2016 23:22 11,3 C 97 % 999,4 hPa 0,0 l/m 10,5 km/h (2 Bft) W-SW 254 0 min 0,000 mm 0,0 UV-I 0 W/m 10,8 C 8,8 C 14,5 km/h (3 Bft) 96,55 %
13.05.2016 23:23 11,3 C 97 % 999,3 hPa 0,0 l/m 10,6 km/h (2 Bft) W-SW 255 0 min 0,000 mm 0,0 UV-I 0 W/m 10,8 C 8,7 C 16,1 km/h (3 Bft) 96,30 %
13.05.2016 23:24 11,3 C 97 % 999,3 hPa 0,0 l/m 10,8 km/h (2 Bft) W-NW 286 0 min 0,000 mm 0,0 UV-I 0 W/m 10,8 C 8,6 C 14,5 km/h (3 Bft) 100,00 %
13.05.2016 23:25 11,3 C 97 % 999,3 hPa 0,0 l/m 10,1 km/h (2 Bft) SW 232 0 min 0,000 mm 0,0 UV-I 0 W/m 10,8 C 9,0 C 12,9 km/h (3 Bft) 96,15 %
13.05.2016 23:26 11,3 C 97 % 999,3 hPa 0,0 l/m 13,8 km/h (3 Bft) W-SW 249 0 min 0,000 mm 0,0 UV-I 0 W/m 10,8 C 7,2 C 17,7 km/h (3 Bft) 100,00 %
13.05.2016 23:27 11,3 C 97 % 999,3 hPa 0,0 l/m 12,8 km/h (3 Bft) W 265 0 min 0,000 mm 0,0 UV-I 0 W/m 10,8 C 7,6 C 14,5 km/h (3 Bft) 92,86 %
13.05.2016 23:28 11,3 C 97 % 999,3 hPa 0,0 l/m 13,3 km/h (3 Bft) W 259 0 min 0,000 mm 0,0 UV-I 0 W/m 10,8 C 7,4 C 17,7 km/h (3 Bft) 100,00 %
13.05.2016 23:29 11,3 C 97 % 999,3 hPa 0,0 l/m 9,0 km/h (2 Bft) S-SW 204 0 min 0,000 mm 0,0 UV-I 0 W/m 10,8 C 9,6 C 12,9 km/h (3 Bft) 96,15 %
13.05.2016 23:30 11,3 C 97 % 999,3 hPa 0,0 l/m 14,2 km/h (3 Bft) SW 231 0 min 0,000 mm 0,0 UV-I 0 W/m 10,8 C 7,0 C 17,7 km/h (3 Bft) 100,00 %
13.05.2016 23:31 11,3 C 97 % 999,3 hPa 0,0 l/m 11,3 km/h (2 Bft) SW 230 0 min 0,000 mm 0,0 UV-I 0 W/m 10,8 C 8,4 C 14,5 km/h (3 Bft) 100,00 %
13.05.2016 23:32 11,3 C 97 % 999,3 hPa 0,0 l/m 10,4 km/h (2 Bft) W-SW 258 0 min 0,000 mm 0,0 UV-I 0 W/m 10,8 C 8,8 C 16,1 km/h (3 Bft) 95,83 %
13.05.2016 23:33 11,3 C 97 % 999,3 hPa 0,0 l/m 12,7 km/h (3 Bft) W-SW 239 0 min 0,000 mm 0,0 UV-I 0 W/m 10,8 C 7,7 C 19,3 km/h (3 Bft) 100,00 %
13.05.2016 23:34 11,3 C 96 % 999,3 hPa 0,0 l/m 9,6 km/h (2 Bft) S-SW 202 0 min 0,000 mm 0,0 UV-I 0 W/m 10,7 C 9,3 C 12,9 km/h (3 Bft) 100,00 %
13.05.2016 23:35 11,3 C 97 % 999,3 hPa 0,0 l/m 9,1 km/h (2 Bft) SW 231 0 min 0,000 mm 0,0 UV-I 0 W/m 10,8 C 9,5 C 14,5 km/h (3 Bft) 100,00 %
13.05.2016 23:36 11,3 C 97 % 999,3 hPa 0,0 l/m 13,0 km/h (3 Bft) SW 232 0 min 0,000 mm 0,0 UV-I 0 W/m 10,8 C 7,6 C 16,1 km/h (3 Bft) 100,00 %
13.05.2016 23:37 11,3 C 96 % 999,3 hPa 0,0 l/m 11,1 km/h (2 Bft) W-SW 257 0 min 0,000 mm 0,0 UV-I 0 W/m 10,7 C 8,5 C 17,7 km/h (3 Bft) 100,00 %
13.05.2016 23:38 11,3 C 96 % 999,3 hPa 0,2 l/m 11,5 km/h (2 Bft) SW 225 0 min 0,000 mm 0,0 UV-I 0 W/m 10,7 C 8,3 C 16,1 km/h (3 Bft) 100,00 %
13.05.2016 23:39 11,3 C 97 % 999,3 hPa 0,0 l/m 9,6 km/h (2 Bft) W-SW 240 0 min 0,000 mm 0,0 UV-I 0 W/m 10,8 C 9,3 C 16,1 km/h (3 Bft) 100,00 %
13.05.2016 23:40 11,3 C 96 % 999,3 hPa 0,0 l/m 9,7 km/h (2 Bft) W-SW 240 0 min 0,000 mm 0,0 UV-I 0 W/m 10,7 C 9,2 C 12,9 km/h (3 Bft) 100,00 %
13.05.2016 23:41 11,3 C 97 % 999,3 hPa 0,0 l/m 8,4 km/h (2 Bft) SW 234 0 min 0,000 mm 0,0 UV-I 0 W/m 10,8 C 10,0 C 12,9 km/h (3 Bft) 86,96 %
13.05.2016 23:42 11,3 C 97 % 999,3 hPa 0,0 l/m 8,5 km/h (2 Bft) SW 227 0 min 0,000 mm 0,0 UV-I 0 W/m 10,8 C 9,9 C 12,9 km/h (3 Bft) 100,00 %
13.05.2016 23:43 11,3 C 97 % 999,3 hPa 0,0 l/m 10,2 km/h (2 Bft) SW 234 0 min 0,000 mm 0,0 UV-I 0 W/m 10,8 C 8,9 C 14,5 km/h (3 Bft) 100,00 %
13.05.2016 23:44 11,3 C 97 % 999,3 hPa 0,0 l/m 9,0 km/h (2 Bft) SW 216 0 min 0,000 mm 0,0 UV-I 0 W/m 10,8 C 9,6 C 12,9 km/h (3 Bft) 100,00 %
13.05.2016 23:45 11,3 C 97 % 999,3 hPa 0,0 l/m 10,7 km/h (2 Bft) SW 234 0 min 0,000 mm 0,0 UV-I 0 W/m 10,8 C 8,7 C 14,5 km/h (3 Bft) 95,83 %
13.05.2016 23:46 11,3 C 97 % 999,3 hPa 0,0 l/m 10,9 km/h (2 Bft) W-SW 258 0 min 0,000 mm 0,0 UV-I 0 W/m 10,8 C 8,6 C 14,5 km/h (3 Bft) 100,00 %
13.05.2016 23:47 11,3 C 97 % 999,3 hPa 0,0 l/m 9,8 km/h (2 Bft) SW 221 0 min 0,000 mm 0,0 UV-I 0 W/m 10,8 C 9,1 C 14,5 km/h (3 Bft) 100,00 %
13.05.2016 23:48 11,3 C 97 % 999,3 hPa 0,0 l/m 9,2 km/h (2 Bft) SW 235 0 min 0,000 mm 0,0 UV-I 0 W/m 10,8 C 9,5 C 12,9 km/h (3 Bft) 96,55 %
13.05.2016 23:49 11,3 C 97 % 999,3 hPa 0,0 l/m 9,6 km/h (2 Bft) SW 235 0 min 0,000 mm 0,0 UV-I 0 W/m 10,8 C 9,3 C 14,5 km/h (3 Bft) 100,00 %
13.05.2016 23:50 11,3 C 97 % 999,3 hPa 0,0 l/m 10,8 km/h (2 Bft) SW 227 0 min 0,000 mm 0,0 UV-I 0 W/m 10,8 C 8,6 C 14,5 km/h (3 Bft) 96,15 %
13.05.2016 23:51 11,3 C 97 % 999,3 hPa 0,0 l/m 10,0 km/h (2 Bft) W-SW 240 0 min 0,000 mm 0,0 UV-I 0 W/m 10,8 C 9,0 C 12,9 km/h (3 Bft) 96,30 %
13.05.2016 23:52 11,3 C 97 % 999,3 hPa 0,0 l/m 8,3 km/h (2 Bft) W-SW 247 0 min 0,000 mm 0,0 UV-I 0 W/m 10,8 C 10,0 C 11,3 km/h (2 Bft) 100,00 %
13.05.2016 23:53 11,3 C 97 % 999,3 hPa 0,0 l/m 8,0 km/h (2 Bft) W-SW 246 0 min 0,000 mm 0,0 UV-I 0 W/m 10,8 C 10,2 C 12,9 km/h (3 Bft) 100,00 %
13.05.2016 23:54 11,3 C 97 % 999,3 hPa 0,0 l/m 9,7 km/h (2 Bft) W 261 0 min 0,000 mm 0,0 UV-I 0 W/m 10,8 C 9,2 C 14,5 km/h (3 Bft) 95,65 %
13.05.2016 23:55 11,3 C 97 % 999,3 hPa 0,0 l/m 9,3 km/h (2 Bft) SW 220 0 min 0,000 mm 0,0 UV-I 0 W/m 10,8 C 9,4 C 14,5 km/h (3 Bft) 100,00 %
13.05.2016 23:56 11,3 C 97 % 999,3 hPa 0,0 l/m 9,9 km/h (2 Bft) SW 228 0 min 0,000 mm 0,0 UV-I 0 W/m 10,8 C 9,1 C 16,1 km/h (3 Bft) 95,65 %
13.05.2016 23:57 11,3 C 97 % 999,3 hPa 0,0 l/m 11,3 km/h (2 Bft) SW 217 0 min 0,000 mm 0,0 UV-I 0 W/m 10,8 C 8,4 C 16,1 km/h (3 Bft) 100,00 %
13.05.2016 23:58 11,3 C 97 % 999,3 hPa 0,0 l/m 9,6 km/h (2 Bft) SW 224 0 min 0,000 mm 0,0 UV-I 0 W/m 10,8 C 9,3 C 12,9 km/h (3 Bft) 100,00 %
13.05.2016 23:59 11,3 C 97 % 999,4 hPa 0,0 l/m 8,7 km/h (2 Bft) SW 229 0 min 0,000 mm 0,0 UV-I 0 W/m 10,8 C 9,8 C 11,3 km/h (2 Bft) 100,00 %
_ Min-Zeit 04:02 01:08 06:48 - 18:15 - - - - - - 04:05 00:55 18:09 04:50
Minimum _ 9,7 C 94 % 993,6 hPa - 2,0 km/h (1 Bft) - - - - - - 8,9 C 2,5 C 3,2 km/h (1 Bft) 83,33 %
_ Max-Zeit 15:45 14:49 23:20 18:16 18:23 - - 00:00 13:00 12:11 12:11 15:45 18:07 18:23 00:00
Maximum _ 12,3 C 97 % 999,4 hPa 0,6 l/m 25,8 km/h
W (4 Bft)
- - 0 min 0,076 mm 1,5 UV-I 233 W/m 11,7 C 12,2 C 37,0 km/h
W-SW (5 Bft)
100,00 %
Durchschnitt _ 11,0 C 96 % 995,6 hPa #43,2 l/m 13,1 km/h (3 Bft) SW - #0 min. #0,533 mm 0,6 UV-I 66 W/m 10,3 C 7,3 C 18,6 km/h (3 Bft) 98,52 %